[[{"header":{"parameterUnit":"m.s-1","parameterCategory":1,"la1":31.0,"la2":29.5877,"lo1":-88.7671,"lo2":-86.6584,"dy":0.0162,"dx":0.0185,"nx":115,"ny":88,"refTime":"2024-05-16T12:00:00:Z","depth":0,"parameterNumber":2,"parameterNumberName":"U-component_of_WINDS"},"data":[0.0,0.0,0.0,0.0,0.0,0.0,0.0,0.0,0.0,0.0,0.0,0.0,0.0,0.0,0.0,0.0,0.0,0.0,0.0,0.0,0.0,0.0,0.0,0.0,0.0,0.0,0.0,0.0,0.0,0.0,0.0,0.0,0.0,0.0,0.0,0.0,0.0,0.0,0.0,0.0,0.0,0.0,0.0,0.0,0.0,0.0,0.0,0.0,0.0,0.0,0.0,0.0,0.0,0.0,0.0,0.0,0.0,0.0,0.0,0.0,0.0,0.0,0.0,0.0,0.0,0.0,0.0,0.0,0.0,0.0,0.0,0.0,0.0,0.0,0.0,0.0,0.0,0.0,0.0,0.0,0.0,0.0,0.0,0.0,0.0,0.0,0.0,0.0,0.0,0.0,0.0,0.0,0.0,0.0,0.0,0.0,0.0,0.0,0.0,0.0,0.0,0.0,0.0,0.0,0.0,0.0,0.0,0.0,0.0,0.0,0.0,0.0,0.0,0.0,0.0,0.0,0.0,0.0,0.0,0.0,0.0,0.0,0.0,0.0,0.0,0.0,0.0,0.0,0.0,0.0,0.0,0.0,0.0,0.0,0.0,0.0,0.0,0.0,0.0,0.0,0.0,0.0,0.0,0.0,0.0,0.0,0.0,0.0,0.0,0.0,0.0,0.0,0.0,0.0,0.0,0.0,0.0,0.0,0.0,0.0,0.0,0.0,0.0,0.0,0.0,0.0,0.0,0.0,0.0,0.0,0.0,0.0,0.0,0.0,0.0,0.0,0.0,0.0,0.0,0.0,0.0,0.0,0.0,0.0,0.0,0.0,0.0,0.0,0.0,0.0,0.0,0.0,0.0,0.0,0.0,0.0,0.0,0.0,0.0,0.0,0.0,0.0,0.0,0.0,0.0,0.0,0.0,0.0,0.0,0.0,0.0,0.0,0.0,0.0,0.0,0.0,0.0,0.0,0.0,0.0,0.0,0.0,0.0,0.0,0.0,0.0,0.0,0.0,0.0,0.0,0.0,0.0,0.0,0.0,0.0,0.0,0.0,0.0,0.0,0.0,0.0,0.0,0.0,0.0,0.0,0.0,0.0,0.0,0.0,0.0,0.0,0.0,0.0,0.0,0.0,0.0,0.0,0.0,0.0,0.0,0.0,0.0,0.0,0.0,0.0,0.0,0.0,0.0,0.0,0.0,0.0,0.0,0.0,0.0,0.0,0.0,0.0,0.0,0.0,0.0,0.0,0.0,0.0,0.0,0.0,0.0,0.0,0.0,0.0,0.0,0.0,0.0,0.0,0.0,0.0,0.0,0.0,0.0,0.0,0.0,0.0,0.0,0.0,0.0,0.0,0.0,0.0,0.0,0.0,0.0,0.0,0.0,0.0,0.0,0.0,0.0,0.0,0.0,0.0,0.0,0.0,0.0,0.0,0.0,0.0,0.0,0.0,0.0,0.0,0.0,0.0,0.0,0.0,0.0,0.0,0.0,0.0,0.0,0.0,0.0,0.0,0.0,0.0,0.0,0.0,0.0,0.0,0.0,0.0,0.0,0.0,0.0,0.0,0.0,0.0,0.0,0.0,0.0,0.0,0.0,0.0,0.0,0.0,0.0,0.0,0.0,0.0,0.0,0.0,0.0,0.0,0.0,0.0,0.0,0.0,0.0,0.0,0.0,0.0,0.0,0.0,0.0,0.0,0.0,0.0,0.0,0.0,0.0,0.0,0.0,0.0,0.0,0.0,0.0,0.0,0.0,0.0,0.0,0.0,0.0,0.0,0.0,0.0,0.0,0.0,0.0,0.0,0.0,0.0,0.0,0.0,0.0,0.0,0.0,0.0,0.0,0.0,0.0,0.0,0.0,0.0,0.0,0.0,0.0,0.0,0.0,0.0,0.0,0.0,0.0,0.0,0.0,0.0,0.0,0.0,0.0,0.0,0.0,0.0,0.0,0.0,0.0,0.0,0.0,0.0,0.0,0.0,0.0,0.0,0.0,0.0,0.0,0.0,0.0,0.0,0.0,0.0,0.0,0.0,0.0,0.0,0.0,0.0,0.0,0.0,0.0,0.0,0.0,0.0,0.0,0.0,0.0,0.0,0.0,0.0,0.0,0.0,0.0,0.0,0.0,0.0,0.0,0.0,0.0,0.0,0.0,0.0,0.0,0.0,0.0,0.0,0.0,0.0,0.0,0.0,0.0,0.0,0.0,0.0,0.0,0.0,0.0,0.0,0.0,0.0,0.0,0.0,0.0,0.0,0.0,0.0,0.0,0.0,0.0,0.0,0.0,0.0,0.0,0.0,0.0,0.0,0.0,0.0,0.0,0.0,0.0,0.0,0.0,0.0,0.0,0.0,0.0,0.0,0.0,0.0,0.0,0.0,0.0,0.0,0.0,0.0,0.0,0.0,0.0,0.0,0.0,0.0,0.0,0.0,0.0,0.0,0.0,0.0,0.0,0.0,0.0,0.0,0.0,0.0,0.0,0.0,0.0,0.0,0.0,0.0,0.0,0.0,0.0,0.0,0.0,0.0,0.0,0.0,0.0,0.0,0.0,0.0,0.0,0.0,0.0,0.0,0.0,0.0,0.0,0.0,0.0,0.0,0.0,0.0,0.0,0.0,0.0,0.0,0.0,0.0,0.0,0.0,0.0,0.0,0.0,0.0,0.0,0.0,0.0,0.0,0.0,0.0,0.0,0.0,0.0,0.0,0.0,0.0,0.0,0.0,0.0,0.0,0.0,0.0,0.0,0.0,0.0,0.0,0.0,0.0,0.0,0.0,0.0,0.0,0.0,0.0,0.0,0.0,0.0,0.0,0.0,0.0,0.0,0.0,0.0,0.0,0.0,0.0,0.0,0.0,0.0,0.0,0.0,0.0,0.0,0.0,0.0,0.0,0.0,0.0,0.0,0.0,0.0,0.0,0.0,0.0,0.0,0.0,0.0,0.0,0.0,0.0,0.0,0.0,0.0,0.0,0.0,0.0,0.0,0.0,0.0,0.0,0.0,0.0,0.0,0.0,0.0,0.0,0.0,0.0,0.0,0.0,0.0,0.0,0.0,0.0,0.0,0.0,0.0,0.0,0.0,0.0,0.0,0.0,0.0,0.0,0.0,0.0,0.0,0.0,0.0,0.0,0.0,0.0,0.0,0.0,0.0,0.0,0.0,0.0,0.0,0.0,0.0,0.0,0.0,0.0,0.0,0.0,0.0,0.0,0.0,0.0,0.0,0.0,0.0,0.0,0.0,0.0,0.0,0.0,0.0,0.0,0.0,0.0,0.0,0.0,0.0,0.0,0.0,0.0,0.0,0.0,0.0,0.0,0.0,0.0,0.0,0.0,0.0,0.0,0.0,0.0,0.0,0.0,0.0,0.0,0.0,0.0,0.0,0.0,0.0,0.0,0.0,0.0,0.0,0.0,0.0,0.0,0.0,0.0,0.0,0.0,0.0,0.0,0.0,0.0,0.0,0.0,0.0,0.0,0.0,0.0,0.0,0.0,0.0,0.0,0.0,0.0,0.0,0.0,0.0,0.0,0.0,0.0,0.0,0.0,0.0,0.0,0.0,0.0,0.0,0.0,0.0,0.0,0.0,0.0,0.0,0.0,0.0,0.0,0.0,0.0,0.0,0.0,0.0,0.0,0.0,0.0,0.0,0.0,0.0,0.0,0.0,0.0,0.0,0.0,0.0,0.0,0.0,0.0,0.0,0.0,0.0,0.0,0.0,0.0,0.0,0.0,0.0,0.0,0.0,0.0,0.0,0.0,0.0,0.0,0.0,0.0,0.0,0.0,0.0,0.0,0.0,0.0,0.0,0.0,0.0,0.0,0.0,0.0,0.0,0.0,0.0,0.0,0.0,0.0,0.0,0.0,0.0,0.0,0.0,0.0,0.0,0.0,0.0,0.0,0.0,0.0,0.0,0.0,0.0,0.0,0.0,0.0,0.0,0.0,0.0,0.0,0.0,0.0,0.0,0.0,0.0,0.0,0.0,0.0,0.0,0.0,0.0,0.0,0.0,0.0,0.0,0.0,0.0,0.0,0.0,0.0,0.0,0.0,0.0,0.0,0.0,0.0,0.0,0.0,0.0,0.0,0.0,0.0,0.0,0.0,0.0,0.0,0.0,0.0,0.0,0.0,0.0,0.0,0.0,0.0,0.0,0.0,0.0,0.0,0.0,0.0,0.0,0.0,0.0,0.0,0.0,0.0,0.0,0.0,0.0,0.0,0.0,0.0,0.0,0.0,0.0,0.0,0.0,0.0,0.0,0.0,0.0,0.0,0.0,-2.4259,0.0,0.0,0.0,0.0,0.0,0.0,0.0,0.0,0.0,0.0,0.0,0.0,0.0,0.0,0.0,0.0,0.0,0.0,0.0,0.0,0.0,0.0,0.0,0.0,0.0,0.0,0.0,0.0,0.0,0.0,0.0,0.0,0.0,0.0,0.0,0.0,0.0,0.0,0.0,0.0,0.0,0.0,0.0,0.0,0.0,0.0,0.0,0.0,0.0,0.0,0.0,0.0,0.0,0.0,0.0,0.0,0.0,0.0,0.0,0.0,0.0,0.0,0.0,0.0,0.0,0.0,0.0,0.0,0.0,0.0,0.0,0.0,0.0,0.0,0.0,0.0,0.0,0.0,0.0,0.0,0.0,0.0,0.0,0.0,0.0,0.0,0.0,0.0,0.0,0.0,0.0,0.0,0.0,0.0,0.0,0.0,0.0,0.0,0.0,0.0,0.0,0.0,0.0,0.0,0.0,0.0,0.0,0.0,0.0,0.0,-2.8883,-2.9094,-2.804,-2.6881,-2.5622,0.0,0.0,0.0,0.0,0.0,0.0,0.0,0.0,0.0,0.0,0.0,0.0,0.0,0.0,0.0,0.0,0.0,0.0,0.0,0.0,0.0,0.0,0.0,0.0,0.0,0.0,0.0,0.0,0.0,0.0,0.0,0.0,0.0,0.0,0.0,0.0,0.0,0.0,0.0,0.0,0.0,0.0,0.0,0.0,0.0,0.0,0.0,0.0,0.0,0.0,0.0,0.0,0.0,0.0,0.0,0.0,0.0,0.0,0.0,0.0,0.0,0.0,0.0,0.0,0.0,0.0,0.0,0.0,0.0,0.0,0.0,0.0,0.0,0.0,0.0,0.0,0.0,0.0,0.0,0.0,0.0,0.0,0.0,0.0,0.0,0.0,0.0,0.0,0.0,0.0,0.0,0.0,0.0,0.0,0.0,0.0,0.0,0.0,0.0,0.0,0.0,0.0,0.0,0.0,0.0,0.0,0.0,0.0,0.0,0.0,0.0,0.0,-2.9379,-2.8002,-2.6533,0.0,0.0,0.0,0.0,0.0,0.0,0.0,0.0,0.0,0.0,0.0,0.0,0.0,0.0,0.0,0.0,0.0,0.0,0.0,0.0,0.0,0.0,0.0,0.0,0.0,0.0,0.0,0.0,0.0,0.0,0.0,0.0,0.0,0.0,0.0,0.0,0.0,0.0,0.0,0.0,0.0,0.0,0.0,0.0,0.0,0.0,0.0,0.0,0.0,0.0,0.0,0.0,0.0,0.0,0.0,0.0,0.0,0.0,0.0,0.0,0.0,0.0,0.0,0.0,0.0,0.0,0.0,0.0,0.0,0.0,0.0,0.0,0.0,0.0,0.0,0.0,0.0,0.0,0.0,0.0,0.0,0.0,0.0,0.0,0.0,0.0,0.0,0.0,0.0,0.0,0.0,0.0,0.0,0.0,0.0,0.0,0.0,0.0,0.0,0.0,0.0,0.0,0.0,0.0,0.0,0.0,0.0,0.0,0.0,0.0,-3.0529,-3.1607,-3.0872,0.0,-2.5899,0.0,0.0,0.0,0.0,0.0,0.0,0.0,0.0,0.0,0.0,0.0,0.0,0.0,0.0,0.0,0.0,0.0,0.0,0.0,0.0,0.0,0.0,0.0,0.0,0.0,0.0,0.0,0.0,0.0,0.0,0.0,0.0,0.0,0.0,0.0,0.0,0.0,0.0,0.0,0.0,0.0,0.0,0.0,0.0,0.0,0.0,0.0,0.0,0.0,0.0,0.0,0.0,0.0,0.0,0.0,0.0,0.0,0.0,0.0,0.0,0.0,0.0,0.0,0.0,0.0,0.0,0.0,0.0,0.0,0.0,0.0,0.0,0.0,0.0,0.0,0.0,0.0,0.0,0.0,0.0,0.0,0.0,0.0,0.0,0.0,0.0,0.0,0.0,0.0,0.0,0.0,0.0,0.0,0.0,0.0,0.0,0.0,0.0,0.0,0.0,0.0,0.0,0.0,0.0,0.0,0.0,0.0,0.0,0.0,0.0,-3.1092,-3.19,-3.0669,-2.8793,0.0,0.0,0.0,0.0,0.0,0.0,0.0,0.0,0.0,0.0,0.0,0.0,0.0,0.0,0.0,0.0,0.0,0.0,0.0,0.0,0.0,0.0,0.0,0.0,0.0,0.0,0.0,0.0,0.0,0.0,0.0,0.0,0.0,0.0,0.0,0.0,0.0,0.0,0.0,0.0,0.0,0.0,0.0,0.0,0.0,0.0,0.0,0.0,0.0,0.0,0.0,0.0,0.0,0.0,0.0,0.0,0.0,0.0,0.0,0.0,0.0,0.0,0.0,0.0,0.0,0.0,0.0,0.0,0.0,0.0,0.0,0.0,0.0,0.0,0.0,0.0,0.0,0.0,0.0,0.0,0.0,0.0,0.0,0.0,0.0,0.0,0.0,0.0,0.0,0.0,0.0,0.0,0.0,0.0,0.0,0.0,0.0,0.0,0.0,0.0,0.0,0.0,0.0,0.0,0.0,0.0,0.0,0.0,0.0,0.0,-3.1225,-3.1929,-3.258,-3.1305,-2.9421,-2.7061,0.0,0.0,0.0,0.0,0.0,0.0,0.0,0.0,0.0,0.0,0.0,0.0,0.0,0.0,0.0,0.0,0.0,0.0,0.0,0.0,0.0,0.0,0.0,0.0,0.0,0.0,0.0,0.0,0.0,0.0,0.0,0.0,0.0,0.0,0.0,0.0,0.0,0.0,0.0,0.0,0.0,0.0,0.0,0.0,0.0,0.0,0.0,0.0,0.0,0.0,0.0,0.0,0.0,0.0,0.0,0.0,0.0,0.0,0.0,0.0,0.0,0.0,0.0,0.0,0.0,0.0,0.0,0.0,0.0,0.0,0.0,0.0,0.0,0.0,0.0,0.0,0.0,0.0,0.0,0.0,0.0,0.0,0.0,0.0,0.0,0.0,0.0,0.0,0.0,0.0,0.0,0.0,0.0,0.0,0.0,0.0,0.0,0.0,0.0,0.0,0.0,0.0,0.0,0.0,0.0,0.0,0.0,0.0,0.0,-3.261,-3.3057,-3.43,-3.3566,-3.1501,0.0,0.0,0.0,0.0,0.0,0.0,0.0,0.0,0.0,0.0,0.0,0.0,0.0,0.0,0.0,0.0,0.0,0.0,0.0,0.0,0.0,0.0,0.0,0.0,0.0,0.0,0.0,0.0,0.0,0.0,0.0,0.0,0.0,0.0,0.0,0.0,0.0,0.0,0.0,0.0,0.0,0.0,0.0,0.0,0.0,0.0,0.0,0.0,0.0,0.0,0.0,0.0,0.0,0.0,0.0,0.0,0.0,0.0,0.0,0.0,0.0,0.0,0.0,0.0,0.0,0.0,0.0,0.0,0.0,0.0,0.0,0.0,0.0,0.0,0.0,0.0,0.0,0.0,0.0,0.0,0.0,0.0,0.0,0.0,0.0,0.0,0.0,0.0,0.0,0.0,0.0,0.0,0.0,0.0,0.0,0.0,0.0,0.0,0.0,0.0,0.0,0.0,0.0,0.0,0.0,0.0,0.0,0.0,0.0,-3.0735,-3.1692,-3.2963,-3.4413,-3.2184,-3.0433,0.0,0.0,0.0,0.0,0.0,0.0,0.0,0.0,0.0,0.0,0.0,0.0,0.0,0.0,0.0,0.0,0.0,0.0,0.0,0.0,0.0,0.0,0.0,0.0,0.0,0.0,0.0,0.0,0.0,0.0,0.0,0.0,0.0,0.0,0.0,0.0,0.0,0.0,0.0,0.0,0.0,0.0,0.0,0.0,0.0,0.0,0.0,0.0,0.0,0.0,0.0,0.0,0.0,0.0,0.0,0.0,0.0,0.0,0.0,0.0,0.0,0.0,0.0,0.0,0.0,0.0,0.0,0.0,0.0,0.0,0.0,0.0,0.0,0.0,0.0,0.0,0.0,0.0,0.0,0.0,0.0,0.0,0.0,0.0,0.0,0.0,0.0,0.0,0.0,0.0,0.0,0.0,0.0,0.0,0.0,0.0,0.0,0.0,0.0,0.0,0.0,0.0,0.0,0.0,0.0,0.0,0.0,0.0,0.0,-3.1229,0.0,-3.4389,0.0,-3.2517,-3.0645,0.0,0.0,0.0,0.0,0.0,0.0,0.0,0.0,0.0,0.0,0.0,0.0,0.0,0.0,0.0,0.0,0.0,0.0,0.0,0.0,0.0,0.0,0.0,0.0,0.0,0.0,0.0,0.0,0.0,0.0,0.0,0.0,0.0,0.0,0.0,0.0,0.0,0.0,0.0,0.0,0.0,0.0,0.0,0.0,0.0,0.0,0.0,0.0,0.0,0.0,0.0,0.0,0.0,0.0,0.0,0.0,0.0,0.0,0.0,0.0,0.0,0.0,0.0,0.0,0.0,0.0,0.0,0.0,0.0,0.0,0.0,0.0,0.0,0.0,0.0,0.0,0.0,0.0,0.0,0.0,0.0,0.0,0.0,0.0,0.0,0.0,0.0,0.0,0.0,0.0,0.0,0.0,0.0,0.0,0.0,0.0,0.0,0.0,0.0,0.0,0.0,0.0,0.0,0.0,0.0,0.0,0.0,0.0,-3.0871,-3.4852,-3.7031,-3.7238,-3.5849,-3.4821,-3.2369,0.0,0.0,0.0,0.0,0.0,0.0,0.0,0.0,0.0,0.0,0.0,0.0,0.0,0.0,0.0,0.0,0.0,0.0,0.0,0.0,0.0,0.0,0.0,0.0,0.0,0.0,0.0,0.0,0.0,0.0,0.0,0.0,0.0,0.0,0.0,0.0,0.0,0.0,0.0,0.0,0.0,0.0,0.0,0.0,0.0,0.0,0.0,0.0,0.0,0.0,0.0,0.0,0.0,0.0,0.0,0.0,0.0,0.0,0.0,0.0,0.0,0.0,0.0,0.0,0.0,0.0,0.0,0.0,0.0,0.0,0.0,0.0,0.0,0.0,0.0,0.0,0.0,0.0,0.0,0.0,0.0,0.0,0.0,0.0,0.0,0.0,0.0,0.0,0.0,0.0,0.0,0.0,0.0,0.0,0.0,0.0,0.0,0.0,0.0,0.0,0.0,0.0,0.0,0.0,0.0,0.0,0.0,0.0,0.0,-3.3389,-3.4902,-3.5753,-3.5727,-3.3852,-3.2036,0.0,0.0,0.0,0.0,0.0,0.0,0.0,0.0,0.0,0.0,0.0,0.0,0.0,0.0,0.0,0.0,0.0,0.0,0.0,0.0,0.0,0.0,0.0,0.0,0.0,0.0,0.0,0.0,0.0,0.0,0.0,0.0,0.0,0.0,0.0,0.0,0.0,0.0,0.0,0.0,0.0,0.0,0.0,0.0,0.0,0.0,0.0,0.0,0.0,0.0,0.0,0.0,0.0,0.0,0.0,0.0,0.0,0.0,0.0,0.0,0.0,0.0,0.0,0.0,0.0,0.0,0.0,0.0,0.0,0.0,0.0,0.0,0.0,0.0,0.0,0.0,0.0,0.0,0.0,0.0,0.0,0.0,0.0,0.0,0.0,0.0,0.0,0.0,0.0,0.0,0.0,0.0,0.0,0.0,0.0,0.0,0.0,0.0,0.0,0.0,0.0,0.0,0.0,0.0,0.0,0.0,0.0,0.0,0.0,-3.4648,-3.5791,-3.635,-3.6287,-3.4139,-3.2338,-3.1006,0.0,0.0,0.0,0.0,0.0,0.0,0.0,0.0,0.0,0.0,0.0,0.0,0.0,0.0,0.0,0.0,0.0,0.0,0.0,0.0,0.0,0.0,0.0,0.0,0.0,0.0,0.0,0.0,0.0,0.0,0.0,0.0,0.0,0.0,0.0,0.0,0.0,0.0,0.0,0.0,0.0,0.0,0.0,0.0,0.0,0.0,0.0,0.0,0.0,0.0,0.0,0.0,0.0,0.0,0.0,0.0,0.0,0.0,0.0,0.0,0.0,0.0,0.0,0.0,0.0,0.0,0.0,0.0,0.0,0.0,0.0,0.0,0.0,0.0,0.0,0.0,0.0,0.0,0.0,0.0,0.0,0.0,0.0,0.0,0.0,0.0,0.0,0.0,0.0,0.0,0.0,0.0,0.0,0.0,0.0,0.0,0.0,0.0,0.0,0.0,0.0,0.0,0.0,0.0,0.0,0.0,0.0,0.0,-3.7892,-3.898,-3.8744,-3.7205,-3.5546,-3.3313,0.0,0.0,0.0,0.0,0.0,0.0,0.0,0.0,0.0,0.0,0.0,0.0,0.0,0.0,0.0,0.0,0.0,0.0,0.0,0.0,0.0,0.0,0.0,0.0,0.0,0.0,0.0,0.0,0.0,0.0,0.0,0.0,0.0,0.0,0.0,0.0,0.0,0.0,0.0,0.0,0.0,0.0,0.0,0.0,0.0,0.0,0.0,0.0,0.0,0.0,0.0,0.0,0.0,0.0,0.0,0.0,0.0,0.0,0.0,0.0,0.0,0.0,0.0,0.0,0.0,0.0,0.0,0.0,0.0,0.0,0.0,0.0,0.0,0.0,0.0,0.0,0.0,0.0,0.0,0.0,0.0,0.0,0.0,0.0,0.0,0.0,0.0,0.0,0.0,0.0,0.0,0.0,0.0,0.0,0.0,0.0,0.0,0.0,0.0,0.0,0.0,0.0,0.0,0.0,0.0,0.0,0.0,0.0,0.0,-3.7243,-3.8212,-3.8505,-3.8056,-3.6437,-3.4455,0.0,0.0,0.0,0.0,0.0,0.0,0.0,0.0,0.0,0.0,0.0,0.0,0.0,0.0,0.0,0.0,0.0,0.0,0.0,0.0,0.0,0.0,0.0,0.0,0.0,0.0,0.0,0.0,0.0,0.0,0.0,0.0,0.0,0.0,0.0,0.0,0.0,0.0,0.0,0.0,0.0,0.0,0.0,0.0,0.0,0.0,0.0,0.0,0.0,0.0,0.0,0.0,0.0,0.0,0.0,0.0,0.0,0.0,0.0,0.0,0.0,0.0,0.0,0.0,0.0,0.0,0.0,0.0,0.0,0.0,0.0,0.0,0.0,0.0,0.0,0.0,0.0,0.0,0.0,0.0,0.0,0.0,0.0,0.0,0.0,0.0,0.0,0.0,0.0,0.0,0.0,0.0,0.0,0.0,0.0,0.0,0.0,0.0,0.0,0.0,0.0,0.0,0.0,0.0,0.0,0.0,0.0,0.0,-3.7183,-3.857,-3.9224,-3.9383,-3.9,-3.6609,-3.4555,0.0,0.0,0.0,0.0,0.0,0.0,0.0,0.0,0.0,0.0,0.0,0.0,0.0,0.0,0.0,0.0,0.0,0.0,0.0,0.0,0.0,0.0,0.0,0.0,0.0,0.0,0.0,0.0,0.0,0.0,0.0,0.0,0.0,0.0,0.0,0.0,0.0,0.0,0.0,0.0,0.0,0.0,0.0,0.0,0.0,0.0,0.0,0.0,0.0,0.0,0.0,0.0,0.0,0.0,0.0,0.0,0.0,0.0,0.0,0.0,0.0,0.0,0.0,0.0,0.0,0.0,0.0,0.0,0.0,0.0,0.0,0.0,0.0,0.0,0.0,0.0,0.0,0.0,0.0,0.0,0.0,0.0,0.0,0.0,0.0,0.0,0.0,0.0,0.0,0.0,0.0,0.0,0.0,0.0,0.0,0.0,0.0,0.0,0.0,0.0,0.0,0.0,0.0,0.0,0.0,0.0,0.0,0.0,-3.8083,-4.0461,-4.0808,-4.0543,-3.963,-3.6551,-3.4267,0.0,0.0,0.0,0.0,0.0,0.0,0.0,0.0,0.0,0.0,0.0,0.0,0.0,0.0,0.0,0.0,0.0,0.0,0.0,0.0,0.0,0.0,0.0,0.0,0.0,0.0,0.0,0.0,0.0,0.0,0.0,0.0,0.0,0.0,0.0,0.0,0.0,0.0,0.0,0.0,0.0,0.0,0.0,0.0,0.0,0.0,0.0,0.0,0.0,0.0,0.0,0.0,0.0,0.0,0.0,0.0,0.0,0.0,0.0,0.0,0.0,0.0,0.0,0.0,0.0,0.0,0.0,0.0,0.0,0.0,0.0,0.0,0.0,0.0,0.0,0.0,0.0,0.0,0.0,0.0,0.0,0.0,0.0,0.0,0.0,0.0,0.0,0.0,0.0,0.0,0.0,0.0,0.0,0.0,0.0,0.0,0.0,0.0,0.0,0.0,0.0,0.0,0.0,0.0,0.0,0.0,0.0,0.0,-3.8073,-3.8808,-3.9643,-3.9644,-3.879,-3.7384,-3.5786,0.0,0.0,0.0,0.0,0.0,0.0,0.0,0.0,0.0,0.0,0.0,0.0,0.0,0.0,0.0,0.0,0.0,0.0,0.0,0.0,0.0,0.0,0.0,0.0,0.0,0.0,0.0,0.0,0.0,0.0,0.0,0.0,0.0,0.0,0.0,0.0,0.0,0.0,0.0,0.0,0.0,0.0,0.0,0.0,0.0,0.0,0.0,0.0,-3.0367,0.0,0.0,0.0,0.0,0.0,0.0,0.0,0.0,0.0,0.0,0.0,0.0,0.0,0.0,0.0,0.0,0.0,0.0,0.0,0.0,0.0,0.0,0.0,0.0,0.0,0.0,0.0,0.0,0.0,0.0,0.0,0.0,0.0,0.0,0.0,0.0,0.0,0.0,0.0,0.0,0.0,0.0,0.0,0.0,0.0,0.0,0.0,0.0,0.0,0.0,0.0,0.0,0.0,0.0,0.0,0.0,0.0,0.0,0.0,-3.8986,-3.9464,-4.0089,-3.9996,-3.9124,-3.8265,-3.6501,0.0,0.0,0.0,0.0,0.0,0.0,0.0,0.0,0.0,0.0,0.0,0.0,0.0,0.0,0.0,0.0,0.0,0.0,0.0,0.0,0.0,0.0,0.0,0.0,0.0,0.0,0.0,0.0,0.0,0.0,0.0,0.0,0.0,0.0,0.0,0.0,0.0,0.0,0.0,0.0,0.0,0.0,0.0,0.0,0.0,0.0,0.0,0.0,0.0,0.0,0.0,0.0,0.0,0.0,0.0,0.0,0.0,0.0,0.0,0.0,0.0,0.0,0.0,0.0,0.0,0.0,0.0,0.0,0.0,0.0,0.0,0.0,0.0,0.0,0.0,0.0,0.0,0.0,0.0,0.0,0.0,0.0,0.0,0.0,0.0,0.0,0.0,0.0,0.0,0.0,0.0,0.0,0.0,0.0,0.0,0.0,0.0,0.0,0.0,0.0,0.0,0.0,0.0,0.0,0.0,0.0,0.0,-3.786,-3.9732,-4.0761,-4.1003,-4.062,-3.9615,-3.8889,-3.6782,-3.3174,0.0,0.0,0.0,0.0,0.0,0.0,0.0,0.0,0.0,0.0,0.0,0.0,0.0,0.0,0.0,0.0,0.0,0.0,0.0,0.0,0.0,0.0,0.0,0.0,0.0,0.0,0.0,0.0,0.0,0.0,0.0,0.0,0.0,0.0,0.0,0.0,0.0,0.0,-3.1037,-3.2539,0.0,0.0,0.0,0.0,0.0,0.0,0.0,0.0,-3.2325,0.0,0.0,0.0,0.0,0.0,0.0,0.0,0.0,0.0,0.0,0.0,0.0,0.0,0.0,0.0,0.0,0.0,0.0,0.0,0.0,0.0,0.0,0.0,0.0,0.0,0.0,0.0,0.0,0.0,0.0,0.0,0.0,0.0,0.0,0.0,0.0,0.0,0.0,0.0,0.0,0.0,0.0,0.0,0.0,0.0,0.0,0.0,0.0,0.0,0.0,0.0,0.0,0.0,0.0,0.0,0.0,-3.6938,-3.7274,-3.8536,-4.0737,-4.1005,-4.0341,-3.8789,-3.8565,-3.6777,-3.3268,0.0,0.0,0.0,0.0,0.0,0.0,0.0,0.0,0.0,0.0,0.0,0.0,0.0,0.0,0.0,0.0,0.0,0.0,0.0,0.0,0.0,0.0,0.0,0.0,0.0,0.0,0.0,0.0,0.0,0.0,0.0,0.0,0.0,0.0,0.0,0.0,0.0,0.0,0.0,-3.428,-3.539,0.0,0.0,0.0,0.0,0.0,0.0,0.0,0.0,-3.3891,0.0,0.0,0.0,0.0,0.0,0.0,0.0,0.0,0.0,0.0,0.0,0.0,0.0,0.0,0.0,0.0,0.0,0.0,0.0,0.0,0.0,0.0,0.0,0.0,0.0,0.0,0.0,0.0,0.0,0.0,0.0,0.0,0.0,0.0,0.0,0.0,0.0,0.0,0.0,0.0,0.0,0.0,0.0,0.0,0.0,0.0,0.0,0.0,0.0,0.0,0.0,0.0,0.0,0.0,0.0,-3.6074,-3.7995,-3.9557,-4.0757,-4.1003,-4.0262,-3.8554,-3.808,-3.6296,0.0,0.0,0.0,0.0,0.0,0.0,0.0,0.0,0.0,0.0,0.0,0.0,0.0,0.0,0.0,0.0,0.0,0.0,0.0,0.0,0.0,0.0,0.0,0.0,0.0,0.0,0.0,0.0,0.0,0.0,0.0,0.0,0.0,0.0,0.0,0.0,0.0,0.0,0.0,0.0,-3.5052,-3.6155,-3.697,0.0,0.0,0.0,0.0,0.0,0.0,-3.502,-3.4595,0.0,0.0,0.0,0.0,0.0,0.0,0.0,0.0,0.0,0.0,0.0,0.0,0.0,0.0,0.0,0.0,0.0,0.0,0.0,0.0,0.0,0.0,0.0,0.0,0.0,0.0,0.0,0.0,0.0,0.0,0.0,0.0,0.0,0.0,0.0,0.0,0.0,0.0,0.0,0.0,0.0,0.0,0.0,0.0,0.0,0.0,0.0,0.0,0.0,0.0,0.0,0.0,0.0,0.0,0.0,-3.5019,-3.8434,-4.0345,-4.0543,-4.0872,-4.0174,-3.8337,-3.7733,-3.6082,0.0,0.0,0.0,0.0,0.0,0.0,0.0,0.0,0.0,0.0,0.0,0.0,0.0,0.0,0.0,0.0,0.0,0.0,0.0,0.0,0.0,0.0,0.0,0.0,0.0,0.0,0.0,0.0,0.0,0.0,0.0,0.0,0.0,0.0,0.0,0.0,0.0,0.0,0.0,0.0,0.0,-3.6848,-3.7988,-3.7248,0.0,0.0,0.0,0.0,-3.6078,-3.6178,0.0,0.0,0.0,0.0,0.0,0.0,0.0,0.0,0.0,0.0,0.0,0.0,0.0,0.0,0.0,0.0,0.0,0.0,0.0,0.0,0.0,0.0,0.0,0.0,0.0,0.0,0.0,0.0,0.0,0.0,0.0,0.0,0.0,0.0,0.0,0.0,0.0,0.0,0.0,0.0,0.0,0.0,0.0,0.0,0.0,0.0,0.0,0.0,0.0,0.0,0.0,0.0,0.0,0.0,0.0,0.0,-3.4924,-3.7217,-3.8819,-3.964,-4.054,-3.9864,-3.753,-3.8037,-3.6718,0.0,0.0,0.0,0.0,0.0,0.0,0.0,0.0,0.0,0.0,0.0,0.0,0.0,0.0,0.0,0.0,0.0,0.0,0.0,0.0,0.0,0.0,0.0,0.0,0.0,0.0,0.0,0.0,0.0,0.0,0.0,0.0,0.0,0.0,0.0,0.0,0.0,0.0,0.0,0.0,0.0,-3.7987,-3.7423,-3.8388,-3.8902,0.0,0.0,-3.9744,-3.8948,-3.9315,0.0,0.0,0.0,0.0,0.0,0.0,0.0,0.0,0.0,0.0,0.0,0.0,0.0,0.0,0.0,0.0,0.0,0.0,0.0,0.0,0.0,0.0,0.0,0.0,0.0,0.0,0.0,0.0,0.0,0.0,0.0,0.0,0.0,0.0,0.0,0.0,0.0,0.0,0.0,0.0,0.0,0.0,0.0,0.0,0.0,0.0,0.0,0.0,0.0,0.0,0.0,0.0,0.0,0.0,0.0,-3.371,-3.4943,-3.7504,-3.9044,-3.9481,-3.9996,-3.9301,-3.7281,-3.6623,-3.5312,0.0,0.0,0.0,0.0,0.0,0.0,0.0,0.0,0.0,0.0,0.0,0.0,0.0,0.0,0.0,0.0,0.0,0.0,0.0,0.0,0.0,0.0,0.0,0.0,0.0,0.0,0.0,0.0,0.0,0.0,0.0,0.0,0.0,0.0,0.0,0.0,0.0,0.0,0.0,0.0,0.0,0.0,-3.8723,-3.9286,0.0,0.0,0.0,-4.0273,-3.8832,0.0,0.0,0.0,0.0,0.0,0.0,0.0,0.0,0.0,0.0,0.0,0.0,0.0,0.0,0.0,0.0,0.0,0.0,0.0,0.0,0.0,0.0,0.0,0.0,0.0,0.0,0.0,0.0,0.0,0.0,0.0,0.0,0.0,0.0,0.0,0.0,0.0,0.0,0.0,0.0,0.0,0.0,0.0,0.0,0.0,0.0,0.0,0.0,0.0,0.0,0.0,0.0,0.0,0.0,0.0,0.0,0.0,-3.4622,-3.7505,-3.8954,-3.8814,-3.9149,-3.8445,-3.6567,-3.5474,0.0,0.0,0.0,0.0,0.0,0.0,0.0,0.0,0.0,0.0,0.0,0.0,0.0,0.0,0.0,0.0,0.0,0.0,0.0,0.0,0.0,0.0,0.0,0.0,0.0,0.0,0.0,-2.8281,0.0,0.0,0.0,0.0,0.0,0.0,0.0,0.0,0.0,0.0,0.0,0.0,0.0,0.0,-3.8982,-4.0057,-4.0165,-4.0157,0.0,0.0,-4.0639,-3.9013,-3.9522,-3.9393,0.0,0.0,0.0,0.0,0.0,0.0,0.0,0.0,0.0,0.0,0.0,0.0,0.0,0.0,0.0,0.0,0.0,0.0,0.0,0.0,0.0,0.0,0.0,0.0,0.0,0.0,0.0,0.0,0.0,0.0,0.0,0.0,0.0,0.0,0.0,0.0,0.0,0.0,0.0,0.0,0.0,0.0,0.0,0.0,0.0,0.0,0.0,0.0,0.0,0.0,0.0,0.0,0.0,0.0,0.0,-3.3789,-3.6542,-3.7654,-3.6961,-3.781,-3.7128,-3.48,-3.5404,-3.4655,0.0,0.0,0.0,0.0,0.0,0.0,0.0,0.0,0.0,0.0,0.0,0.0,0.0,0.0,0.0,0.0,0.0,0.0,0.0,0.0,0.0,0.0,0.0,0.0,0.0,0.0,0.0,0.0,0.0,0.0,0.0,0.0,0.0,0.0,0.0,0.0,0.0,0.0,0.0,0.0,0.0,-3.9195,-4.0795,-4.1021,-4.125,0.0,-4.2021,-4.1673,-4.0668,-4.1229,-4.0978,-3.849,0.0,0.0,0.0,0.0,0.0,0.0,0.0,0.0,0.0,0.0,0.0,0.0,0.0,0.0,0.0,0.0,0.0,0.0,0.0,0.0,0.0,0.0,0.0,0.0,0.0,0.0,0.0,0.0,0.0,0.0,0.0,0.0,0.0,0.0,0.0,0.0,0.0,0.0,0.0,0.0,0.0,0.0,0.0,0.0,0.0,0.0,0.0,0.0,0.0,0.0,0.0,0.0,0.0,-3.2892,-3.361,-3.5775,-3.6837,-3.6723,-3.7083,-3.6406,-3.4536,-3.4839,-3.4099,0.0,0.0,0.0,0.0,0.0,0.0,0.0,0.0,0.0,0.0,0.0,0.0,0.0,0.0,0.0,0.0,0.0,0.0,0.0,0.0,0.0,0.0,0.0,0.0,0.0,0.0,0.0,0.0,-3.0195,-3.0391,-3.041,0.0,0.0,0.0,0.0,0.0,0.0,0.0,0.0,0.0,0.0,-3.9822,-4.0954,-4.1559,0.0,0.0,-4.2204,-4.182,-4.0914,-4.0558,-3.9908,-3.8439,-3.698,0.0,0.0,0.0,0.0,0.0,0.0,0.0,0.0,0.0,0.0,0.0,0.0,0.0,0.0,0.0,0.0,0.0,0.0,0.0,0.0,0.0,0.0,0.0,0.0,0.0,0.0,0.0,0.0,0.0,0.0,0.0,0.0,0.0,0.0,0.0,0.0,0.0,0.0,0.0,0.0,0.0,0.0,0.0,0.0,0.0,0.0,0.0,0.0,0.0,0.0,0.0,0.0,-3.2066,-3.3176,-3.4726,-3.5777,-3.6241,-3.6302,-3.5572,-3.4091,-3.4298,-3.358,0.0,0.0,0.0,0.0,0.0,0.0,0.0,0.0,0.0,0.0,0.0,0.0,0.0,0.0,0.0,0.0,0.0,0.0,0.0,0.0,0.0,0.0,0.0,0.0,0.0,0.0,0.0,0.0,-3.0918,-3.0918,-3.0918,0.0,0.0,0.0,0.0,0.0,0.0,0.0,0.0,0.0,0.0,-4.0292,-4.1346,-4.1797,-4.2107,-4.2277,-4.2047,-4.1636,-4.0956,-4.0297,-3.946,-3.8402,0.0,0.0,0.0,0.0,0.0,0.0,0.0,0.0,0.0,0.0,0.0,0.0,0.0,0.0,0.0,0.0,0.0,0.0,0.0,0.0,0.0,0.0,0.0,0.0,0.0,0.0,0.0,0.0,0.0,0.0,-2.8632,0.0,0.0,0.0,0.0,0.0,0.0,0.0,0.0,0.0,0.0,0.0,0.0,0.0,0.0,0.0,0.0,0.0,0.0,0.0,0.0,0.0,0.0,-3.116,-3.2232,-3.3289,-3.4258,-3.5209,-3.5379,-3.4661,-3.3083,-3.384,-3.3156,-3.0771,0.0,0.0,0.0,0.0,0.0,0.0,0.0,0.0,0.0,0.0,0.0,0.0,0.0,0.0,0.0,0.0,0.0,0.0,0.0,0.0,0.0,0.0,0.0,0.0,0.0,0.0,-3.0918,-3.0918,-3.0918,0.0,0.0,0.0,0.0,0.0,0.0,0.0,0.0,0.0,0.0,-3.8749,-4.0507,-4.2088,-4.1738,-4.1522,-4.2169,-4.1635,-4.1094,-4.0997,-4.0886,-4.0266,0.0,0.0,0.0,0.0,0.0,0.0,0.0,0.0,0.0,0.0,0.0,0.0,0.0,0.0,0.0,0.0,0.0,0.0,0.0,0.0,0.0,0.0,0.0,0.0,0.0,0.0,0.0,-2.9876,-2.9361,0.0,0.0,0.0,0.0,0.0,0.0,0.0,0.0,0.0,0.0,0.0,-2.9342,-2.9535,0.0,0.0,0.0,0.0,0.0,0.0,0.0,0.0,0.0,0.0,0.0,0.0,-3.0884,-3.1981,-3.2944,-3.3941,-3.4963,-3.5171,-3.4759,-3.3743,-3.4565,-3.3873,-3.1423,0.0,0.0,0.0,0.0,0.0,0.0,0.0,0.0,0.0,0.0,0.0,0.0,0.0,0.0,0.0,0.0,0.0,0.0,0.0,0.0,0.0,0.0,0.0,0.0,0.0,-3.0917,0.0,0.0,0.0,0.0,0.0,0.0,0.0,0.0,0.0,0.0,0.0,-3.5799,-3.7028,-3.9226,-4.0914,-4.1523,-4.1836,-4.1894,0.0,0.0,0.0,0.0,0.0,0.0,0.0,0.0,0.0,0.0,0.0,0.0,0.0,0.0,-3.3901,-3.2871,-3.2653,-3.2615,-3.2615,0.0,0.0,0.0,0.0,0.0,0.0,0.0,0.0,0.0,0.0,0.0,0.0,0.0,0.0,-2.9733,0.0,-2.92,0.0,0.0,0.0,0.0,0.0,0.0,0.0,0.0,-2.9751,-3.0018,-2.9625,-2.9789,-2.9871,0.0,-3.0492,-3.0235,0.0,0.0,0.0,0.0,0.0,0.0,0.0,0.0,-3.0326,-3.1432,-3.2334,-3.3188,-3.3998,-3.4428,-3.4315,-3.3655,-3.4204,-3.3769,-3.2163,-3.0877,-2.9427,0.0,0.0,0.0,0.0,0.0,0.0,0.0,0.0,0.0,0.0,0.0,0.0,0.0,0.0,0.0,0.0,0.0,0.0,0.0,0.0,0.0,0.0,0.0,-3.0831,0.0,0.0,0.0,0.0,0.0,0.0,0.0,0.0,0.0,-3.3212,-3.4924,-3.663,-3.7899,-3.9832,-4.1119,-4.1191,0.0,0.0,0.0,0.0,0.0,0.0,0.0,-3.8614,-3.801,-3.6966,-3.6087,-3.5747,-3.5576,-3.5431,-3.5425,0.0,0.0,-3.4007,-3.3519,-3.3255,-3.3226,-3.2201,-3.1299,-3.1302,-3.0503,-2.9754,0.0,0.0,0.0,0.0,0.0,0.0,0.0,0.0,-2.9637,-2.9779,0.0,-2.9626,0.0,0.0,0.0,0.0,0.0,-2.875,0.0,0.0,-2.9902,-3.0141,-2.9167,-2.9694,-2.9777,-2.9593,-3.141,-3.1154,-2.909,-2.9447,0.0,0.0,0.0,0.0,0.0,0.0,-2.9528,-3.0597,-3.1381,-3.1956,-3.2399,-3.3164,-3.3301,-3.2814,-3.2856,-3.2923,-3.2872,-3.2042,-3.093,-2.9433,-2.8579,0.0,0.0,0.0,0.0,0.0,0.0,0.0,0.0,0.0,0.0,0.0,0.0,0.0,0.0,0.0,0.0,0.0,0.0,0.0,0.0,-3.0661,0.0,0.0,0.0,0.0,0.0,0.0,0.0,0.0,0.0,0.0,-3.5729,-3.6537,-3.7701,-3.939,0.0,0.0,0.0,0.0,-4.1133,-4.1074,-4.1113,-4.082,-3.998,-3.9758,-3.9118,-3.7498,0.0,0.0,-3.5952,-3.5801,-3.5799,-3.5764,-3.5756,-3.5647,-3.5271,-3.4655,-3.4236,-3.4141,-3.2813,-3.1767,-3.1621,-3.0796,-3.0035,-3.4193,0.0,0.0,0.0,0.0,-3.1864,-3.1904,-3.2622,-3.0907,-3.0379,-3.0636,-3.0196,0.0,0.0,0.0,0.0,0.0,0.0,-2.9819,-2.9629,-3.0602,-3.0885,-3.0584,-3.074,-3.0761,-3.07,-3.1263,-3.1019,-3.0075,-3.0225,-2.972,-2.8563,0.0,0.0,0.0,0.0,-2.9437,-3.0284,-3.0724,-3.1278,-3.1954,-3.2468,-3.3033,-3.3605,-3.305,-3.2759,-3.2747,-3.1437,-3.0249,-2.924,-2.8997,0.0,0.0,0.0,0.0,0.0,0.0,0.0,0.0,0.0,0.0,0.0,0.0,0.0,0.0,0.0,0.0,0.0,0.0,0.0,-3.0604,-3.0611,-3.087,0.0,0.0,0.0,0.0,0.0,0.0,0.0,0.0,0.0,-3.7323,-3.8233,-3.8762,0.0,0.0,-4.0526,-3.936,-3.9761,-3.9987,-3.9363,-3.9314,0.0,-3.9023,-3.8437,-3.785,-3.7361,-3.7208,-3.7255,-3.7514,-3.7551,-3.735,-3.6674,-3.6555,-3.617,-3.4927,-3.4471,-3.4278,-3.4152,-3.29,-3.1765,-3.1651,-3.0861,-3.0098,-3.4878,-3.4757,-3.3737,-3.3083,-3.2696,-3.1961,-3.2055,-3.268,-3.1297,-3.0963,-3.138,-3.0773,-3.0095,-2.9329,-2.8994,0.0,0.0,0.0,-3.0459,-3.02,-3.1179,-3.1481,-3.119,-3.119,-3.119,-3.119,-3.119,-3.0917,-3.0321,-3.0377,-2.9884,-2.8858,0.0,0.0,-2.8767,-2.8815,-2.9143,-2.9732,-3.0208,-3.0554,-3.0812,-3.1525,-3.2229,-3.285,-3.2764,-3.2546,-3.2222,-3.1268,-3.0388,-2.9598,-2.9294,-2.8671,0.0,0.0,0.0,0.0,0.0,0.0,0.0,0.0,0.0,0.0,0.0,-2.7101,-2.6789,0.0,0.0,0.0,-3.0047,-3.0651,-3.1015,-3.1057,0.0,0.0,0.0,0.0,0.0,0.0,0.0,-3.4636,-3.612,-3.7494,-3.8556,-3.9425,-3.9801,-3.9388,-4.0232,-4.0531,-3.9559,0.0,-3.957,-3.9075,-3.8759,-3.8455,-3.8125,-3.7656,-3.7285,-3.7285,-3.7556,-3.787,-3.8274,-3.8108,-3.7541,-3.6702,-3.6186,-3.551,-3.4137,-3.358,-3.3313,-3.328,-3.2196,-3.1273,-3.1193,-3.0668,-3.0196,-3.528,-3.5275,-3.2839,-3.1879,-3.1974,-3.195,-3.195,-3.1926,-3.1187,-3.1597,-3.2716,-3.1411,-3.0838,-3.0791,-2.9346,0.0,-2.8675,-3.0502,-3.0912,-3.0212,-3.1587,-3.1844,-3.1168,-3.1154,-3.119,-3.119,-3.119,-3.0852,-3.0226,-3.0192,-2.9974,-2.9558,-2.9318,-2.8945,-2.8499,-2.8631,-2.8791,-2.8959,-2.9728,-2.9869,-2.932,-3.0481,-3.1149,-3.1195,-3.2083,-3.2229,-3.1478,-3.1329,-3.0949,-3.026,-2.9468,-2.9056,-2.9076,0.0,0.0,0.0,0.0,0.0,0.0,0.0,0.0,0.0,0.0,0.0,0.0,0.0,0.0,0.0,-2.9936,0.0,-3.1507,-3.1667,0.0,0.0,0.0,-3.3084,-3.3176,-3.4674,-3.5753,-3.5945,0.0,0.0,-3.9404,-4.0171,-4.0732,-4.0854,-4.0893,-4.0887,-4.087,-4.0143,-3.9705,-3.9587,-3.8917,-3.8149,-3.7498,-3.7422,-3.7539,-3.7656,-3.8184,-3.8691,-3.8731,-3.809,-3.7159,-3.6191,-3.5218,-3.4244,-3.3233,-3.2401,-3.1787,-3.1767,-3.1119,-3.0495,-3.0472,-3.0431,-3.0331,-3.3827,-3.3336,-3.237,-3.2531,-3.346,-3.3042,-3.3093,-3.3378,-3.2421,-3.2144,-3.2349,-3.194,-3.1693,-3.153,-3.1167,-3.0979,-3.1011,-3.1456,-3.1295,-3.0697,-3.1361,-3.132,-3.0716,-3.1035,-3.119,-3.119,-3.119,-3.1106,-3.0937,-3.0937,-3.0605,-2.9986,-2.9949,-2.9587,-2.8923,-2.9452,-2.9326,-2.8476,-2.9263,-2.9495,-2.9192,-3.0084,-3.0667,-3.0799,-3.1249,-3.1284,-3.0904,-3.0435,-3.0042,-2.9712,-2.9497,-2.9135,-2.8539,-2.7711,0.0,0.0,0.0,0.0,0.0,0.0,0.0,0.0,0.0,-2.8452,-2.7599,0.0,-2.999,0.0,-3.035,-3.0985,-3.052,-3.0954,0.0,0.0,-3.2689,-3.384,-3.4814,-3.6208,-3.767,-3.9178,-3.9326,-3.9338,-3.9397,-4.0112,-4.0615,-4.0662,-4.0751,-4.0579,-3.9973,-3.9747,-3.9388,-3.8774,-3.8043,-3.7386,-3.7308,-3.783,-3.8476,-3.916,-3.9453,-3.9766,-4.0352,-3.9751,-3.8675,-3.7118,-3.603,-3.4657,-3.2566,-3.196,-3.1565,-3.1033,-3.0665,-3.0491,-3.0481,-3.0444,-3.0386,-3.3713,-3.311,-3.255,-3.2631,-3.3097,-3.2857,-3.2949,-3.324,-3.2656,-3.2373,-3.2253,-3.1914,-3.1726,-3.1627,-3.1532,-3.1486,-3.1542,-3.2047,-3.1901,-3.1279,-3.1847,-3.1597,-3.0658,-3.11,-3.116,-3.0915,-3.1095,-3.119,-3.119,-3.119,-3.0987,-3.0598,-3.0622,-3.0253,-2.9538,-2.9787,-2.9493,-2.862,-2.8727,-2.8779,-2.8773,-2.9317,-2.9739,-3.0025,-3.0264,-3.0321,-3.0168,-2.9842,-2.9616,-2.9514,-2.9504,-2.9317,-2.8876,-2.8158,-2.7344,0.0,0.0,0.0,0.0,0.0,0.0,0.0,0.0,0.0,0.0,0.0,-2.9994,-2.9963,-3.0723,-3.1205,-3.1123,-3.1471,-3.1819,-3.2177,-3.3032,-3.4054,-3.5207,-3.6291,-3.7421,-3.8659,-3.861,-3.8465,-3.852,-3.9246,-3.9794,-3.9865,-4.0292,-4.0453,-4.0082,-3.9743,-3.9353,-3.8927,-3.8183,-3.7511,-3.7251,-3.7957,-3.8728,-3.9199,-3.9316,-3.9589,-4.0365,-3.9188,-3.7656,-3.6278,-3.4941,-3.3499,-3.1716,-3.1299,-3.1101,-3.0767,-3.0564,-3.053,-3.0496,-3.0451,-3.0444,-3.4221,-3.3743,-3.2976,-3.2416,-3.2074,-3.214,-3.2247,-3.237,-3.237,-3.2398,-3.2351,-3.1782,-3.1505,-3.1512,-3.1342,-3.1262,-3.1335,-3.234,-3.2441,-3.1807,-3.2466,-3.2112,-3.0886,-3.1313,-3.1176,-3.0563,-3.0951,-3.1136,-3.1131,-3.1114,-3.1151,-3.119,-3.119,-3.0886,-3.0262,-3.0004,-2.9618,-2.9054,-2.837,-2.8085,-2.8237,-2.8399,-2.8669,-2.9031,-2.9268,-2.936,-2.9369,-2.9427,-2.9427,-2.9408,-2.9408,-2.9389,-2.9409,-2.8623,-2.81,0.0,-2.7354,0.0,0.0,0.0,0.0,0.0,0.0,0.0,0.0,-2.9254,-2.9996,-3.0768,-3.0901,-3.125,-3.1965,-3.2202,-3.2552,-3.3138,-3.3497,-3.3961,-3.4621,-3.5645,-3.6347,-3.6393,-3.6908,-3.727,-3.7479,-3.8078,-3.8594,-3.8809,-3.9393,-3.9857,-4.0162,-3.985,-3.9611,-3.9592,-3.885,-3.7969,-3.7398,-3.7796,-3.8301,-3.8377,-3.8262,-3.8535,-3.916,-3.7461,-3.5585,-3.4637,-3.3289,-3.1828,-3.0811,-3.0653,-3.0621,-3.0625,-3.0592,-3.0588,-3.053,-3.0496,-3.0486,-3.4429,-3.4235,-3.3036,-3.2556,-3.2537,-3.2081,-3.201,-3.2247,-3.2247,-3.2302,-3.2382,-3.2259,-3.2198,-3.2225,-3.2168,-3.2176,-3.2176,-3.2408,-3.2124,-3.1498,-3.2021,-3.1804,-3.1108,-3.1516,-3.1394,-3.0774,-3.0815,-3.08,-3.0638,-3.0638,-3.0818,-3.119,-3.119,-3.1123,-3.0987,0.0,0.0,0.0,-2.8876,-2.8358,-2.7832,-2.7855,-2.802,-2.8298,-2.8555,0.0,-2.8767,-2.8982,-2.9008,-2.888,-2.885,0.0,0.0,0.0,0.0,0.0,0.0,0.0,0.0,0.0,0.0,0.0,-2.8975,-2.9037,-2.9336,-2.9512,-2.9707,-2.9931,-3.0462,-3.0544,-3.0029,-3.1105,-3.1626,-3.1209,-3.2881,-3.3665,-3.2735,-3.5493,-3.6928,-3.4913,-3.5749,-3.6718,-3.7193,-3.7546,-3.765,-3.7699,-3.7992,-3.8183,-3.8303,-3.9418,-4.0043,-3.954,-3.8679,-3.7987,-3.7168,-3.7191,-3.7295,-3.7382,-3.6843,-3.6556,-3.666,-3.5859,-3.4668,-3.3789,-3.2772,-3.177,-3.0924,-3.0678,-3.061,-3.0614,-3.0613,-3.0598,-3.0593,-3.053,-3.0491,-3.3871,0.0,-3.2526,-3.199,0.0,-3.1427,-3.1292,-3.1508,-3.1938,-3.2163,-3.2287,-3.237,-3.2398,-3.2398,-3.2398,-3.2398,-3.2398,-3.2398,-3.2213,-3.1917,-3.2144,-3.1732,-3.0766,-3.1218,-3.0943,-2.9982,-3.0193,-3.026,-3.014,-3.0145,-3.0284,-3.051,-3.0493,-3.0493,-3.0514,-3.0736,-3.0482,-2.9755,-2.8802,-2.8208,-2.8002,-2.762,-2.7624,-2.7936,-2.8076,0.0,0.0,0.0,0.0,0.0,0.0,0.0,0.0,0.0,0.0,-2.6985,-2.7218,-2.7402,-2.7475,-2.7933,-2.8404,-2.8904,-2.8994,-2.9089,-2.9291,-2.9295,-2.9485,-2.9954,-3.0318,-3.0349,-2.9981,-3.0961,-3.1496,-3.1182,-3.2555,-3.3337,-3.325,-3.4799,-3.5397,-3.3889,-3.4127,-3.483,-3.5182,-3.5614,-3.6064,-3.6537,-3.7057,-3.7243,-3.7241,-3.837,-3.9057,-3.8254,-3.7845,-3.7099,-3.5996,-3.5745,-3.5807,-3.5786,-3.5206,-3.4906,-3.5268,-3.4316,-3.3301,-3.2832,-3.207,-3.1289,-3.0941,-3.0717,-3.0647,-3.0642,-3.0609,-3.0614,-3.0606,-3.0563,-3.0554,-3.3277,-3.3235,-3.1948,-3.145,-3.1428,-3.0646,-3.0434,-3.0644,0.0,0.0,0.0,-3.2315,-3.237,-3.237,-3.2382,-3.2398,-3.2398,-3.2398,-3.2398,-3.2382,-3.2275,-3.1628,-3.0612,-3.0863,-3.0326,-2.9194,-2.9555,-2.9701,-2.97,-2.9683,-2.9705,-2.9772,-2.9793,-2.9793,-2.9815,-3.0182,-3.0257,-2.9993,-2.8697,-2.8083,-2.8184,-2.7496,-2.7305,-2.7695,-2.7695,-2.7725,-2.7783,-2.7826,-2.784,-2.7783,-2.784,-2.7826,-2.7783,-2.7783,-2.7754,-2.7695,-2.7736,-2.7894,-2.8116,-2.8264,-2.8464,-2.8737,-2.8815,-2.8893,-2.8975,-2.8987,-2.9285,-3.0017,-3.0072,-3.0132,-3.0356,-3.1124,-3.1647,-3.1776,-3.2569,-3.3414,-3.406,-3.3988,-3.3622,-3.279,-3.2676,-3.2711,-3.2864,-3.3415,-3.4076,-3.4929,-3.5498,-3.6052,-3.5945,-3.6749,-3.7301,-3.6472,-3.6267,-3.5805,-3.458,-3.4007,-3.4011,-3.4035,-3.3392,-3.3145,-3.3555,-3.2867,-3.207,-3.1992,-3.1289,-3.0918,-3.083,-3.0767,-3.0724,-3.072,-3.0678,-3.0614,-3.061,-3.0611,-3.0606,-3.3192,-3.3141,-3.1898,-3.1396,-3.1326,-3.0122,-2.9659,-2.9813,-3.1335,-3.2025,-3.201,-3.2163,-3.2234,-3.2247,-3.2342,-3.2398,-3.2398,-3.2398,-3.2398,-3.2367,-3.1797,-3.1455,-3.1213,-3.0726,-3.0114,-2.9404,-2.9416,-2.9373,-2.9206,-2.9205,-2.9393,-2.9744,-2.9793,-2.9772,-2.9793,-2.9859,-2.9876,-2.981,-2.9173,-2.8537,-2.7877,-2.7131,-2.694,-2.7276,-2.7291,-2.7413,-2.7716,-2.7713,-2.7713,-2.7716,-2.7713,-2.7595,-2.7338,-2.755,-2.7597,-2.7338,-2.7607,-2.7826,-2.7851,-2.7964,-2.8106,-2.8197,-2.8224,-2.8438,-2.894,-2.8987,-2.9042,-2.9182,-2.9225,-2.9469,-3.016,-3.1005,-3.1783,-3.2458,-3.3295,-3.3931,-3.4098,-3.3352,-3.2747,-3.2504,-3.18,-3.1507,-3.1912,-3.2109,-3.2288,-3.2441,-3.2997,-3.292,-3.337,-3.4637,-3.5308,-3.4683,-3.4546,-3.4222,-3.3302,-3.2582,-3.231,-3.2178,-3.1603,-3.1273,-3.1539,-3.136,-3.1113,-3.1094,-3.0996,-3.0898,-3.0879,-3.0831,-3.0799,-3.0774,-3.073,-3.0699,-3.0697,-3.0649,-3.0618,-3.2245,-3.2404,-3.093,-3.0494,-3.0756,-2.9476,-2.9188,-2.9566,-3.0315,-3.0718,-3.0822,-3.0955,-3.1189,-3.1522,-3.1232,-3.1377,-3.1923,-3.1792,-3.1864,-3.199,-3.1597,-3.1197,-3.0801,-3.0156,-2.951,-2.8879,-2.8873,-2.8826,-2.8716,-2.8724,-2.8842,-2.9036,-2.9036,-2.9159,-2.9393,-2.9416,-2.955,-2.9777,-2.9169,-2.8591,-2.8085,-2.7317,-2.6909,-2.694,-2.694,-2.7005,-2.7148,-2.7164,-2.7164,-2.7164,-2.7147,-2.7084,-2.6956,-2.7068,-2.7084,-2.694,-2.71,-2.7288,-2.7457,-2.7768,-2.7982,-2.8051,-2.8075,-2.821,-2.8507,-2.852,-2.8502,-2.8538,-2.8887,-2.9308,-2.97,-3.0812,-3.1713,-3.2039,-3.2536,-3.2876,-3.2965,-3.2364,-3.1746,-3.1476,-3.1047,-3.0835,-3.1114,-3.1143,-3.1366,-3.1667,-3.1616,-3.142,-3.1411,-3.2001,-3.256,-3.2587,-3.2677,-3.2391,-3.1733,-3.1309,-3.1091,-3.1067,-3.0789,-3.0599,-3.0631,-3.0693,-3.074,-3.0776,-3.0799,-3.0859,-3.0879,-3.0879,-3.0856,-3.0854,-3.0801,-3.0765,-3.0757,-3.0689,-3.0639,-3.1334,-3.1665,-3.0164,-2.9654,-2.9868,-2.8912,-2.8687,-2.9048,-2.9048,-2.9129,-2.9331,-2.9735,-3.0254,-3.0644,-3.0224,-3.0435,-3.1087,-3.0999,-3.1131,-3.1391,-3.1099,-3.073,-3.0255,-2.9626,-2.8971,-2.8402,-2.8431,-2.8403,-2.8281,-2.8348,-2.8411,-2.8411,-2.8411,-2.8573,-2.8928,-2.8928,-2.9113,-2.9422,-2.8932,-2.8484,-2.8142,-2.724,-2.6649,-2.6452,-2.6436,-2.647,-2.6573,-2.6573,-2.6607,-2.6691,-2.6708,-2.6708,-2.6708,-2.6708,-2.6708,-2.6708,-2.6708,-2.6825,-2.7119,-2.7474,-2.7728,-2.7783,-2.7855,-2.795,-2.8142,-2.8177,-2.8142,-2.8182,-2.8651,-2.9137,-2.9669,-3.06,-3.1479,-3.1782,-3.1803,-3.1927,-3.2003,-3.1334,-3.0677,-3.0324,-3.0167,-3.0094,-3.0169,-3.0242,-3.0516,-3.0939,-3.0769,-3.0445,-3.0307,-2.9992,-3.0177,-3.0727,-3.1065,-3.0993,-3.0424,-3.041,-3.0466,-3.0477,-3.0482,-3.05,-3.0572,-3.0628,-3.0657,-3.0684,-3.0735,-3.0781,-3.084,-3.0879,-3.0898,-3.0898,-3.066,-3.0397,-3.0095,-3.0019,-3.028,-3.1061,-3.0994,-3.0294,-2.9454,-2.8689,-2.847,-2.8163,-2.7795,-2.7689,-2.7676,-2.7941,-2.9192,-2.9827,-2.9905,-2.995,-3.0011,-3.0163,-3.0133,-3.0299,-3.0511,-2.9973,-2.9797,-2.9935,-2.9345,-2.8724,-2.8213,-2.8453,-2.8358,-2.788,-2.8241,-2.8411,-2.8411,-2.8411,-2.8436,-2.8468,-2.8468,-2.8493,-2.8541,-2.8479,-2.8198,-2.7684,-2.6386,-2.5642,-2.5631,-2.5633,-2.5781,-2.6123,-2.6158,-2.6332,-2.6657,-2.6674,-2.6674,-2.6674,-2.6708,-2.6691,-2.6674,-2.6674,-2.6775,-2.6909,-2.6992,-2.7038,-2.7149,-2.7195,-2.7538,-2.8257,-2.8361,-2.8268,-2.8188,-2.8196,-2.8902,-3.019,-3.0573,-3.1184,-3.2218,-3.1907,-3.1742,-3.1547,-3.0481,-2.957,-2.9593,-2.9204,-2.8888,-2.9015,-2.9221,-2.9422,-2.9706,-2.9707,-2.9651,-2.964,-2.958,-2.955,-2.9821,-3.004,-3.0214,-3.0143,-3.0299,-3.0349,-3.0385,-3.0406,-3.0427,-3.0506,-3.0558,-3.0615,-3.0603,-3.0647,-3.0711,-3.0752,-3.0814,-3.0879,-3.0781,-3.0312,-2.951,-2.8756,-2.8591,-2.9069,-3.1024,-3.0934,-3.0372,-2.9666,-2.8957,-2.8543,-2.8242,-2.802,-2.7633,-2.7503,-2.7556,-2.8189,-2.8661,-2.8998,-2.868,-2.8839,-2.9435,-2.9359,-2.947,-2.9723,-2.9383,-2.9289,-2.9348,-2.8956,-2.8372,-2.7802,-2.8137,-2.7995,-2.7563,-2.7825,-2.8152,-2.8372,-2.8411,-2.8411,-2.8411,-2.8411,-2.8411,-2.8396,-2.7626,-2.7108,-2.6863,-2.6555,-2.6102,-2.5581,-2.5519,-2.5559,-2.5726,-2.5744,-2.5801,-2.598,-2.5998,-2.5997,-2.598,-2.598,-2.598,-2.598,-2.5998,-2.5998,-2.605,-2.6155,-2.633,-2.659,-2.6657,-2.7148,-2.8217,-2.8336,-2.8312,-2.834,-2.8664,-2.9416,-3.0412,-3.0604,-3.0884,-3.1356,-3.0865,-3.0331,-3.0021,-2.9095,-2.8472,-2.8654,-2.8553,-2.8428,-2.8466,-2.8584,-2.8761,-2.8943,-2.9052,-2.9119,-2.9336,-2.9388,-2.9419,-2.9501,-2.9681,-2.9832,-2.9954,-3.0022,-3.0121,-3.0189,-3.0228,-3.0266,-3.0403,-3.0458,-3.0495,-3.0544,-3.0597,-3.0659,-3.0698,-3.075,-3.0792,-3.058,-3.0156,-2.9316,-2.8435,-2.8258,-2.8617,-3.1024,-3.0921,-3.0542,-3.0032,-2.947,-2.8882,-2.8564,-2.832,-2.7771,-2.7503,-2.7503,-2.7503,-2.7776,-2.8105,-2.7723,-2.7954,-2.8573,-2.8495,-2.8643,-2.8921,-2.8822,-2.8811,-2.8846,-2.8631,-2.8096,-2.747,-2.772,-2.76,-2.7096,-2.7316,-2.77,-2.7999,-2.8177,-2.825,-2.8226,-2.8339,-2.8411,-2.8334,-2.7396,-2.6749,-2.6418,-2.6629,-2.6293,-2.5281,-2.516,-2.5218,-2.5332,-2.5332,-2.5373,-2.5503,-2.5519,-2.5519,-2.5519,-2.5519,-2.5519,-2.5519,-2.5519,-2.5519,-2.5519,-2.5594,-2.5875,-2.633,-2.6471,-2.7051,-2.8179,-2.8505,-2.8607,-2.8881,-2.9019,-2.9294,-2.992,-3.0076,-3.0144,-3.0265,-2.9661,-2.9055,-2.8741,-2.8056,-2.7707,-2.7897,-2.8014,-2.8116,-2.8219,-2.8303,-2.8389,-2.8578,-2.8712,-2.8849,-2.9171,-2.9286,-2.9376,-2.9396,-2.9482,-2.9608,-2.9786,-2.9894,-2.9931,-3.0007,-3.0073,-3.0176,-3.0305,-3.0329,-3.039,-3.0462,-3.0532,-3.0586,-3.0628,-3.0658,-3.032,-3.0,-2.9426,-2.8593,-2.7519,-2.7559,-2.7518,-3.1024,-3.0986,-3.096,-3.0594,-3.0009,-2.9457,-2.8895,-2.8433,-2.7751,-2.7503,-2.7503,-2.7503,-2.7536,-2.759,-2.7536,-2.7536,-2.759,-2.7623,-2.7835,-2.8164,-2.8143,-2.832,-2.861,-2.8602,-2.798,-2.6955,-2.723,-2.7159,-2.6709,-2.673,-2.6875,-2.7174,-2.7585,-2.7815,-2.784,-2.8137,-2.8387,-2.8293,-2.8108,-2.7603,-2.6496,-2.6334,-2.5706,-2.4627,-2.4385,-2.4594,-2.4863,-2.4922,-2.5098,-2.5465,-2.5462,-2.5481,-2.5465,-2.5465,-2.5446,-2.5446,-2.5465,-2.5481,-2.5462,-2.5476,-2.581,-2.649,-2.6658,-2.7323,-2.8688,-2.8893,-2.914,-2.9889,-2.8804,-2.8333,-2.8545,-2.8664,-2.8853,-2.9386,-2.8886,-2.8489,-2.8351,-2.7694,-2.7382,-2.739,-2.7585,-2.78,-2.8047,-2.8156,-2.8156,-2.8277,-2.8491,-2.8712,-2.8832,-2.9082,-2.9232,-2.9326,-2.9378,-2.9451,-2.9589,-2.9707,-2.9828,-2.9899,-2.9962,-3.0087,-3.0176,-3.0235,-3.031,-3.039,-3.0438,-3.0463,-3.0524,-3.0212,-2.9632,-2.9001,-2.8021,-2.7137,-2.6639,-2.6054,-2.6074,-3.0381,-3.0973,-3.1024,-3.0856,-3.0594,-2.968,-2.9192,-2.8869,-2.7941,-2.7503,-2.7503,-2.7503,-2.7503,-2.7503,-2.7503,-2.7503,-2.7503,-2.7503,-2.757,-2.7703,-2.7703,-2.7802,-2.7901,-2.8131,-2.7645,-2.6687,-2.6846,-2.6657,-2.6059,-2.6,-2.6281,-2.6797,-2.7004,-2.7097,-2.7148,-2.7403,-2.762,-2.7675,-2.7452,-2.7213,-2.688,-2.6127,-2.5389,-2.4958,-2.4518,-2.4364,-2.4513,-2.4513,-2.4578,-2.4739,-2.4739,-2.4739,-2.4739,-2.4724,-2.4739,-2.4739,-2.4724,-2.4739,-2.4771,-2.5163,-2.56,-2.6118,-2.6636,-2.7426,-2.8565,-2.8881,-2.9016,-2.9176,-2.8989,-2.852,-2.8035,-2.7794,-2.7804,-2.8147,-2.8063,-2.7707,-2.725,-2.7028,-2.6973,-2.7022,-2.723,-2.7481,-2.7585,-2.7615,-2.7701,-2.7915,-2.8065,-2.8219,-2.8428,-2.8615,-2.8773,-2.8955,-2.9023,-2.9141,-2.9441,-2.9502,-2.9598,-2.9681,-2.9758,-2.9859,-2.9946,-3.0025,-3.0103,-3.0036,-3.0132,-2.9947,-2.9813,-2.9117,-2.8598,-2.7896,-2.6905,-2.6451,-2.5869,-2.5736,-2.5681,-2.9279,-2.9896,-2.9973,-3.005,-3.0075,-2.938,-2.9024,-2.8886,-2.8126,-2.7673,-2.7529,-2.7503,-2.7503,-2.7503,-2.7503,-2.7503,-2.7503,-2.7503,-2.7503,-2.7503,-2.7503,-2.7503,-2.7497,-2.7617,-2.7107,-2.6224,-2.5972,-2.565,-2.5313,-2.5245,-2.5563,-2.6108,-2.6254,-2.6334,-2.6402,-2.6651,-2.686,-2.6887,-2.6676,-2.6659,-2.6684,-2.5719,-2.5106,-2.5009,-2.4487,-2.4198,-2.4281,-2.4281,-2.4281,-2.4281,-2.4281,-2.4281,-2.4281,-2.4281,-2.4281,-2.4297,-2.4518,-2.4604,-2.4681,-2.5235,-2.5843,-2.6342,-2.6823,-2.7586,-2.8535,-2.8674,-2.8628,-2.8533,-2.8474,-2.8185,-2.7545,-2.6996,-2.6896,-2.7232,-2.7396,-2.7132,-2.6431,-2.6539,-2.6691,-2.6808,-2.6989,-2.7169,-2.7299,-2.7315,-2.7421,-2.7615,-2.7686,-2.7886,-2.8075,-2.8219,-2.8337,-2.856,-2.864,-2.8766,-2.8993,-2.9104,-2.9341,-2.9474,-2.9607,-2.9698,-2.9666,-2.9764,-2.9718,-2.9695,-2.9525,-2.9275,-2.8789,-2.8063,-2.7439,-2.6846,-2.6422,-2.6009,-2.5753,-2.5701,-2.565,-2.7844,-2.7964,-2.7844,-2.8215,-2.8539,-2.8456,-2.8388,-2.8252,-2.8212,-2.779,-2.7395,-2.7456,-2.7423,-2.7503,-2.7503,-2.7503,-2.7503,-2.7423,-2.7456,-2.7503,-2.7503,-2.7503,-2.7464,-2.7112,-2.6581,-2.5803,-2.473,-2.4326,-2.4551,-2.458,-2.4751,-2.5076,-2.5439,-2.5591,-2.5591,-2.5945,-2.6187,-2.6185,-2.6195,-2.6069,-2.5698,-2.5169,-2.4843,-2.4717,-2.422,-2.4061,-2.4296,-2.4291,-2.4281,-2.4281,-2.4281,-2.4281,-2.4281,-2.4281,-2.4281,-2.4374,-2.4902,-2.5219,-2.5281,-2.5865,-2.6611,-2.7003,-2.7334,-2.7682,-2.8294,-2.8379,-2.8147,-2.7822,-2.7581,-2.7302,-2.6882,-2.6312,-2.6159,-2.6655,-2.6855,-2.6603,-2.6232,-2.6262,-2.6504,-2.6691,-2.6808,-2.694,-2.7169,-2.7234,-2.7249,-2.7312,-2.7511,-2.7686,-2.7786,-2.794,-2.817,-2.8272,-2.8311,-2.8389,-2.8529,-2.8676,-2.9,-2.9278,-2.9474,-2.957,-2.9336,-2.9304,-2.9003,-2.888,-2.8415,-2.8165,-2.7854,-2.7169,-2.677,-2.6258,-2.5912,-2.5683,-2.562,-2.5564,-2.5549,-2.7804,-2.7804,-2.7804,-2.7884,-2.7933,-2.7576,-2.7332,-2.7225,-2.6905,-2.6812,-2.6914,-2.6952,-2.7154,-2.7423,-2.7503,-2.7503,-2.7469,-2.7154,-2.7154,-2.7436,-2.7503,-2.7503,-2.7464,-2.7307,-2.6739,-2.5741,-2.4631,-2.4154,-2.4229,-2.4245,-2.4376,-2.4637,-2.4794,-2.4838,-2.4879,-2.5189,-2.5412,-2.5522,-2.5687,-2.5846,-2.5976,-2.5582,-2.5184,-2.4807,-2.4699,-2.4579,-2.4268,-2.4274,-2.4297,-2.4291,-2.4281,-2.4281,-2.4281,-2.4281,-2.4281,-2.4358,-2.4912,-2.5072,-2.4902,-2.6081,-2.6896,-2.6872,-2.7103,-2.7703,-2.8227,-2.7957,-2.7873,-2.7904,-2.7688,-2.7319,-2.7118,-2.6585,-2.6195,-2.6233,-2.5894,-2.5683,-2.5521,-2.5719,-2.6085,-2.6436,-2.6522,-2.659,-2.6691,-2.6808,-2.6957,-2.699,-2.7198,-2.7404,-2.7465,-2.7539,-2.7686,-2.7901,-2.794,-2.8034,-2.8219,-2.8371,-2.8633,-2.8863,-2.9061,-2.9128,-2.8942,-2.8605,-2.8304,-2.7846,-2.739,-2.7013,-2.6702,-2.6408,-2.6019,-2.5793,-2.5532,-2.5437,-2.5444,-2.5274,-2.5001,-2.6595,-2.6607,-2.6595,-2.6678,-2.6849,-2.6611,-2.644,-2.6271,-2.6168,-2.6118,-2.6169,-2.6173,-2.6449,-2.6837,-2.6905,-2.6905,-2.6871,-2.653,-2.6714,-2.7154,-2.7222,-2.7302,-2.7417,-2.7301,-2.6752,-2.5845,-2.5062,-2.4635,-2.4439,-2.4455,-2.4396,-2.4374,-2.4334,-2.4363,-2.4363,-2.4549,-2.4708,-2.4808,-2.4978,-2.5203,-2.5424,-2.5125,-2.4869,-2.4704,-2.4611,-2.4529,-2.4385,-2.441,-2.4384,-2.4245,-2.4061,-2.3946,-2.3961,-2.413,-2.4267,-2.4433,-2.5039,-2.5394,-2.5057,-2.6237,-2.6863,-2.6405,-2.6566,-2.7086,-2.7575,-2.7361,-2.7461,-2.7818,-2.7508,-2.7086,-2.6726,-2.6047,-2.5596,-2.5386,-2.5394,-2.5165,-2.5136,-2.532,-2.5701,-2.6048,-2.6208,-2.6279,-2.6418,-2.6505,-2.6641,-2.6674,-2.6825,-2.7023,-2.7055,-2.7121,-2.7324,-2.7494,-2.76,-2.7742,-2.7936,-2.8098,-2.8272,-2.8433,-2.8572,-2.8521,-2.8386,-2.7903,-2.7522,-2.679,-2.6236,-2.591,-2.5598,-2.5564,-2.5335,-2.521,-2.5101,-2.4889,-2.469,-2.4154,-2.3889,-2.454,-2.4507,-2.454,-2.4903,-2.5316,-2.5755,-2.5658,-2.5362,-2.5716,-2.5649,-2.5278,-2.5216,-2.5475,-2.5826,-2.5953,-2.6,-2.5931,-2.5884,-2.6151,-2.6496,-2.6611,-2.6816,-2.7371,-2.7013,-2.6491,-2.6007,-2.5741,-2.5432,-2.4926,-2.49,-2.4704,-2.4194,-2.4141,-2.4112,-2.4171,-2.4141,-2.4171,-2.4229,-2.4187,-2.4361,-2.4553,-2.4101,-2.3987,-2.4485,-2.4189,-2.4193,-2.4479,-2.4566,-2.4486,-2.4238,-2.3881,-2.3696,-2.36,-2.3945,-2.4323,-2.4405,-2.5432,-2.5729,-2.5833,-2.6348,-2.6567,-2.6019,-2.5974,-2.6087,-2.6841,-2.6901,-2.6968,-2.7366,-2.7016,-2.6494,-2.5822,-2.5015,-2.4476,-2.4357,-2.4798,-2.5041,-2.5021,-2.5103,-2.532,-2.5626,-2.5864,-2.6046,-2.626,-2.6331,-2.6366,-2.6383,-2.6435,-2.6607,-2.6725,-2.6842,-2.6957,-2.7086,-2.7263,-2.7434,-2.7624,-2.7783,-2.7879,-2.7614,-2.7701,-2.7547,-2.7424,-2.693,-2.6488,-2.577,-2.5346,-2.496,-2.4795,-2.4941,-2.4872,-2.474,-2.4525,-2.4202,-2.376,-2.3253,-2.322,-2.4507,-2.4507,-2.4507,-2.4583,-2.4711,-2.4861,-2.4668,-2.423,-2.4353,-2.4428,-2.4196,-2.4205,-2.4648,-2.5405,-2.5417,-2.5604,-2.5687,-2.5394,-2.5581,-2.5965,-2.5616,-2.6311,-2.7159,-2.6948,-2.6608,-2.638,-2.6015,-2.5524,-2.5031,-2.5005,-2.4704,-2.4138,-2.4125,-2.4125,-2.4125,-2.4125,-2.4125,-2.4125,-2.4125,-2.4112,-2.4189,-2.4246,-2.4098,-2.389,-2.434,-2.4463,-2.4322,-2.4266,-2.4481,-2.4857,-2.4723,-2.4629,-2.4514,-2.4705,-2.4798,-2.4954,-2.5551,-2.5835,-2.5638,-2.6308,-2.6599,-2.6125,-2.5888,-2.6288,-2.692,-2.6564,-2.6644,-2.6912,-2.6649,-2.606,-2.5384,-2.4663,-2.4078,-2.3644,-2.3888,-2.4188,-2.4529,-2.4533,-2.4655,-2.5243,-2.5432,-2.5602,-2.5754,-2.5974,-2.61,-2.6136,-2.6226,-2.6383,-2.647,-2.6521,-2.6607,-2.6791,-2.6973,-2.712,-2.7294,-2.7463,-2.7376,-2.6896,-2.6639,-2.6315,-2.6056,-2.5621,-2.5198,-2.4724,-2.4834,-2.4605,-2.4663,-2.4779,-2.457,-2.4284,-2.3866,-2.3475,-2.2916,-2.2448,-2.2746,-2.4507,-2.4507,-2.4507,-2.4507,-2.4507,-2.4507,-2.4148,-2.3622,-2.3526,-2.3381,-2.326,-2.3206,-2.361,-2.4312,-2.4348,-2.4528,-2.4838,-2.4587,-2.4838,-2.5476,-2.5476,-2.5965,-2.6612,-2.6634,-2.6698,-2.6666,-2.6342,-2.589,-2.538,-2.5136,-2.4691,-2.4217,-2.4125,-2.4125,-2.4125,-2.4125,-2.4125,-2.4125,-2.4125,-2.4125,-2.4112,-2.4232,-2.4173,-2.3938,-2.4374,-2.4477,-2.4294,-2.4406,-2.4571,-2.4617,-2.4429,-2.4309,-2.4465,-2.4748,-2.4898,-2.5066,-2.5654,-2.5792,-2.5523,-2.6039,-2.6068,-2.5602,-2.5481,-2.5816,-2.6221,-2.6079,-2.6177,-2.6905,-2.6367,-2.5783,-2.5267,-2.4413,-2.3592,-2.3154,-2.2926,-2.3179,-2.3958,-2.3952,-2.4099,-2.4513,-2.4855,-2.5075,-2.5208,-2.5567,-2.577,-2.5844,-2.5936,-2.6082,-2.6207,-2.6226,-2.6297,-2.6521,-2.6641,-2.6758,-2.6704,-2.6779,-2.659,-2.6136,-2.5486,-2.5156,-2.4949,-2.4561,-2.4481,-2.4331,-2.4339,-2.4383,-2.4402,-2.4356,-2.4053,-2.3693,-2.3227,-2.2625,-2.2034,-2.1598,-2.1957,-2.4507,-2.4507,-2.4507,-2.4507,-2.4507,-2.4487,-2.4074,-2.337,-2.3255,-2.2945,-2.256,-2.2386,-2.2692,-2.2916,-2.3176,-2.3224,-2.3593,-2.3666,-2.4129,-2.4731,-2.5146,-2.5546,-2.5709,-2.6308,-2.651,-2.6527,-2.66,-2.6116,-2.544,-2.5016,-2.4533,-2.3977,-2.3894,-2.3995,-2.3995,-2.4054,-2.4125,-2.4125,-2.4125,-2.4125,-2.4125,-2.4141,-2.4118,-2.4105,-2.4105,-2.4303,-2.4425,-2.4599,-2.4636,-2.4122,-2.3595,-2.3725,-2.3923,-2.4364,-2.4691,-2.4974,-2.5459,-2.5637,-2.5531,-2.5554,-2.5406,-2.5045,-2.4912,-2.4966,-2.5624,-2.5753,-2.6044,-2.6768,-2.6147,-2.5646,-2.5095,-2.3978,-2.3126,-2.2729,-2.2402,-2.2563,-2.3031,-2.3392,-2.353,-2.3616,-2.4241,-2.4511,-2.4768,-2.5095,-2.5505,-2.5473,-2.5605,-2.5842,-2.5917,-2.5937,-2.61,-2.6296,-2.6366,-2.6383,-2.6219,-2.6083,-2.5705,-2.5278,-2.4445,-2.4011,-2.4017,-2.3855,-2.3987,-2.4019,-2.4096,-2.4072,-2.3978,-2.3818,-2.3472,-2.283,-2.216,-2.1588,-2.1041,-2.0731,-2.0807,-2.4507,-2.4507,-2.4507,-2.4507,-2.4507,-2.4497,-2.4229,-2.3701,-2.335,-2.2964,-2.2473,-2.2126,-2.2197,-2.2515,-2.2553,-2.2777,-2.3113,-2.315,-2.3434,-2.3838,-2.3984,-2.4286,-2.4707,-2.5511,-2.6,-2.6055,-2.6074,-2.5565,-2.4803,-2.4493,-2.3898,-2.3147,-2.3466,-2.3565,-2.3611,-2.3907,-2.4112,-2.4125,-2.4125,-2.4125,-2.4125,-2.4125,-2.4125,-2.4125,-2.4125,-2.4141,-2.4171,-2.4245,-2.4208,-2.4204,-2.4357,-2.4407,-2.4558,-2.4721,-2.4887,-2.4997,-2.5093,-2.5301,-2.5425,-2.5465,-2.5546,-2.5496,-2.5438,-2.5676,-2.5802,-2.5816,-2.5914,-2.6136,-2.5928,-2.5402,-2.451,-2.366,-2.2945,-2.2522,-2.2263,-2.2263,-2.2449,-2.2709,-2.3054,-2.3465,-2.3724,-2.3943,-2.4194,-2.4572,-2.4883,-2.5036,-2.5301,-2.5562,-2.5637,-2.5659,-2.5862,-2.6082,-2.5869,-2.582,-2.5694,-2.533,-2.4671,-2.4338,-2.3616,-2.3187,-2.3195,-2.3324,-2.3529,-2.3703,-2.3876,-2.377,-2.3492,-2.3059,-2.2673,-2.1871,-2.1185,-2.0838,-2.0477,-2.0048,-2.0083,-2.4507,-2.4507,-2.4507,-2.4507,-2.4507,-2.4497,-2.4291,-2.3898,-2.367,-2.3122,-2.2553,-2.2221,-2.213,-2.2111,-2.2138,-2.2327,-2.2703,-2.2927,-2.3113,-2.3298,-2.3372,-2.3567,-2.3897,-2.4515,-2.4969,-2.5357,-2.5463,-2.5065,-2.466,-2.4222,-2.3784,-2.3028,-2.3269,-2.3419,-2.3411,-2.3641,-2.3865,-2.4083,-2.4125,-2.4125,-2.4125,-2.4125,-2.4125,-2.4125,-2.4125,-2.4125,-2.4112,-2.4112,-2.4112,-2.4171,-2.4419,-2.4664,-2.4765,-2.478,-2.4821,-2.4977,-2.5005,-2.5061,-2.5216,-2.5285,-2.5314,-2.5453,-2.5481,-2.5578,-2.5661,-2.573,-2.5798,-2.5796,-2.5569,-2.4978,-2.3825,-2.3755,-2.315,-2.2405,-2.2194,-2.2194,-2.2217,-2.2379,-2.2563,-2.2934,-2.3179,-2.3363,-2.3672,-2.4023,-2.4323,-2.4517,-2.4843,-2.5114,-2.5339,-2.5397,-2.5637,-2.5707,-2.5383,-2.5208,-2.5118,-2.4563,-2.3595,-2.3242,-2.2884,-2.2685,-2.2733,-2.293,-2.3146,-2.3281,-2.3343,-2.312,-2.2806,-2.2337,-2.1761,-2.1111,-2.0569,-2.0281,-2.0099,-1.9948,-2.0187,-2.4507,-2.4507,-2.4507,-2.4507,-2.4507,-2.4497,-2.4343,-2.4022,-2.3898,-2.3443,-2.2801,-2.2656,-2.2457,-2.2108,-2.2011,-2.2129,-2.23,-2.259,-2.2729,-2.2889,-2.2927,-2.315,-2.3482,-2.3692,-2.3961,-2.4672,-2.4823,-2.4766,-2.45,-2.425,-2.3544,-2.322,-2.3238,-2.312,-2.313,-2.3271,-2.348,-2.3835,-2.3776,-2.3936,-2.4024,-2.4024,-2.3966,-2.4125,-2.4125,-2.4125,-2.4125,-2.4125,-2.4125,-2.4125,-2.4125,-2.4216,-2.4363,-2.4465,-2.4523,-2.4835,-2.4791,-2.4835,-2.4878,-2.4948,-2.4948,-2.4977,-2.5005,-2.5131,-2.5341,-2.5425,-2.5495,-2.5466,-2.5227,-2.4563,-2.3463,-2.3477,-2.3234,-2.2517,-2.2194,-2.2194,-2.2194,-2.2194,-2.2263,-2.231,-2.2655,-2.2889,-2.312,-2.3413,-2.3709,-2.4,-2.4343,-2.4632,-2.4843,-2.5024,-2.5182,-2.518,-2.4846,-2.4246,-2.4059,-2.3983,-2.2989,-2.2545,-2.2228,-2.2293,-2.2346,-2.249,-2.2647,-2.2676,-2.2649,-2.2371,-2.1885,-2.1219,-2.068,-2.0225,-1.9988,-1.9732,-1.9737,-1.9856,-2.0174,-2.4507,-2.4507,-2.4507,-2.4507,-2.4507,-2.4507,-2.4445,-2.4332,-2.4043,-2.3815,-2.3588,-2.3236,-2.3018,-2.2811,-2.2511,-2.2268,-2.207,-2.2101,-2.2252,-2.244,-2.2515,-2.2703,-2.3038,-2.3113,-2.325,-2.346,-2.3897,-2.4107,-2.3816,-2.3549,-2.3199,-2.2509,-2.2648,-2.2695,-2.2528,-2.2525,-2.3005,-2.3378,-2.3203,-2.3335,-2.3747,-2.3688,-2.3628,-2.3907,-2.3936,-2.3995,-2.4067,-2.4096,-2.4125,-2.4125,-2.4125,-2.4112,-2.4171,-2.4157,-2.4187,-2.4303,-2.4345,-2.4447,-2.4551,-2.4609,-2.4723,-2.4907,-2.492,-2.4948,-2.5061,-2.5061,-2.5105,-2.5066,-2.4873,-2.4397,-2.3997,-2.3631,-2.2985,-2.2433,-2.2194,-2.2194,-2.2194,-2.2194,-2.2194,-2.2217,-2.2333,-2.2463,-2.2686,-2.2897,-2.3143,-2.3428,-2.3758,-2.4017,-2.422,-2.4353,-2.4469,-2.44,-2.4244,-2.3545,-2.2912,-2.2916,-2.2533,-2.2166,-2.1932,-2.2046,-2.2087,-2.207,-2.2136,-2.1895,-2.1709,-2.1428,-2.0845,-2.0174,-1.9754,-1.9417,-1.9297,-1.9204,-1.9512,-1.9756,-1.973,-2.4507,-2.4507,-2.4507,-2.4507,-2.4507,-2.4507,-2.4507,-2.4476,-2.4312,-2.4084,-2.3867,-2.367,-2.3246,-2.2884,-2.2625,-2.2242,-2.1911,-2.1807,-2.1911,-2.2063,-2.2101,-2.2289,-2.2665,-2.2703,-2.2852,-2.3038,-2.3386,-2.3492,-2.3268,-2.3426,-2.301,-2.2628,-2.2635,-2.2547,-2.2341,-2.227,-2.2531,-2.2811,-2.2756,-2.2786,-2.3292,-2.3083,-2.3173,-2.3275,-2.3395,-2.3467,-2.373,-2.373,-2.3878,-2.4037,-2.4125,-2.4125,-2.4024,-2.3907,-2.3848,-2.4024,-2.4083,-2.4141,-2.4261,-2.4319,-2.439,-2.4476,-2.4534,-2.4607,-2.4708,-2.4738,-2.4714,-2.4639,-2.4984,-2.4527,-2.3451,-2.3462,-2.314,-2.2433,-2.217,-2.217,-2.2194,-2.2194,-2.2194,-2.2194,-2.224,-2.231,-2.2324,-2.2518,-2.264,-2.2897,-2.3194,-2.3406,-2.3601,-2.3682,-2.3759,-2.3398,-2.3177,-2.2577,-2.2,-2.2005,-2.2115,-2.1817,-2.1646,-2.1748,-2.1687,-2.1618,-2.1175,-2.0747,-2.0565,-2.047,-2.0011,-1.9421,-1.9023,-1.8747,-1.8833,-1.9002,-1.942,-1.9664,-1.9601,-2.4507,-2.4507,-2.4507,-2.4507,-2.4507,-2.4507,-2.4507,-2.4507,-2.4497,-2.4301,-2.4043,-2.3971,-2.3567,-2.2915,-2.2553,-2.2252,-2.1838,-2.1807,-2.1807,-2.1845,-2.1845,-2.2035,-2.2187,-2.2289,-2.2402,-2.259,-2.2703,-2.2852,-2.3058,-2.3268,-2.3109,-2.2646,-2.2546,-2.2466,-2.2264,-2.1779,-2.2011,-2.2267,-2.2341,-2.2341,-2.2451,-2.2561,-2.2634,-2.2634,-2.2634,-2.2859,-2.3198,-2.3228,-2.3467,-2.3789,-2.3936,-2.3936,-2.3865,-2.3599,-2.3539,-2.376,-2.3878,-2.3966,-2.4083,-2.3966,-2.3995,-2.42,-2.4037,-2.4157,-2.4334,-2.441,-2.4376,-2.4351,-2.4352,-2.4368,-2.3242,-2.3241,-2.2939,-2.2393,-2.2044,-2.2137,-2.2166,-2.2189,-2.2194,-2.2194,-2.2194,-2.217,-2.2184,-2.2278,-2.2449,-2.2457,-2.274,-2.2867,-2.3024,-2.3036,-2.2945,-2.2415,-2.1979,-2.1457,-2.1159,-2.1245,-2.1408,-2.1516,-2.1431,-2.1488,-2.1286,-2.1083,-2.0495,-1.9893,-1.9651,-1.951,-1.9075,-1.8752,-1.8471,-1.8348,-1.852,-1.8769,-1.9094,-1.9279,-1.9297,-2.4507,-2.4507,-2.4507,-2.4507,-2.4507,-2.4507,-2.4507,-2.4507,-2.4507,-2.4476,-2.4373,-2.4373,-2.4136,-2.3515,-2.2729,-2.2242,-2.1921,-2.1807,-2.1807,-2.1807,-2.1807,-2.1845,-2.1873,-2.1873,-2.1949,-2.2101,-2.2063,-2.2365,-2.2777,-2.3001,-2.282,-2.2371,-2.2031,-2.1707,-2.1687,-2.1164,-2.121,-2.1753,-2.1577,-2.1577,-2.197,-2.2329,-2.2482,-2.2543,-2.2512,-2.2543,-2.2677,-2.2707,-2.2962,-2.339,-2.3492,-2.3492,-2.3463,-2.3433,-2.3138,-2.3065,-2.3215,-2.3641,-2.3835,-2.3658,-2.3599,-2.3747,-2.3671,-2.3789,-2.3881,-2.4028,-2.4092,-2.4443,-2.3896,-2.3411,-2.299,-2.2454,-2.1928,-2.1746,-2.1705,-2.19,-2.2023,-2.1797,-2.1851,-2.1945,-2.1851,-2.1959,-2.2006,-2.2137,-2.2231,-2.2254,-2.2287,-2.2402,-2.2392,-2.2367,-2.197,-2.1396,-2.1042,-2.0571,-2.0531,-2.0579,-2.0828,-2.1119,-2.1181,-2.1162,-2.0815,-2.045,-1.9738,-1.9223,-1.8943,-1.8601,-1.8212,-1.7975,-1.7861,-1.7984,-1.8204,-1.8442,-1.8678,-1.8834,-1.8985,-2.4507,-2.4507,-2.4507,-2.4507,-2.4507,-2.4507,-2.4507,-2.4507,-2.4507,-2.4507,-2.4507,-2.4497,-2.4167,-2.3432,-2.2522,-2.2004,-2.1828,-2.1807,-2.1807,-2.1807,-2.1807,-2.1807,-2.1807,-2.1807,-2.1807,-2.1807,-2.1807,-2.1949,-2.2327,-2.2542,-2.2488,-2.2278,-2.1832,-2.1596,-2.1305,-2.0676,-2.0735,-2.104,-2.1178,-2.1305,-2.1494,-2.1714,-2.1827,-2.1815,-2.1815,-2.197,-2.2156,-2.2218,-2.2451,-2.2841,-2.2962,-2.295,-2.2871,-2.272,-2.2494,-2.2665,-2.2525,-2.2781,-2.3113,-2.3022,-2.3125,-2.3173,-2.3083,-2.3053,-2.3203,-2.3292,-2.3322,-2.3391,-2.32,-2.301,-2.2942,-2.2484,-2.2008,-2.1684,-2.1316,-2.1304,-2.1415,-2.1388,-2.131,-2.1431,-2.1541,-2.1565,-2.1636,-2.1841,-2.1959,-2.2114,-2.2156,-2.2258,-2.196,-2.1532,-2.0989,-2.0269,-2.0013,-1.9774,-1.9937,-2.0085,-2.0395,-2.0663,-2.0861,-2.0735,-2.028,-1.9774,-1.9068,-1.8459,-1.8065,-1.7716,-1.7383,-1.7484,-1.7653,-1.7771,-1.7887,-1.8101,-1.8323,-1.8545,-1.8821,-2.4507,-2.4507,-2.4507,-2.4507,-2.4507,-2.4507,-2.4507,-2.4507,-2.4507,-2.4507,-2.4466,-2.4363,-2.3908,-2.3174,-2.2428,-2.1994,-2.1807,-2.1807,-2.1807,-2.1807,-2.1807,-2.1807,-2.1807,-2.1807,-2.1807,-2.1807,-2.1807,-2.1845,-2.1921,-2.2052,-2.2188,-2.2051,-2.1417,-2.1237,-2.1016,-2.0498,-2.0204,-2.0528,-2.0871,-2.1031,-2.1094,-2.119,-2.1265,-2.1233,-2.1265,-2.1348,-2.1671,-2.1733,-2.1939,-2.2341,-2.2421,-2.2421,-2.2359,-2.2218,-2.2032,-2.2094,-2.192,-2.192,-2.2218,-2.2341,-2.2451,-2.2573,-2.2634,-2.2695,-2.2695,-2.2634,-2.2634,-2.2774,-2.2658,-2.2672,-2.2582,-2.218,-2.1564,-2.1093,-2.0809,-2.0728,-2.0696,-2.0809,-2.0932,-2.1091,-2.1115,-2.0906,-2.1091,-2.1407,-2.166,-2.1949,-2.2039,-2.2091,-2.1608,-2.1012,-2.0394,-1.9719,-1.9333,-1.9236,-1.95,-1.9714,-1.9997,-2.0145,-2.0337,-2.0128,-1.9561,-1.901,-1.8384,-1.7829,-1.7326,-1.7295,-1.7216,-1.7358,-1.7484,-1.7544,-1.7631,-1.7783,-1.7969,-1.8225,-1.851,-2.4507,-2.4507,-2.4507,-2.4507,-2.4507,-2.4507,-2.4507,-2.4507,-2.4507,-2.4507,-2.4445,-2.4115,-2.3701,-2.3163,-2.2687,-2.2201,-2.1807,-2.1807,-2.1828,-2.1828,-2.1807,-2.1807,-2.1807,-2.1807,-2.1807,-2.1807,-2.1807,-2.1807,-2.1807,-2.1845,-2.1634,-2.1172,-2.0906,-2.0597,-2.0334,-2.0078,-1.9878,-2.015,-2.0474,-2.0635,-2.0764,-2.0892,-2.1094,-2.1126,-2.1169,-2.1233,-2.1265,-2.1285,-2.1494,-2.1951,-2.1939,-2.1939,-2.1908,-2.1858,-2.1702,-2.1514,-2.1463,-2.1443,-2.1557,-2.1827,-2.2156,-2.2451,-2.2512,-2.2421,-2.2359,-2.25,-2.2561,-2.2421,-2.2206,-2.2074,-2.1696,-2.1136,-2.0797,-2.0571,-2.0326,-2.0079,-2.0144,-2.0422,-2.0573,-2.0746,-2.0622,-2.0308,-2.0283,-2.0559,-2.1275,-2.1578,-2.1813,-2.1852,-2.124,-2.0615,-2.0054,-1.9432,-1.8871,-1.8817,-1.9132,-1.9354,-1.95,-1.9506,-1.9617,-1.9206,-1.861,-1.8091,-1.7723,-1.7279,-1.6862,-1.6972,-1.7095,-1.7203,-1.7269,-1.7296,-1.7387,-1.7567,-1.7749,-1.8008,-1.8166,-2.4507,-2.4507,-2.4507,-2.4507,-2.4507,-2.4507,-2.4507,-2.4507,-2.4507,-2.4507,-2.4466,-2.4074,-2.3629,-2.3236,-2.3008,-2.249,-2.1932,-2.2128,-2.2004,-2.1869,-2.1807,-2.1807,-2.1807,-2.1807,-2.1807,-2.1807,-2.1807,-2.1807,-2.1807,-2.1807,-2.1518,-2.1114,-2.0653,-2.0456,-2.0226,-1.9853,-1.9702,-1.9824,-2.0085,-2.0269,-2.0334,-2.0399,-2.0528,-2.0528,-2.0764,-2.0807,-2.0871,-2.1094,-2.1273,-2.1431,-2.1451,-2.1482,-2.1526,-2.1494,-2.14,-2.1221,-2.1201,-2.1201,-2.1201,-2.1368,-2.1557,-2.1639,-2.1721,-2.1753,-2.1858,-2.1765,-2.1721,-2.1639,-2.1651,-2.158,-2.1715,-2.0985,-2.0332,-2.0133,-1.9837,-1.9487,-1.9539,-1.9823,-1.9901,-1.9978,-1.9747,-1.9462,-1.954,-1.9657,-2.0472,-2.1226,-2.1452,-2.1492,-2.0854,-2.0228,-1.9625,-1.9141,-1.8575,-1.847,-1.8784,-1.8903,-1.8978,-1.8976,-1.8936,-1.8465,-1.7982,-1.7547,-1.717,-1.6723,-1.6499,-1.6636,-1.6782,-1.6965,-1.7075,-1.7171,-1.7276,-1.742,-1.7602,-1.7777,-1.7778,-2.4507,-2.4507,-2.4507,-2.4507,-2.4507,-2.4507,-2.4507,-2.4507,-2.4507,-2.4507,-2.4466,-2.4074,-2.3712,-2.3401,-2.3018,-2.2687,-2.217,-2.2149,-2.2035,-2.1911,-2.1807,-2.1807,-2.1807,-2.1807,-2.1807,-2.1807,-2.1807,-2.1807,-2.1807,-2.1807,-2.1642,-2.1311,-2.0866,-2.0576,-2.0076,-1.9724,-1.945,-1.9539,-1.9758,-1.9944,-1.9944,-2.0063,-2.0128,-2.0161,-2.0366,-2.0431,-2.0506,-2.0667,-2.0871,-2.0955,-2.1019,-2.1094,-2.1169,-2.1201,-2.1201,-2.1201,-2.1201,-2.1201,-2.1201,-2.1201,-2.119,-2.1316,-2.1285,-2.1296,-2.1201,-2.1201,-2.1348,-2.1285,-2.1265,-2.1348,-2.1643,-2.0728,-2.0112,-1.991,-1.9093,-1.8732,-1.8958,-1.9196,-1.9158,-1.9119,-1.8972,-1.8987,-1.9054,-1.9279,-1.9991,-2.0709,-2.0993,-2.0922,-2.0362,-1.9762,-1.9172,-1.8725,-1.8296,-1.8321,-1.8445,-1.8606,-1.8765,-1.8627,-1.8495,-1.8016,-1.7556,-1.7115,-1.6668,-1.6252,-1.6162,-1.6315,-1.6506,-1.6691,-1.6902,-1.7095,-1.7203,-1.7293,-1.7294,-1.7406,-1.7228,-2.4507,-2.4507,-2.4507,-2.4507,-2.4507,-2.4507,-2.4507,-2.4507,-2.4507,-2.4507,-2.4456,-2.4105,-2.3898,-2.365,-2.3101,-2.2677,-2.2366,-2.2087,-2.188,-2.1838,-2.1807,-2.1807,-2.1807,-2.1807,-2.1807,-2.1807,-2.1807,-2.1807,-2.1807,-2.1807,-2.1745,-2.1611,-2.1186,-2.0617,-1.9865,-1.9367,-1.9129,-1.9164,-1.9473,-1.9572,-1.966,-1.9846,-1.9933,-1.9944,-2.0042,-2.0107,-2.015,-2.0269,-2.0442,-2.0571,-2.0624,-2.0764,-2.0967,-2.1031,-2.1063,-2.1063,-2.1126,-2.1158,-2.1201,-2.1201,-2.1201,-2.1201,-2.1201,-2.1201,-2.1201,-2.1201,-2.1201,-2.1201,-2.1201,-2.1201,-2.093,-2.0434,-2.0014,-1.9541,-1.8779,-1.8313,-1.853,-1.8676,-1.8664,-1.8652,-1.8718,-1.8759,-1.8774,-1.8963,-1.9643,-2.0169,-2.051,-2.0296,-1.9773,-1.9027,-1.8348,-1.8236,-1.786,-1.8045,-1.8155,-1.842,-1.8495,-1.8368,-1.8111,-1.7673,-1.7179,-1.6679,-1.6242,-1.5787,-1.5797,-1.5955,-1.6177,-1.6423,-1.6652,-1.6876,-1.7057,-1.713,-1.7119,-1.704,-1.6909,-2.4507,-2.4507,-2.4507,-2.4507,-2.4507,-2.4507,-2.4507,-2.4507,-2.4507,-2.4507,-2.4487,-2.4311,-2.4115,-2.3815,-2.3546,-2.3008,-2.249,-2.2418,-2.219,-2.1818,-2.1807,-2.1807,-2.1807,-2.1807,-2.1807,-2.1807,-2.1807,-2.1807,-2.1807,-2.1807,-2.1807,-2.1694,-2.1362,-2.0638,-2.0021,-1.9575,-1.9461,-1.916,-1.9198,-1.9274,-1.9264,-1.9407,-1.9485,-1.9495,-1.966,-1.9758,-1.9791,-1.9911,-2.0107,-2.0237,-2.0269,-2.0366,-2.0528,-2.056,-2.0528,-2.056,-2.0624,-2.0967,-2.1106,-2.1201,-2.1201,-2.1169,-2.1201,-2.1201,-2.1201,-2.1201,-2.1201,-2.1201,-2.1201,-2.1201,-2.1072,-2.027,-1.9805,-1.9523,-1.8925,-1.8361,-1.8286,-1.8313,-1.8302,-1.8313,-1.834,-1.8449,-1.8518,-1.856,-1.9095,-1.9275,-1.9508,-1.9447,-1.9029,-1.8009,-1.7223,-1.7463,-1.7433,-1.7655,-1.7861,-1.8075,-1.8248,-1.8204,-1.7902,-1.7485,-1.6933,-1.6357,-1.5798,-1.5354,-1.5447,-1.5595,-1.5826,-1.6079,-1.6394,-1.6636,-1.6821,-1.7016,-1.7093,-1.6936,-1.6706,-2.4454,-2.4507,-2.4507,-2.4507,-2.4507,-2.4507,-2.4507,-2.4507,-2.4507,-2.4507,-2.4466,-2.4342,-2.4157,-2.3846,-2.3494,-2.3205,-2.248,-2.2294,-2.219,-2.1818,-2.1807,-2.1807,-2.1807,-2.1807,-2.1807,-2.1807,-2.1807,-2.1807,-2.1807,-2.1807,-2.1807,-2.1735,-2.1497,-2.1021,-2.0435,-2.0031,-1.9647,-1.9378,-1.9318,-1.9245,-1.9287,-1.931,-1.9131,-1.9208,-1.9308,-1.945,-1.9473,-1.9627,-1.9802,-1.9879,-1.9944,-1.9977,-2.0042,-2.0096,-2.0096,-2.0193,-2.0302,-2.0571,-2.0732,-2.0764,-2.0732,-2.0732,-2.1031,-2.1201,-2.1201,-2.1201,-2.1201,-2.1201,-2.1201,-2.1201,-2.1063,-2.0258,-1.9918,-1.9677,-1.9149,-1.8575,-1.8357,-1.8396,-1.8166,-1.8111,-1.8123,-1.8232,-1.8286,-1.8313,-1.8506,-1.8507,-1.8476,-1.8379,-1.8277,-1.7351,-1.657,-1.6771,-1.6961,-1.7156,-1.7421,-1.7693,-1.7875,-1.8016,-1.7683,-1.7258,-1.6693,-1.611,-1.5501,-1.4989,-1.5126,-1.5268,-1.5477,-1.5739,-1.6065,-1.6353,-1.661,-1.6821,-1.7029,-1.6869,-1.6579,-2.4292,-2.4454,-2.4497,-2.4497,-2.4454,-2.4411,-2.4454,-2.4507,-2.4507,-2.4507,-2.4487,-2.4136,-2.4022,-2.3774,-2.3029,-2.2656,-2.247,-2.2108,-2.1901,-2.1828,-2.1807,-2.1807,-2.1807,-2.1807,-2.1807,-2.1807,-2.1807,-2.1807,-2.1807,-2.1807,-2.1807,-2.1807,-2.1735,-2.1331,-2.0834,-2.0379,-2.0,-1.9782,-1.9561,-1.9544,-1.9575,-1.9388,-1.9222,-1.9193,-1.9175,-1.9208,-1.9198,-1.9264,-1.9407,-1.9506,-1.9572,-1.9758,-1.9911,-2.0063,-2.0063,-2.0096,-2.0074,-2.0139,-2.0237,-2.0302,-2.0258,-2.0399,-2.0752,-2.1031,-2.1138,-2.1074,-2.1106,-2.1169,-2.1201,-2.1201,-2.1075,-2.0676,-2.0289,-1.9872,-1.9344,-1.8988,-1.8759,-1.8552,-1.8215,-1.8111,-1.8111,-1.8139,-1.8139,-1.8166,-1.8209,-1.8155,-1.8122,-1.7822,-1.7621,-1.7039,-1.6407,-1.6367,-1.6538,-1.6645,-1.6921,-1.7235,-1.7455,-1.7618,-1.7442,-1.7023,-1.6445,-1.597,-1.5565,-1.5177,-1.4915,-1.4949,-1.5179,-1.5433,-1.5739,-1.6037,-1.6285,-1.6639,-1.685,-1.6759,-1.6429,-2.3927,-2.4013,-2.4196,-2.4196,-2.4024,-2.4013,-2.4196,-2.4497,-2.4507,-2.4507,-2.4487,-2.4416,-2.4271,-2.4218,-2.3412,-2.3049,-2.2646,-2.2263,-2.1921,-2.1807,-2.1807,-2.1807,-2.1807,-2.1807,-2.1807,-2.1807,-2.1807,-2.1807,-2.1807,-2.1807,-2.1807,-2.1807,-2.1807,-2.1518,-2.1207,-2.0855,-2.0565,-2.0276,-2.0048,-1.9903,-1.9834,-1.9637,-1.9399,-1.9191,-1.9098,-1.9098,-1.9098,-1.9098,-1.9208,-1.9241,-1.9274,-1.9363,-1.9363,-1.9396,-1.9429,-1.9726,-1.9758,-1.9857,-2.0031,-2.0096,-2.0063,-2.0031,-2.0302,-2.0495,-2.0667,-2.0775,-2.0871,-2.0967,-2.1106,-2.1106,-2.1069,-2.0794,-2.0553,-2.0251,-1.9677,-1.9172,-1.8908,-1.8513,-1.8226,-1.8084,-1.8084,-1.8084,-1.8084,-1.8111,-1.8131,-1.8043,-1.7863,-1.7566,-1.7166,-1.6685,-1.6303,-1.6249,-1.6211,-1.6367,-1.6466,-1.6748,-1.6985,-1.7152,-1.6946,-1.671,-1.6284,-1.5864,-1.5612,-1.526,-1.484,-1.4774,-1.4903,-1.5164,-1.5448,-1.5653,-1.5896,-1.6301,-1.6602,-1.6574,-1.6328,-2.3754,-2.3841,-2.397,-2.3927,-2.3797,-2.3797,-2.397,-2.4229,-2.4315,-2.4411,-2.4507,-2.4497,-2.4301,-2.3856,-2.337,-2.2946,-2.2501,-2.2097,-2.1807,-2.1807,-2.1769,-2.1807,-2.1807,-2.1769,-2.1807,-2.1807,-2.1807,-2.1807,-2.1807,-2.1807,-2.1807,-2.1807,-2.1807,-2.1642,-2.1455,-2.1362,-2.1248,-2.0928,-2.0581,-2.0317,-2.0089,-1.9896,-1.9513,-1.9222,-1.9119,-1.9098,-1.9098,-1.9098,-1.9098,-1.9098,-1.9098,-1.9098,-1.9142,-1.9131,-1.9142,-1.9407,-1.9407,-1.9495,-1.9616,-1.9649,-1.9682,-1.9715,-1.9748,-1.9889,-2.0139,-2.0313,-2.0474,-2.0635,-2.0796,-2.0944,-2.0873,-2.0834,-2.0794,-2.0699,-2.001,-1.931,-1.8908,-1.849,-1.8295,-1.8146,-1.8084,-1.8084,-1.8084,-1.8084,-1.81,-1.8043,-1.8012,-1.789,-1.7445,-1.6919,-1.6451,-1.6174,-1.6112,-1.6137,-1.6213,-1.6228,-1.6312,-1.6432,-1.6346,-1.614,-1.5927,-1.5601,-1.5204,-1.492,-1.465,-1.4689,-1.4779,-1.4887,-1.5118,-1.5314,-1.5522,-1.5825,-1.6246,-1.657,-1.6219,-2.358,-2.3711,-2.3754,-2.3714,-2.3747,-2.3724,-2.3754,-2.3797,-2.4024,-2.4239,-2.4411,-2.436,-2.3917,-2.3402,-2.3052,-2.2598,-2.2216,-2.1855,-2.1731,-2.1769,-2.1731,-2.1731,-2.1731,-2.1759,-2.1731,-2.1769,-2.1807,-2.1807,-2.1807,-2.1807,-2.1807,-2.1807,-2.1807,-2.1735,-2.1704,-2.1694,-2.1611,-2.1487,-2.1052,-2.0669,-2.042,-2.0058,-1.9637,-1.9264,-1.915,-1.9098,-1.9098,-1.9098,-1.9098,-1.9098,-1.9098,-1.9098,-1.9098,-1.9098,-1.9142,-1.9142,-1.9175,-1.9198,-1.9264,-1.9297,-1.9231,-1.9198,-1.9131,-1.9374,-1.9627,-1.9922,-2.0118,-2.0334,-2.0495,-2.056,-2.0557,-2.063,-2.0638,-2.0461,-1.9977,-1.9565,-1.931,-1.8765,-1.8215,-1.8084,-1.8084,-1.8084,-1.8084,-1.8084,-1.8084,-1.8073,-1.805,-1.802,-1.7779,-1.7258,-1.6848,-1.638,-1.608,-1.6009,-1.5876,-1.5857,-1.5637,-1.5647,-1.5736,-1.5782,-1.5751,-1.5296,-1.4744,-1.4668,-1.4669,-1.4641,-1.47,-1.4825,-1.4917,-1.5011,-1.5194,-1.5374,-1.5754,-1.6231,-1.6158,-2.3232,-2.3276,-2.3276,-2.3229,-2.313,-2.3225,-2.3406,-2.358,-2.3634,-2.3797,-2.3867,-2.3679,-2.3416,-2.3143,-2.2554,-2.2126,-2.206,-2.1681,-2.1609,-2.1589,-2.1578,-2.1589,-2.1589,-2.1578,-2.1655,-2.1769,-2.1807,-2.1807,-2.1807,-2.1807,-2.1807,-2.1807,-2.1807,-2.1807,-2.1807,-2.1807,-2.1797,-2.1776,-2.1559,-2.1155,-2.0907,-2.0503,-2.0069,-1.9647,-1.9388,-1.9129,-1.9098,-1.9098,-1.9098,-1.9098,-1.9098,-1.9098,-1.9098,-1.9098,-1.9098,-1.9098,-1.9098,-1.9098,-1.9098,-1.9098,-1.9098,-1.9098,-1.9098,-1.9131,-1.9308,-1.9572,-1.9802,-1.9987,-2.0139,-2.0204,-2.0269,-2.0366,-2.0451,-2.021,-1.9921,-1.9799,-1.9629,-1.892,-1.816,-1.8084,-1.8084,-1.8084,-1.8084,-1.8084,-1.8084,-1.8084,-1.8084,-1.8088,-1.8077,-1.7733,-1.7496,-1.7009,-1.6201,-1.5985,-1.58,-1.5567,-1.5392,-1.5379,-1.5503,-1.5542,-1.5552,-1.5159,-1.4751,-1.476,-1.4745,-1.4646,-1.4641,-1.4777,-1.4855,-1.4886,-1.4965,-1.5179,-1.5344,-1.5739,-1.5706,-2.3101,-2.3101,-2.3091,-2.3051,-2.2991,-2.309,-2.3188,-2.3319,-2.3319,-2.3406,-2.3467,-2.327,-2.3096,-2.2875,-2.2171,-2.1757,-2.1754,-2.1491,-2.1379,-2.1359,-2.1359,-2.1359,-2.1359,-2.1359,-2.1502,-2.1617,-2.1731,-2.1807,-2.1807,-2.1807,-2.1807,-2.1807,-2.1807,-2.1807,-2.1807,-2.1807,-2.1807,-2.1807,-2.1807,-2.1642,-2.13,-2.0814,-2.0245,-1.9803,-1.9419,-1.917,-1.9098,-1.9098,-1.9098,-1.9098,-1.9098,-1.9098,-1.9098,-1.9098,-1.9098,-1.9098,-1.9098,-1.9098,-1.9098,-1.9098,-1.9098,-1.9098,-1.9098,-1.9131,-1.9131,-1.9363,-1.9363,-1.9551,-1.9791,-1.9889,-1.9944,-2.0074,-2.0237,-2.0145,-1.9734,-1.9468,-1.906,-1.8462,-1.8114,-1.8084,-1.8057,-1.7959,-1.8014,-1.8084,-1.8084,-1.8084,-1.8084,-1.8084,-1.8084,-1.8084,-1.7905,-1.7588,-1.6761,-1.6118,-1.5868,-1.5556,-1.5233,-1.5233,-1.53,-1.5233,-1.5205,-1.5021,-1.4819,-1.4697,-1.4606,-1.4536,-1.4553,-1.4719,-1.4807,-1.4839,-1.4917,-1.5011,-1.5149,-1.5284,-1.5343,-2.3062,-2.3023,-2.3071,-2.3052,-2.3033,-2.3071,-2.3091,-2.3091,-2.3091,-2.3091,-2.31,-2.3053,-2.276,-2.2421,-2.191,-2.1548,-2.1277,-2.1207,-2.1177,-2.1167,-2.1167,-2.1167,-2.1167,-2.1167,-2.132,-2.1502,-2.1693,-2.1769,-2.1807,-2.1807,-2.1807,-2.1807,-2.1807,-2.1807,-2.1769,-2.1807,-2.1807,-2.1807,-2.1807,-2.1807,-2.1445,-2.099,-2.042,-1.9893,-1.9471,-1.9202,-1.9139,-1.9098,-1.9098,-1.9098,-1.9098,-1.9098,-1.9098,-1.9098,-1.9098,-1.9098,-1.9098,-1.9098,-1.9098,-1.9098,-1.9098,-1.9098,-1.9098,-1.9098,-1.9098,-1.9098,-1.9131,-1.9231,-1.9473,-1.9572,-1.966,-1.9726,-1.9879,-1.9998,-1.9572,-1.9175,-1.8657,-1.8159,-1.8063,-1.8061,-1.7965,-1.7867,-1.7904,-1.8002,-1.8084,-1.8084,-1.8084,-1.8084,-1.8084,-1.8084,-1.802,-1.7733,-1.7232,-1.6646,-1.613,-1.5682,-1.5349,-1.5131,-1.5175,-1.5017,-1.492,-1.4845,-1.4716,-1.4497,-1.4401,-1.4489,-1.4576,-1.4724,-1.4766,-1.4807,-1.4839,-1.4917,-1.4917,-1.5041,-1.5118,-2.2896,-2.2623,-2.2945,-2.2916,-2.2682,-2.2945,-2.3101,-2.3101,-2.3101,-2.3101,-2.2949,-2.2405,-2.2048,-2.195,-2.1174,-2.0819,-2.1023,-2.0935,-2.0935,-2.0945,-2.0935,-2.0945,-2.0984,-2.0974,-2.1167,-2.1397,-2.1617,-2.1769,-2.1731,-2.1769,-2.1769,-2.1769,-2.1769,-2.1769,-2.1769,-2.1769,-2.1769,-2.1769,-2.1769,-2.1807,-2.1694,-2.1259,-2.0767,-2.0317,-1.9872,-1.9502,-1.9233,-1.9108,-1.9098,-1.9098,-1.9098,-1.9098,-1.9098,-1.9098,-1.9098,-1.9098,-1.9098,-1.9098,-1.9098,-1.9098,-1.9098,-1.9098,-1.9098,-1.9098,-1.9098,-1.9098,-1.9098,-1.9098,-1.9264,-1.9264,-1.933,-1.933,-1.9419,-1.9586,-1.9404,-1.9068,-1.8672,-1.8238,-1.7962,-1.7877,-1.7779,-1.7712,-1.7711,-1.7838,-1.803,-1.8057,-1.8084,-1.8084,-1.8084,-1.8084,-1.8084,-1.7848,-1.7538,-1.7091,-1.6552,-1.6003,-1.5613,-1.5337,-1.5108,-1.5047,-1.4971,-1.4847,-1.4669,-1.4526,-1.4525,-1.461,-1.4707,-1.476,-1.481,-1.485,-1.4822,-1.4808,-1.4793,-1.4839,-1.4963]},{"header":{"parameterUnit":"m.s-1","parameterCategory":1,"la1":31.0,"la2":29.5877,"lo1":-88.7671,"lo2":-86.6584,"dy":0.0162,"dx":0.0185,"nx":115,"ny":88,"refTime":"2024-05-16T12:00:00:Z","depth":0,"parameterNumber":3,"parameterNumberName":"V-component_of_WINDS"},"data":[0.0,0.0,0.0,0.0,0.0,0.0,0.0,0.0,0.0,0.0,0.0,0.0,0.0,0.0,0.0,0.0,0.0,0.0,0.0,0.0,0.0,0.0,0.0,0.0,0.0,0.0,0.0,0.0,0.0,0.0,0.0,0.0,0.0,0.0,0.0,0.0,0.0,0.0,0.0,0.0,0.0,0.0,0.0,0.0,0.0,0.0,0.0,0.0,0.0,0.0,0.0,0.0,0.0,0.0,0.0,0.0,0.0,0.0,0.0,0.0,0.0,0.0,0.0,0.0,0.0,0.0,0.0,0.0,0.0,0.0,0.0,0.0,0.0,0.0,0.0,0.0,0.0,0.0,0.0,0.0,0.0,0.0,0.0,0.0,0.0,0.0,0.0,0.0,0.0,0.0,0.0,0.0,0.0,0.0,0.0,0.0,0.0,0.0,0.0,0.0,0.0,0.0,0.0,0.0,0.0,0.0,0.0,0.0,0.0,0.0,0.0,0.0,0.0,0.0,0.0,0.0,0.0,0.0,0.0,0.0,0.0,0.0,0.0,0.0,0.0,0.0,0.0,0.0,0.0,0.0,0.0,0.0,0.0,0.0,0.0,0.0,0.0,0.0,0.0,0.0,0.0,0.0,0.0,0.0,0.0,0.0,0.0,0.0,0.0,0.0,0.0,0.0,0.0,0.0,0.0,0.0,0.0,0.0,0.0,0.0,0.0,0.0,0.0,0.0,0.0,0.0,0.0,0.0,0.0,0.0,0.0,0.0,0.0,0.0,0.0,0.0,0.0,0.0,0.0,0.0,0.0,0.0,0.0,0.0,0.0,0.0,0.0,0.0,0.0,0.0,0.0,0.0,0.0,0.0,0.0,0.0,0.0,0.0,0.0,0.0,0.0,0.0,0.0,0.0,0.0,0.0,0.0,0.0,0.0,0.0,0.0,0.0,0.0,0.0,0.0,0.0,0.0,0.0,0.0,0.0,0.0,0.0,0.0,0.0,0.0,0.0,0.0,0.0,0.0,0.0,0.0,0.0,0.0,0.0,0.0,0.0,0.0,0.0,0.0,0.0,0.0,0.0,0.0,0.0,0.0,0.0,0.0,0.0,0.0,0.0,0.0,0.0,0.0,0.0,0.0,0.0,0.0,0.0,0.0,0.0,0.0,0.0,0.0,0.0,0.0,0.0,0.0,0.0,0.0,0.0,0.0,0.0,0.0,0.0,0.0,0.0,0.0,0.0,0.0,0.0,0.0,0.0,0.0,0.0,0.0,0.0,0.0,0.0,0.0,0.0,0.0,0.0,0.0,0.0,0.0,0.0,0.0,0.0,0.0,0.0,0.0,0.0,0.0,0.0,0.0,0.0,0.0,0.0,0.0,0.0,0.0,0.0,0.0,0.0,0.0,0.0,0.0,0.0,0.0,0.0,0.0,0.0,0.0,0.0,0.0,0.0,0.0,0.0,0.0,0.0,0.0,0.0,0.0,0.0,0.0,0.0,0.0,0.0,0.0,0.0,0.0,0.0,0.0,0.0,0.0,0.0,0.0,0.0,0.0,0.0,0.0,0.0,0.0,0.0,0.0,0.0,0.0,0.0,0.0,0.0,0.0,0.0,0.0,0.0,0.0,0.0,0.0,0.0,0.0,0.0,0.0,0.0,0.0,0.0,0.0,0.0,0.0,0.0,0.0,0.0,0.0,0.0,0.0,0.0,0.0,0.0,0.0,0.0,0.0,0.0,0.0,0.0,0.0,0.0,0.0,0.0,0.0,0.0,0.0,0.0,0.0,0.0,0.0,0.0,0.0,0.0,0.0,0.0,0.0,0.0,0.0,0.0,0.0,0.0,0.0,0.0,0.0,0.0,0.0,0.0,0.0,0.0,0.0,0.0,0.0,0.0,0.0,0.0,0.0,0.0,0.0,0.0,0.0,0.0,0.0,0.0,0.0,0.0,0.0,0.0,0.0,0.0,0.0,0.0,0.0,0.0,0.0,0.0,0.0,0.0,0.0,0.0,0.0,0.0,0.0,0.0,0.0,0.0,0.0,0.0,0.0,0.0,0.0,0.0,0.0,0.0,0.0,0.0,0.0,0.0,0.0,0.0,0.0,0.0,0.0,0.0,0.0,0.0,0.0,0.0,0.0,0.0,0.0,0.0,0.0,0.0,0.0,0.0,0.0,0.0,0.0,0.0,0.0,0.0,0.0,0.0,0.0,0.0,0.0,0.0,0.0,0.0,0.0,0.0,0.0,0.0,0.0,0.0,0.0,0.0,0.0,0.0,0.0,0.0,0.0,0.0,0.0,0.0,0.0,0.0,0.0,0.0,0.0,0.0,0.0,0.0,0.0,0.0,0.0,0.0,0.0,0.0,0.0,0.0,0.0,0.0,0.0,0.0,0.0,0.0,0.0,0.0,0.0,0.0,0.0,0.0,0.0,0.0,0.0,0.0,0.0,0.0,0.0,0.0,0.0,0.0,0.0,0.0,0.0,0.0,0.0,0.0,0.0,0.0,0.0,0.0,0.0,0.0,0.0,0.0,0.0,0.0,0.0,0.0,0.0,0.0,0.0,0.0,0.0,0.0,0.0,0.0,0.0,0.0,0.0,0.0,0.0,0.0,0.0,0.0,0.0,0.0,0.0,0.0,0.0,0.0,0.0,0.0,0.0,0.0,0.0,0.0,0.0,0.0,0.0,0.0,0.0,0.0,0.0,0.0,0.0,0.0,0.0,0.0,0.0,0.0,0.0,0.0,0.0,0.0,0.0,0.0,0.0,0.0,0.0,0.0,0.0,0.0,0.0,0.0,0.0,0.0,0.0,0.0,0.0,0.0,0.0,0.0,0.0,0.0,0.0,0.0,0.0,0.0,0.0,0.0,0.0,0.0,0.0,0.0,0.0,0.0,0.0,0.0,0.0,0.0,0.0,0.0,0.0,0.0,0.0,0.0,0.0,0.0,0.0,0.0,0.0,0.0,0.0,0.0,0.0,0.0,0.0,0.0,0.0,0.0,0.0,0.0,0.0,0.0,0.0,0.0,0.0,0.0,0.0,0.0,0.0,0.0,0.0,0.0,0.0,0.0,0.0,0.0,0.0,0.0,0.0,0.0,0.0,0.0,0.0,0.0,0.0,0.0,0.0,0.0,0.0,0.0,0.0,0.0,0.0,0.0,0.0,0.0,0.0,0.0,0.0,0.0,0.0,0.0,0.0,0.0,0.0,0.0,0.0,0.0,0.0,0.0,0.0,0.0,0.0,0.0,0.0,0.0,0.0,0.0,0.0,0.0,0.0,0.0,0.0,0.0,0.0,0.0,0.0,0.0,0.0,0.0,0.0,0.0,0.0,0.0,0.0,0.0,0.0,0.0,0.0,0.0,0.0,0.0,0.0,0.0,0.0,0.0,0.0,0.0,0.0,0.0,0.0,0.0,0.0,0.0,0.0,0.0,0.0,0.0,0.0,0.0,0.0,0.0,0.0,0.0,0.0,0.0,0.0,0.0,0.0,0.0,0.0,0.0,0.0,0.0,0.0,0.0,0.0,0.0,0.0,0.0,0.0,0.0,0.0,0.0,0.0,0.0,0.0,0.0,0.0,0.0,0.0,0.0,0.0,0.0,0.0,0.0,0.0,0.0,0.0,0.0,0.0,0.0,0.0,0.0,0.0,0.0,0.0,0.0,0.0,0.0,0.0,0.0,0.0,0.0,0.0,0.0,0.0,0.0,0.0,0.0,0.0,0.0,0.0,0.0,0.0,0.0,0.0,0.0,0.0,0.0,0.0,0.0,0.0,0.0,0.0,0.0,0.0,0.0,0.0,0.0,0.0,0.0,0.0,0.0,0.0,0.0,0.0,0.0,0.0,0.0,0.0,0.0,0.0,0.0,0.0,0.0,0.0,0.0,0.0,0.0,0.0,0.0,0.0,0.0,0.0,0.0,0.0,0.0,0.0,0.0,0.0,0.0,0.0,0.0,0.0,0.0,0.0,0.0,0.0,0.0,0.0,0.0,0.0,0.0,0.0,0.0,0.0,0.0,0.0,0.0,0.0,0.0,0.0,0.0,0.0,0.0,0.0,0.0,0.0,0.0,0.0,0.0,0.0,0.0,0.0,0.0,0.0,0.0,0.0,0.0,0.0,0.0,0.0,0.0,0.0,0.0,0.0,0.0,0.0,0.0,0.0,0.0,0.0,0.0,0.0,0.0,0.0,0.0,0.0,0.0,0.0,0.0,0.0,0.0,0.0,0.0,0.0,0.0,0.0,0.0,0.0,0.0,0.0,0.0,0.0,0.0,0.0,0.0,0.1351,0.0,0.0,0.0,0.0,0.0,0.0,0.0,0.0,0.0,0.0,0.0,0.0,0.0,0.0,0.0,0.0,0.0,0.0,0.0,0.0,0.0,0.0,0.0,0.0,0.0,0.0,0.0,0.0,0.0,0.0,0.0,0.0,0.0,0.0,0.0,0.0,0.0,0.0,0.0,0.0,0.0,0.0,0.0,0.0,0.0,0.0,0.0,0.0,0.0,0.0,0.0,0.0,0.0,0.0,0.0,0.0,0.0,0.0,0.0,0.0,0.0,0.0,0.0,0.0,0.0,0.0,0.0,0.0,0.0,0.0,0.0,0.0,0.0,0.0,0.0,0.0,0.0,0.0,0.0,0.0,0.0,0.0,0.0,0.0,0.0,0.0,0.0,0.0,0.0,0.0,0.0,0.0,0.0,0.0,0.0,0.0,0.0,0.0,0.0,0.0,0.0,0.0,0.0,0.0,0.0,0.0,0.0,0.0,0.0,0.0,0.6337,0.5065,0.3536,0.1968,0.0363,0.0,0.0,0.0,0.0,0.0,0.0,0.0,0.0,0.0,0.0,0.0,0.0,0.0,0.0,0.0,0.0,0.0,0.0,0.0,0.0,0.0,0.0,0.0,0.0,0.0,0.0,0.0,0.0,0.0,0.0,0.0,0.0,0.0,0.0,0.0,0.0,0.0,0.0,0.0,0.0,0.0,0.0,0.0,0.0,0.0,0.0,0.0,0.0,0.0,0.0,0.0,0.0,0.0,0.0,0.0,0.0,0.0,0.0,0.0,0.0,0.0,0.0,0.0,0.0,0.0,0.0,0.0,0.0,0.0,0.0,0.0,0.0,0.0,0.0,0.0,0.0,0.0,0.0,0.0,0.0,0.0,0.0,0.0,0.0,0.0,0.0,0.0,0.0,0.0,0.0,0.0,0.0,0.0,0.0,0.0,0.0,0.0,0.0,0.0,0.0,0.0,0.0,0.0,0.0,0.0,0.0,0.0,0.0,0.0,0.0,0.0,0.0,0.2991,0.1192,-0.0724,0.0,0.0,0.0,0.0,0.0,0.0,0.0,0.0,0.0,0.0,0.0,0.0,0.0,0.0,0.0,0.0,0.0,0.0,0.0,0.0,0.0,0.0,0.0,0.0,0.0,0.0,0.0,0.0,0.0,0.0,0.0,0.0,0.0,0.0,0.0,0.0,0.0,0.0,0.0,0.0,0.0,0.0,0.0,0.0,0.0,0.0,0.0,0.0,0.0,0.0,0.0,0.0,0.0,0.0,0.0,0.0,0.0,0.0,0.0,0.0,0.0,0.0,0.0,0.0,0.0,0.0,0.0,0.0,0.0,0.0,0.0,0.0,0.0,0.0,0.0,0.0,0.0,0.0,0.0,0.0,0.0,0.0,0.0,0.0,0.0,0.0,0.0,0.0,0.0,0.0,0.0,0.0,0.0,0.0,0.0,0.0,0.0,0.0,0.0,0.0,0.0,0.0,0.0,0.0,0.0,0.0,0.0,0.0,0.0,0.0,0.6003,0.4126,0.2769,0.0,-0.1414,0.0,0.0,0.0,0.0,0.0,0.0,0.0,0.0,0.0,0.0,0.0,0.0,0.0,0.0,0.0,0.0,0.0,0.0,0.0,0.0,0.0,0.0,0.0,0.0,0.0,0.0,0.0,0.0,0.0,0.0,0.0,0.0,0.0,0.0,0.0,0.0,0.0,0.0,0.0,0.0,0.0,0.0,0.0,0.0,0.0,0.0,0.0,0.0,0.0,0.0,0.0,0.0,0.0,0.0,0.0,0.0,0.0,0.0,0.0,0.0,0.0,0.0,0.0,0.0,0.0,0.0,0.0,0.0,0.0,0.0,0.0,0.0,0.0,0.0,0.0,0.0,0.0,0.0,0.0,0.0,0.0,0.0,0.0,0.0,0.0,0.0,0.0,0.0,0.0,0.0,0.0,0.0,0.0,0.0,0.0,0.0,0.0,0.0,0.0,0.0,0.0,0.0,0.0,0.0,0.0,0.0,0.0,0.0,0.0,0.0,0.5762,0.3107,0.0937,-0.0943,0.0,0.0,0.0,0.0,0.0,0.0,0.0,0.0,0.0,0.0,0.0,0.0,0.0,0.0,0.0,0.0,0.0,0.0,0.0,0.0,0.0,0.0,0.0,0.0,0.0,0.0,0.0,0.0,0.0,0.0,0.0,0.0,0.0,0.0,0.0,0.0,0.0,0.0,0.0,0.0,0.0,0.0,0.0,0.0,0.0,0.0,0.0,0.0,0.0,0.0,0.0,0.0,0.0,0.0,0.0,0.0,0.0,0.0,0.0,0.0,0.0,0.0,0.0,0.0,0.0,0.0,0.0,0.0,0.0,0.0,0.0,0.0,0.0,0.0,0.0,0.0,0.0,0.0,0.0,0.0,0.0,0.0,0.0,0.0,0.0,0.0,0.0,0.0,0.0,0.0,0.0,0.0,0.0,0.0,0.0,0.0,0.0,0.0,0.0,0.0,0.0,0.0,0.0,0.0,0.0,0.0,0.0,0.0,0.0,0.0,0.7568,0.563,0.2493,-0.0444,-0.2315,-0.2994,0.0,0.0,0.0,0.0,0.0,0.0,0.0,0.0,0.0,0.0,0.0,0.0,0.0,0.0,0.0,0.0,0.0,0.0,0.0,0.0,0.0,0.0,0.0,0.0,0.0,0.0,0.0,0.0,0.0,0.0,0.0,0.0,0.0,0.0,0.0,0.0,0.0,0.0,0.0,0.0,0.0,0.0,0.0,0.0,0.0,0.0,0.0,0.0,0.0,0.0,0.0,0.0,0.0,0.0,0.0,0.0,0.0,0.0,0.0,0.0,0.0,0.0,0.0,0.0,0.0,0.0,0.0,0.0,0.0,0.0,0.0,0.0,0.0,0.0,0.0,0.0,0.0,0.0,0.0,0.0,0.0,0.0,0.0,0.0,0.0,0.0,0.0,0.0,0.0,0.0,0.0,0.0,0.0,0.0,0.0,0.0,0.0,0.0,0.0,0.0,0.0,0.0,0.0,0.0,0.0,0.0,0.0,0.0,0.0,0.7904,0.5755,0.2549,-0.0732,-0.2514,0.0,0.0,0.0,0.0,0.0,0.0,0.0,0.0,0.0,0.0,0.0,0.0,0.0,0.0,0.0,0.0,0.0,0.0,0.0,0.0,0.0,0.0,0.0,0.0,0.0,0.0,0.0,0.0,0.0,0.0,0.0,0.0,0.0,0.0,0.0,0.0,0.0,0.0,0.0,0.0,0.0,0.0,0.0,0.0,0.0,0.0,0.0,0.0,0.0,0.0,0.0,0.0,0.0,0.0,0.0,0.0,0.0,0.0,0.0,0.0,0.0,0.0,0.0,0.0,0.0,0.0,0.0,0.0,0.0,0.0,0.0,0.0,0.0,0.0,0.0,0.0,0.0,0.0,0.0,0.0,0.0,0.0,0.0,0.0,0.0,0.0,0.0,0.0,0.0,0.0,0.0,0.0,0.0,0.0,0.0,0.0,0.0,0.0,0.0,0.0,0.0,0.0,0.0,0.0,0.0,0.0,0.0,0.0,0.0,0.8668,0.5624,0.3465,0.2331,-0.0492,-0.2395,0.0,0.0,0.0,0.0,0.0,0.0,0.0,0.0,0.0,0.0,0.0,0.0,0.0,0.0,0.0,0.0,0.0,0.0,0.0,0.0,0.0,0.0,0.0,0.0,0.0,0.0,0.0,0.0,0.0,0.0,0.0,0.0,0.0,0.0,0.0,0.0,0.0,0.0,0.0,0.0,0.0,0.0,0.0,0.0,0.0,0.0,0.0,0.0,0.0,0.0,0.0,0.0,0.0,0.0,0.0,0.0,0.0,0.0,0.0,0.0,0.0,0.0,0.0,0.0,0.0,0.0,0.0,0.0,0.0,0.0,0.0,0.0,0.0,0.0,0.0,0.0,0.0,0.0,0.0,0.0,0.0,0.0,0.0,0.0,0.0,0.0,0.0,0.0,0.0,0.0,0.0,0.0,0.0,0.0,0.0,0.0,0.0,0.0,0.0,0.0,0.0,0.0,0.0,0.0,0.0,0.0,0.0,0.0,0.0,0.8113,0.0,0.2405,0.0,-0.039,-0.2445,0.0,0.0,0.0,0.0,0.0,0.0,0.0,0.0,0.0,0.0,0.0,0.0,0.0,0.0,0.0,0.0,0.0,0.0,0.0,0.0,0.0,0.0,0.0,0.0,0.0,0.0,0.0,0.0,0.0,0.0,0.0,0.0,0.0,0.0,0.0,0.0,0.0,0.0,0.0,0.0,0.0,0.0,0.0,0.0,0.0,0.0,0.0,0.0,0.0,0.0,0.0,0.0,0.0,0.0,0.0,0.0,0.0,0.0,0.0,0.0,0.0,0.0,0.0,0.0,0.0,0.0,0.0,0.0,0.0,0.0,0.0,0.0,0.0,0.0,0.0,0.0,0.0,0.0,0.0,0.0,0.0,0.0,0.0,0.0,0.0,0.0,0.0,0.0,0.0,0.0,0.0,0.0,0.0,0.0,0.0,0.0,0.0,0.0,0.0,0.0,0.0,0.0,0.0,0.0,0.0,0.0,0.0,0.0,0.9845,0.7567,0.4506,0.2808,0.2782,-0.0494,-0.269,0.0,0.0,0.0,0.0,0.0,0.0,0.0,0.0,0.0,0.0,0.0,0.0,0.0,0.0,0.0,0.0,0.0,0.0,0.0,0.0,0.0,0.0,0.0,0.0,0.0,0.0,0.0,0.0,0.0,0.0,0.0,0.0,0.0,0.0,0.0,0.0,0.0,0.0,0.0,0.0,0.0,0.0,0.0,0.0,0.0,0.0,0.0,0.0,0.0,0.0,0.0,0.0,0.0,0.0,0.0,0.0,0.0,0.0,0.0,0.0,0.0,0.0,0.0,0.0,0.0,0.0,0.0,0.0,0.0,0.0,0.0,0.0,0.0,0.0,0.0,0.0,0.0,0.0,0.0,0.0,0.0,0.0,0.0,0.0,0.0,0.0,0.0,0.0,0.0,0.0,0.0,0.0,0.0,0.0,0.0,0.0,0.0,0.0,0.0,0.0,0.0,0.0,0.0,0.0,0.0,0.0,0.0,0.0,0.0,0.6641,0.4054,0.2187,0.1053,-0.0997,-0.2908,0.0,0.0,0.0,0.0,0.0,0.0,0.0,0.0,0.0,0.0,0.0,0.0,0.0,0.0,0.0,0.0,0.0,0.0,0.0,0.0,0.0,0.0,0.0,0.0,0.0,0.0,0.0,0.0,0.0,0.0,0.0,0.0,0.0,0.0,0.0,0.0,0.0,0.0,0.0,0.0,0.0,0.0,0.0,0.0,0.0,0.0,0.0,0.0,0.0,0.0,0.0,0.0,0.0,0.0,0.0,0.0,0.0,0.0,0.0,0.0,0.0,0.0,0.0,0.0,0.0,0.0,0.0,0.0,0.0,0.0,0.0,0.0,0.0,0.0,0.0,0.0,0.0,0.0,0.0,0.0,0.0,0.0,0.0,0.0,0.0,0.0,0.0,0.0,0.0,0.0,0.0,0.0,0.0,0.0,0.0,0.0,0.0,0.0,0.0,0.0,0.0,0.0,0.0,0.0,0.0,0.0,0.0,0.0,0.0,0.572,0.3841,0.2024,0.0356,-0.1192,-0.3043,-0.5119,0.0,0.0,0.0,0.0,0.0,0.0,0.0,0.0,0.0,0.0,0.0,0.0,0.0,0.0,0.0,0.0,0.0,0.0,0.0,0.0,0.0,0.0,0.0,0.0,0.0,0.0,0.0,0.0,0.0,0.0,0.0,0.0,0.0,0.0,0.0,0.0,0.0,0.0,0.0,0.0,0.0,0.0,0.0,0.0,0.0,0.0,0.0,0.0,0.0,0.0,0.0,0.0,0.0,0.0,0.0,0.0,0.0,0.0,0.0,0.0,0.0,0.0,0.0,0.0,0.0,0.0,0.0,0.0,0.0,0.0,0.0,0.0,0.0,0.0,0.0,0.0,0.0,0.0,0.0,0.0,0.0,0.0,0.0,0.0,0.0,0.0,0.0,0.0,0.0,0.0,0.0,0.0,0.0,0.0,0.0,0.0,0.0,0.0,0.0,0.0,0.0,0.0,0.0,0.0,0.0,0.0,0.0,0.0,0.4863,0.3753,0.2242,0.0406,-0.1202,-0.3098,0.0,0.0,0.0,0.0,0.0,0.0,0.0,0.0,0.0,0.0,0.0,0.0,0.0,0.0,0.0,0.0,0.0,0.0,0.0,0.0,0.0,0.0,0.0,0.0,0.0,0.0,0.0,0.0,0.0,0.0,0.0,0.0,0.0,0.0,0.0,0.0,0.0,0.0,0.0,0.0,0.0,0.0,0.0,0.0,0.0,0.0,0.0,0.0,0.0,0.0,0.0,0.0,0.0,0.0,0.0,0.0,0.0,0.0,0.0,0.0,0.0,0.0,0.0,0.0,0.0,0.0,0.0,0.0,0.0,0.0,0.0,0.0,0.0,0.0,0.0,0.0,0.0,0.0,0.0,0.0,0.0,0.0,0.0,0.0,0.0,0.0,0.0,0.0,0.0,0.0,0.0,0.0,0.0,0.0,0.0,0.0,0.0,0.0,0.0,0.0,0.0,0.0,0.0,0.0,0.0,0.0,0.0,0.0,0.0,0.4038,0.3133,0.1513,-0.0872,-0.1432,-0.3052,0.0,0.0,0.0,0.0,0.0,0.0,0.0,0.0,0.0,0.0,0.0,0.0,0.0,0.0,0.0,0.0,0.0,0.0,0.0,0.0,0.0,0.0,0.0,0.0,0.0,0.0,0.0,0.0,0.0,0.0,0.0,0.0,0.0,0.0,0.0,0.0,0.0,0.0,0.0,0.0,0.0,0.0,0.0,0.0,0.0,0.0,0.0,0.0,0.0,0.0,0.0,0.0,0.0,0.0,0.0,0.0,0.0,0.0,0.0,0.0,0.0,0.0,0.0,0.0,0.0,0.0,0.0,0.0,0.0,0.0,0.0,0.0,0.0,0.0,0.0,0.0,0.0,0.0,0.0,0.0,0.0,0.0,0.0,0.0,0.0,0.0,0.0,0.0,0.0,0.0,0.0,0.0,0.0,0.0,0.0,0.0,0.0,0.0,0.0,0.0,0.0,0.0,0.0,0.0,0.0,0.0,0.0,0.0,0.5433,0.3926,0.27,0.0945,-0.1362,-0.1518,-0.3023,0.0,0.0,0.0,0.0,0.0,0.0,0.0,0.0,0.0,0.0,0.0,0.0,0.0,0.0,0.0,0.0,0.0,0.0,0.0,0.0,0.0,0.0,0.0,0.0,0.0,0.0,0.0,0.0,0.0,0.0,0.0,0.0,0.0,0.0,0.0,0.0,0.0,0.0,0.0,0.0,0.0,0.0,0.0,0.0,0.0,0.0,0.0,0.0,0.0,0.0,0.0,0.0,0.0,0.0,0.0,0.0,0.0,0.0,0.0,0.0,0.0,0.0,0.0,0.0,0.0,0.0,0.0,0.0,0.0,0.0,0.0,0.0,0.0,0.0,0.0,0.0,0.0,0.0,0.0,0.0,0.0,0.0,0.0,0.0,0.0,0.0,0.0,0.0,0.0,0.0,0.0,0.0,0.0,0.0,0.0,0.0,0.0,0.0,0.0,0.0,0.0,0.0,0.0,0.0,0.0,0.0,0.0,0.0,0.4592,0.4253,0.2407,0.0531,-0.1211,-0.1516,-0.296,0.0,0.0,0.0,0.0,0.0,0.0,0.0,0.0,0.0,0.0,0.0,0.0,0.0,0.0,0.0,0.0,0.0,0.0,0.0,0.0,0.0,0.0,0.0,0.0,0.0,0.0,0.0,0.0,0.0,0.0,0.0,0.0,0.0,0.0,0.0,0.0,0.0,0.0,0.0,0.0,0.0,0.0,0.0,0.0,0.0,0.0,0.0,0.0,0.0,0.0,0.0,0.0,0.0,0.0,0.0,0.0,0.0,0.0,0.0,0.0,0.0,0.0,0.0,0.0,0.0,0.0,0.0,0.0,0.0,0.0,0.0,0.0,0.0,0.0,0.0,0.0,0.0,0.0,0.0,0.0,0.0,0.0,0.0,0.0,0.0,0.0,0.0,0.0,0.0,0.0,0.0,0.0,0.0,0.0,0.0,0.0,0.0,0.0,0.0,0.0,0.0,0.0,0.0,0.0,0.0,0.0,0.0,0.0,0.4675,0.3908,0.2251,0.0562,-0.1185,-0.1183,-0.2581,0.0,0.0,0.0,0.0,0.0,0.0,0.0,0.0,0.0,0.0,0.0,0.0,0.0,0.0,0.0,0.0,0.0,0.0,0.0,0.0,0.0,0.0,0.0,0.0,0.0,0.0,0.0,0.0,0.0,0.0,0.0,0.0,0.0,0.0,0.0,0.0,0.0,0.0,0.0,0.0,0.0,0.0,0.0,0.0,0.0,0.0,0.0,0.0,-0.9429,0.0,0.0,0.0,0.0,0.0,0.0,0.0,0.0,0.0,0.0,0.0,0.0,0.0,0.0,0.0,0.0,0.0,0.0,0.0,0.0,0.0,0.0,0.0,0.0,0.0,0.0,0.0,0.0,0.0,0.0,0.0,0.0,0.0,0.0,0.0,0.0,0.0,0.0,0.0,0.0,0.0,0.0,0.0,0.0,0.0,0.0,0.0,0.0,0.0,0.0,0.0,0.0,0.0,0.0,0.0,0.0,0.0,0.0,0.0,0.4442,0.4017,0.232,0.0567,-0.1153,-0.1127,-0.2432,0.0,0.0,0.0,0.0,0.0,0.0,0.0,0.0,0.0,0.0,0.0,0.0,0.0,0.0,0.0,0.0,0.0,0.0,0.0,0.0,0.0,0.0,0.0,0.0,0.0,0.0,0.0,0.0,0.0,0.0,0.0,0.0,0.0,0.0,0.0,0.0,0.0,0.0,0.0,0.0,0.0,0.0,0.0,0.0,0.0,0.0,0.0,0.0,0.0,0.0,0.0,0.0,0.0,0.0,0.0,0.0,0.0,0.0,0.0,0.0,0.0,0.0,0.0,0.0,0.0,0.0,0.0,0.0,0.0,0.0,0.0,0.0,0.0,0.0,0.0,0.0,0.0,0.0,0.0,0.0,0.0,0.0,0.0,0.0,0.0,0.0,0.0,0.0,0.0,0.0,0.0,0.0,0.0,0.0,0.0,0.0,0.0,0.0,0.0,0.0,0.0,0.0,0.0,0.0,0.0,0.0,0.0,0.5532,0.4088,0.4194,0.2418,0.062,-0.1037,-0.1146,-0.233,-0.4773,0.0,0.0,0.0,0.0,0.0,0.0,0.0,0.0,0.0,0.0,0.0,0.0,0.0,0.0,0.0,0.0,0.0,0.0,0.0,0.0,0.0,0.0,0.0,0.0,0.0,0.0,0.0,0.0,0.0,0.0,0.0,0.0,0.0,0.0,0.0,0.0,0.0,0.0,0.217,0.1599,0.0,0.0,0.0,0.0,0.0,0.0,0.0,0.0,-0.9498,0.0,0.0,0.0,0.0,0.0,0.0,0.0,0.0,0.0,0.0,0.0,0.0,0.0,0.0,0.0,0.0,0.0,0.0,0.0,0.0,0.0,0.0,0.0,0.0,0.0,0.0,0.0,0.0,0.0,0.0,0.0,0.0,0.0,0.0,0.0,0.0,0.0,0.0,0.0,0.0,0.0,0.0,0.0,0.0,0.0,0.0,0.0,0.0,0.0,0.0,0.0,0.0,0.0,0.0,0.0,0.0,0.8953,0.5488,0.388,0.4237,0.2373,0.0924,-0.0085,-0.0841,-0.2088,-0.3901,0.0,0.0,0.0,0.0,0.0,0.0,0.0,0.0,0.0,0.0,0.0,0.0,0.0,0.0,0.0,0.0,0.0,0.0,0.0,0.0,0.0,0.0,0.0,0.0,0.0,0.0,0.0,0.0,0.0,0.0,0.0,0.0,0.0,0.0,0.0,0.0,0.0,0.0,0.0,0.2547,0.1197,0.0,0.0,0.0,0.0,0.0,0.0,0.0,0.0,-0.9918,0.0,0.0,0.0,0.0,0.0,0.0,0.0,0.0,0.0,0.0,0.0,0.0,0.0,0.0,0.0,0.0,0.0,0.0,0.0,0.0,0.0,0.0,0.0,0.0,0.0,0.0,0.0,0.0,0.0,0.0,0.0,0.0,0.0,0.0,0.0,0.0,0.0,0.0,0.0,0.0,0.0,0.0,0.0,0.0,0.0,0.0,0.0,0.0,0.0,0.0,0.0,0.0,0.0,0.0,0.0,0.8536,0.5551,0.407,0.4239,0.2418,0.0966,0.0126,-0.0665,-0.1942,0.0,0.0,0.0,0.0,0.0,0.0,0.0,0.0,0.0,0.0,0.0,0.0,0.0,0.0,0.0,0.0,0.0,0.0,0.0,0.0,0.0,0.0,0.0,0.0,0.0,0.0,0.0,0.0,0.0,0.0,0.0,0.0,0.0,0.0,0.0,0.0,0.0,0.0,0.0,0.0,0.2144,0.1105,-0.0403,0.0,0.0,0.0,0.0,0.0,0.0,-0.7804,-0.8585,0.0,0.0,0.0,0.0,0.0,0.0,0.0,0.0,0.0,0.0,0.0,0.0,0.0,0.0,0.0,0.0,0.0,0.0,0.0,0.0,0.0,0.0,0.0,0.0,0.0,0.0,0.0,0.0,0.0,0.0,0.0,0.0,0.0,0.0,0.0,0.0,0.0,0.0,0.0,0.0,0.0,0.0,0.0,0.0,0.0,0.0,0.0,0.0,0.0,0.0,0.0,0.0,0.0,0.0,0.0,0.8246,0.5787,0.4418,0.4217,0.2634,0.1315,0.0418,-0.0288,-0.1497,0.0,0.0,0.0,0.0,0.0,0.0,0.0,0.0,0.0,0.0,0.0,0.0,0.0,0.0,0.0,0.0,0.0,0.0,0.0,0.0,0.0,0.0,0.0,0.0,0.0,0.0,0.0,0.0,0.0,0.0,0.0,0.0,0.0,0.0,0.0,0.0,0.0,0.0,0.0,0.0,0.0,0.0724,-0.0207,-0.1667,0.0,0.0,0.0,0.0,-0.7136,-0.7032,0.0,0.0,0.0,0.0,0.0,0.0,0.0,0.0,0.0,0.0,0.0,0.0,0.0,0.0,0.0,0.0,0.0,0.0,0.0,0.0,0.0,0.0,0.0,0.0,0.0,0.0,0.0,0.0,0.0,0.0,0.0,0.0,0.0,0.0,0.0,0.0,0.0,0.0,0.0,0.0,0.0,0.0,0.0,0.0,0.0,0.0,0.0,0.0,0.0,0.0,0.0,0.0,0.0,0.0,0.0,0.0,0.8223,0.6228,0.4852,0.421,0.3413,0.2482,0.1475,0.0871,-0.016,0.0,0.0,0.0,0.0,0.0,0.0,0.0,0.0,0.0,0.0,0.0,0.0,0.0,0.0,0.0,0.0,0.0,0.0,0.0,0.0,0.0,0.0,0.0,0.0,0.0,0.0,0.0,0.0,0.0,0.0,0.0,0.0,0.0,0.0,0.0,0.0,0.0,0.0,0.0,0.0,0.0,0.0332,-0.1184,-0.2306,-0.3318,0.0,0.0,-0.6384,-0.6649,-0.7154,0.0,0.0,0.0,0.0,0.0,0.0,0.0,0.0,0.0,0.0,0.0,0.0,0.0,0.0,0.0,0.0,0.0,0.0,0.0,0.0,0.0,0.0,0.0,0.0,0.0,0.0,0.0,0.0,0.0,0.0,0.0,0.0,0.0,0.0,0.0,0.0,0.0,0.0,0.0,0.0,0.0,0.0,0.0,0.0,0.0,0.0,0.0,0.0,0.0,0.0,0.0,0.0,0.0,0.0,0.0,0.8093,0.8228,0.6402,0.5097,0.4411,0.3587,0.2705,0.1791,0.1119,0.0154,0.0,0.0,0.0,0.0,0.0,0.0,0.0,0.0,0.0,0.0,0.0,0.0,0.0,0.0,0.0,0.0,0.0,0.0,0.0,0.0,0.0,0.0,0.0,0.0,0.0,0.0,0.0,0.0,0.0,0.0,0.0,0.0,0.0,0.0,0.0,0.0,0.0,0.0,0.0,0.0,0.0,0.0,-0.076,-0.1544,0.0,0.0,0.0,-0.5481,-0.615,0.0,0.0,0.0,0.0,0.0,0.0,0.0,0.0,0.0,0.0,0.0,0.0,0.0,0.0,0.0,0.0,0.0,0.0,0.0,0.0,0.0,0.0,0.0,0.0,0.0,0.0,0.0,0.0,0.0,0.0,0.0,0.0,0.0,0.0,0.0,0.0,0.0,0.0,0.0,0.0,0.0,0.0,0.0,0.0,0.0,0.0,0.0,0.0,0.0,0.0,0.0,0.0,0.0,0.0,0.0,0.0,0.0,0.8312,0.674,0.5605,0.4895,0.4028,0.3152,0.2317,0.1549,0.0,0.0,0.0,0.0,0.0,0.0,0.0,0.0,0.0,0.0,0.0,0.0,0.0,0.0,0.0,0.0,0.0,0.0,0.0,0.0,0.0,0.0,0.0,0.0,0.0,0.0,0.0,0.0,0.0,0.0,0.0,0.0,0.0,0.0,0.0,0.0,0.0,0.0,0.0,0.0,0.0,0.0,-0.0383,-0.0393,-0.092,-0.1753,0.0,0.0,-0.4765,-0.5874,-0.5774,-0.5843,0.0,0.0,0.0,0.0,0.0,0.0,0.0,0.0,0.0,0.0,0.0,0.0,0.0,0.0,0.0,0.0,0.0,0.0,0.0,0.0,0.0,0.0,0.0,0.0,0.0,0.0,0.0,0.0,0.0,0.0,0.0,0.0,0.0,0.0,0.0,0.0,0.0,0.0,0.0,0.0,0.0,0.0,0.0,0.0,0.0,0.0,0.0,0.0,0.0,0.0,0.0,0.0,0.0,0.0,0.0,0.8346,0.7601,0.6682,0.573,0.5188,0.4353,0.3351,0.2709,0.1892,0.0,0.0,0.0,0.0,0.0,0.0,0.0,0.0,0.0,0.0,0.0,0.0,0.0,0.0,0.0,0.0,0.0,0.0,0.0,0.0,0.0,0.0,0.0,0.0,0.0,0.0,0.0,0.0,0.0,0.0,0.0,0.0,0.0,0.0,0.0,0.0,0.0,0.0,0.0,0.0,0.0,-0.0599,-0.0668,-0.1074,-0.1801,0.0,-0.3954,-0.484,-0.5897,-0.5978,-0.5805,-0.5538,0.0,0.0,0.0,0.0,0.0,0.0,0.0,0.0,0.0,0.0,0.0,0.0,0.0,0.0,0.0,0.0,0.0,0.0,0.0,0.0,0.0,0.0,0.0,0.0,0.0,0.0,0.0,0.0,0.0,0.0,0.0,0.0,0.0,0.0,0.0,0.0,0.0,0.0,0.0,0.0,0.0,0.0,0.0,0.0,0.0,0.0,0.0,0.0,0.0,0.0,0.0,0.0,0.0,0.8929,0.8419,0.8095,0.7327,0.6104,0.5832,0.5076,0.363,0.3355,0.2609,0.0,0.0,0.0,0.0,0.0,0.0,0.0,0.0,0.0,0.0,0.0,0.0,0.0,0.0,0.0,0.0,0.0,0.0,0.0,0.0,0.0,0.0,0.0,0.0,0.0,0.0,0.0,0.0,0.0,0.0,0.0,0.0,0.0,0.0,0.0,0.0,0.0,0.0,0.0,0.0,0.0,-0.0434,-0.0447,-0.0499,0.0,0.0,-0.3183,-0.4211,-0.525,-0.57,-0.5831,-0.5616,-0.5733,0.0,0.0,0.0,0.0,0.0,0.0,0.0,0.0,0.0,0.0,0.0,0.0,0.0,0.0,0.0,0.0,0.0,0.0,0.0,0.0,0.0,0.0,0.0,0.0,0.0,0.0,0.0,0.0,0.0,0.0,0.0,0.0,0.0,0.0,0.0,0.0,0.0,0.0,0.0,0.0,0.0,0.0,0.0,0.0,0.0,0.0,0.0,0.0,0.0,0.0,0.0,0.0,0.927,0.8541,0.8377,0.7727,0.6594,0.636,0.5634,0.4412,0.4173,0.3381,0.0,0.0,0.0,0.0,0.0,0.0,0.0,0.0,0.0,0.0,0.0,0.0,0.0,0.0,0.0,0.0,0.0,0.0,0.0,0.0,0.0,0.0,0.0,0.0,0.0,0.0,0.0,0.0,0.0,0.0,0.0,0.0,0.0,0.0,0.0,0.0,0.0,0.0,0.0,0.0,0.0,-0.0308,-0.0316,-0.0137,-0.0413,-0.1523,-0.2296,-0.3185,-0.4214,-0.4993,-0.537,-0.5184,0.0,0.0,0.0,0.0,0.0,0.0,0.0,0.0,0.0,0.0,0.0,0.0,0.0,0.0,0.0,0.0,0.0,0.0,0.0,0.0,0.0,0.0,0.0,0.0,0.0,0.0,0.0,0.0,0.0,0.0,1.1459,0.0,0.0,0.0,0.0,0.0,0.0,0.0,0.0,0.0,0.0,0.0,0.0,0.0,0.0,0.0,0.0,0.0,0.0,0.0,0.0,0.0,0.0,0.9304,0.8825,0.8493,0.8067,0.7484,0.6637,0.6112,0.5833,0.5208,0.4328,0.32,0.0,0.0,0.0,0.0,0.0,0.0,0.0,0.0,0.0,0.0,0.0,0.0,0.0,0.0,0.0,0.0,0.0,0.0,0.0,0.0,0.0,0.0,0.0,0.0,0.0,0.0,0.0,0.0,0.0,0.0,0.0,0.0,0.0,0.0,0.0,0.0,0.0,0.0,0.0,0.0211,-0.0309,-0.0367,-0.0137,-0.0317,-0.1242,-0.1454,-0.1794,-0.2822,-0.3712,-0.4232,0.0,0.0,0.0,0.0,0.0,0.0,0.0,0.0,0.0,0.0,0.0,0.0,0.0,0.0,0.0,0.0,0.0,0.0,0.0,0.0,0.0,0.0,0.0,0.0,0.0,0.0,0.0,1.299,1.2804,0.0,0.0,0.0,0.0,0.0,0.0,0.0,0.0,0.0,0.0,0.0,1.3838,1.3421,0.0,0.0,0.0,0.0,0.0,0.0,0.0,0.0,0.0,0.0,0.0,0.0,1.0184,0.9625,0.9252,0.8857,0.8313,0.7476,0.6757,0.614,0.5862,0.5251,0.4172,0.0,0.0,0.0,0.0,0.0,0.0,0.0,0.0,0.0,0.0,0.0,0.0,0.0,0.0,0.0,0.0,0.0,0.0,0.0,0.0,0.0,0.0,0.0,0.0,0.0,0.0202,0.0,0.0,0.0,0.0,0.0,0.0,0.0,0.0,0.0,0.0,0.0,0.2386,0.1293,0.0984,0.058,-0.0045,-0.0091,-0.0183,0.0,0.0,0.0,0.0,0.0,0.0,0.0,0.0,0.0,0.0,0.0,0.0,0.0,0.0,-0.7438,-0.6837,-0.6829,-0.7007,-0.7193,0.0,0.0,0.0,0.0,0.0,0.0,0.0,0.0,0.0,0.0,0.0,0.0,0.0,0.0,1.4063,0.0,1.3772,0.0,0.0,0.0,0.0,0.0,0.0,0.0,0.0,1.4874,1.5212,1.5422,1.5015,1.4852,0.0,1.4872,1.358,0.0,0.0,0.0,0.0,0.0,0.0,0.0,0.0,1.0553,0.9948,0.9808,0.9321,0.8477,0.8027,0.7372,0.6504,0.6224,0.5765,0.5058,0.4134,0.345,0.0,0.0,0.0,0.0,0.0,0.0,0.0,0.0,0.0,0.0,0.0,0.0,0.0,0.0,0.0,0.0,0.0,0.0,0.0,0.0,0.0,0.0,0.0,0.074,0.0,0.0,0.0,0.0,0.0,0.0,0.0,0.0,0.0,0.4041,0.3863,0.3285,0.1945,0.1565,0.1077,0.0135,0.0,0.0,0.0,0.0,0.0,0.0,0.0,-0.2446,-0.2408,-0.3031,-0.3634,-0.3876,-0.4802,-0.5651,-0.5928,0.0,0.0,-0.5996,-0.6061,-0.6201,-0.6458,-0.6698,-0.6903,-0.6975,-0.7394,-0.773,0.0,0.0,0.0,0.0,0.0,0.0,0.0,0.0,1.4575,1.4685,0.0,1.433,0.0,0.0,0.0,0.0,0.0,1.5692,0.0,0.0,1.6067,1.6365,1.6628,1.5499,1.5254,1.5818,1.5617,1.4985,1.3914,1.2996,0.0,0.0,0.0,0.0,0.0,0.0,1.0348,0.9868,1.0045,0.9504,0.8191,0.8269,0.7956,0.7012,0.6312,0.5953,0.5907,0.5075,0.4175,0.3223,0.2752,0.0,0.0,0.0,0.0,0.0,0.0,0.0,0.0,0.0,0.0,0.0,0.0,0.0,0.0,0.0,0.0,0.0,0.0,0.0,0.0,0.1942,0.0,0.0,0.0,0.0,0.0,0.0,0.0,0.0,0.0,0.0,0.4982,0.4365,0.3589,0.2841,0.0,0.0,0.0,0.0,0.0045,0.0045,0.0,0.0,0.0,-0.0781,-0.1323,-0.1269,0.0,0.0,-0.3977,-0.3921,-0.4118,-0.4867,-0.5065,-0.5407,-0.6577,-0.6033,-0.5576,-0.5675,-0.5565,-0.5423,-0.5576,-0.6161,-0.6556,2.1056,0.0,0.0,0.0,0.0,1.8443,1.8373,1.8176,1.8755,1.8571,1.7911,1.7698,0.0,0.0,0.0,0.0,0.0,0.0,1.6785,1.6764,1.7226,1.7519,1.7613,1.7259,1.7183,1.7369,1.7285,1.6711,1.5698,1.5235,1.3859,1.1577,0.0,0.0,0.0,0.0,1.0605,1.0613,1.0169,0.9787,0.9579,0.8624,0.7816,0.7143,0.6837,0.6702,0.6662,0.572,0.5028,0.4664,0.4043,0.0,0.0,0.0,0.0,0.0,0.0,0.0,0.0,0.0,0.0,0.0,0.0,0.0,0.0,0.0,0.0,0.0,0.0,0.0,0.2913,0.2611,0.2565,0.0,0.0,0.0,0.0,0.0,0.0,0.0,0.0,0.0,0.5287,0.5118,0.4674,0.0,0.0,0.3101,0.2063,0.1388,0.1003,0.0988,0.0429,0.0,0.0,-0.021,-0.0372,-0.0367,-0.1177,-0.2279,-0.3695,-0.3905,-0.4132,-0.4991,-0.5137,-0.5204,-0.5337,-0.5344,-0.5314,-0.5486,-0.5395,-0.5316,-0.5403,-0.5929,-0.626,2.3803,2.2143,2.1235,2.0622,2.0283,2.046,2.0422,2.0272,2.0764,2.0737,2.0281,2.0032,1.9498,1.8775,1.7464,0.0,0.0,0.0,1.7321,1.7261,1.791,1.813,1.8008,1.8008,1.8008,1.8008,1.8008,1.7581,1.6807,1.6665,1.5474,1.3304,0.0,0.0,1.1115,1.0989,1.0896,1.0822,1.0475,1.0186,0.99,0.8595,0.7737,0.7395,0.7151,0.6955,0.6886,0.6291,0.5804,0.5352,0.4935,0.4509,0.0,0.0,0.0,0.0,0.0,0.0,0.0,0.0,0.0,0.0,0.0,0.3328,0.3141,0.0,0.0,0.0,0.3856,0.3899,0.398,0.3641,0.0,0.0,0.0,0.0,0.0,0.0,0.0,0.4752,0.5277,0.5729,0.5762,0.576,0.5328,0.4183,0.4184,0.3947,0.294,0.0,0.1771,0.145,0.0888,0.0378,0.0,0.0,0.0,0.0,-0.041,-0.124,-0.2551,-0.2957,-0.3408,-0.4303,-0.4804,-0.4991,-0.4798,-0.4831,-0.4904,-0.5122,-0.5099,-0.5058,-0.5185,-0.558,-0.5767,2.5574,2.5045,2.2941,2.1961,2.1822,2.1856,2.1856,2.1789,2.1484,2.1716,2.2328,2.1538,2.1096,2.0818,1.8786,0.0,1.8093,1.8102,1.7982,1.7708,1.8375,1.8478,1.8086,1.8032,1.8008,1.8008,1.8008,1.7812,1.7451,1.7432,1.6829,1.5633,1.4339,1.3115,1.1987,1.1823,1.1377,1.0719,1.1004,1.0614,0.9562,0.8489,0.7875,0.785,0.7333,0.7035,0.6906,0.6945,0.6578,0.5745,0.5728,0.5385,0.4573,0.0,0.0,0.0,0.0,0.0,0.0,0.0,0.0,0.0,0.0,0.0,0.0,0.0,0.0,0.0,0.5346,0.0,0.5662,0.4945,0.0,0.0,0.0,0.4981,0.5403,0.5802,0.5983,0.5774,0.0,0.0,0.6285,0.6183,0.5725,0.461,0.4433,0.4117,0.3217,0.2983,0.2515,0.1815,0.1487,0.1082,0.0327,0.0,0.0,0.0,0.0,0.0,-0.1226,-0.1621,-0.2232,-0.3365,-0.4207,-0.4737,-0.4634,-0.4518,-0.4538,-0.4677,-0.4651,-0.4728,-0.4997,-0.5126,-0.5246,2.6968,2.6457,2.5347,2.4072,2.2728,2.3298,2.3226,2.2779,2.3826,2.384,2.3127,2.2993,2.2398,2.1468,2.0924,2.0748,2.077,2.0771,2.0518,2.0078,1.9692,1.924,1.8731,1.8236,1.8008,1.8008,1.8008,1.7959,1.7861,1.7861,1.7537,1.6965,1.6431,1.5197,1.3257,1.3461,1.298,1.1686,1.2084,1.1507,0.9945,0.9739,0.9449,0.8941,0.8191,0.8054,0.8643,0.7906,0.763,0.7892,0.7938,0.7705,0.7281,0.6557,0.0,0.0,0.0,0.0,0.0,0.0,0.0,0.0,0.0,0.4761,0.4991,0.0,0.5491,0.0,0.6002,0.641,0.6244,0.665,0.0,0.0,0.7397,0.7347,0.6885,0.7284,0.7237,0.6337,0.6405,0.6451,0.6328,0.6308,0.6251,0.5941,0.5591,0.5252,0.4908,0.4309,0.3793,0.3435,0.2785,0.2041,0.1099,0.0413,0.0,0.0,0.0,0.0,-0.1233,-0.1649,-0.2069,-0.284,-0.3986,-0.4447,-0.3854,-0.4137,-0.4436,-0.443,-0.4515,-0.4625,-0.4691,-0.4924,-0.5153,2.7914,2.7294,2.6654,2.5552,2.4324,2.4647,2.4492,2.4095,2.4945,2.4897,2.4249,2.4049,2.3583,2.2926,2.2388,2.2149,2.2137,2.2026,2.1721,2.1247,2.1029,2.052,1.9815,1.9151,1.8676,1.8438,1.8134,1.8008,1.8008,1.8008,1.7891,1.7666,1.7546,1.6769,1.5335,1.4932,1.4067,1.2742,1.279,1.2179,1.0937,1.0707,1.0276,0.9539,0.875,0.8551,0.9008,0.8451,0.8318,0.8672,0.8705,0.858,0.8348,0.7875,0.7519,0.0,0.0,0.0,0.0,0.0,0.0,0.0,0.0,0.0,0.0,0.0,0.665,0.6608,0.7058,0.7312,0.715,0.7628,0.7933,0.7948,0.8236,0.8333,0.8128,0.8295,0.8253,0.7777,0.7724,0.7651,0.7575,0.7629,0.7465,0.7074,0.6788,0.6407,0.5856,0.5321,0.4832,0.4263,0.3677,0.2829,0.1586,0.0952,0.0465,0.0,0.0,-0.0173,-0.0705,-0.0941,-0.1233,-0.1901,-0.2865,-0.3595,-0.3368,-0.3912,-0.4371,-0.4358,-0.4398,-0.4495,-0.4592,-0.4755,-0.4924,2.8525,2.7878,2.7304,2.6662,2.6031,2.5795,2.5535,2.5347,2.5347,2.5312,2.5276,2.4831,2.4614,2.451,2.3511,2.3028,2.3028,2.2802,2.2453,2.2065,2.2313,2.1967,2.1129,2.0384,1.9766,1.9237,1.8644,1.8295,1.811,1.81,1.8076,1.8008,1.8008,1.7832,1.7428,1.6248,1.505,1.3897,1.338,1.2836,1.2205,1.1618,1.0933,1.0174,0.9404,0.9046,0.9084,0.8962,0.8962,0.9026,0.9026,0.902,0.8956,0.8785,0.8692,0.0,0.8396,0.0,0.0,0.0,0.0,0.0,0.0,0.0,0.0,0.7941,0.8038,0.8101,0.8208,0.8264,0.823,0.8328,0.8456,0.8532,0.8624,0.8783,0.9115,0.9135,0.9147,0.9285,0.9159,0.9077,0.9041,0.9142,0.8822,0.8116,0.7791,0.7342,0.6496,0.6089,0.5567,0.4642,0.4255,0.3447,0.2165,0.165,0.1212,0.0419,0.0,0.0084,0.0,0.0,-0.0233,-0.0869,-0.1453,-0.2051,-0.2797,-0.356,-0.4133,-0.41,-0.4197,-0.4367,-0.4495,-0.4592,-0.4658,2.8825,2.86,2.7659,2.7076,2.6762,2.627,2.5863,2.5535,2.5535,2.5465,2.53,2.5204,2.5155,2.512,2.4907,2.4801,2.4801,2.4755,2.4483,2.3952,2.3479,2.2948,2.2343,2.1661,2.1076,2.0563,2.0396,1.9811,1.8821,1.8821,1.8563,1.8008,1.8008,1.7969,1.7891,0.0,0.0,0.0,1.4397,1.3678,1.3238,1.31,1.2696,1.2012,1.1176,0.0,1.1007,1.037,1.0237,1.0762,1.0787,0.0,0.0,0.0,0.0,0.0,0.0,0.0,0.0,0.0,0.0,0.0,1.0154,0.961,0.8446,0.8254,0.8134,0.8055,0.8699,0.9047,0.8859,0.9621,1.0047,0.9877,1.0289,1.0333,0.9696,0.9927,0.9938,0.9233,0.9121,0.9112,0.9144,0.9101,0.9083,0.8877,0.8292,0.7768,0.7359,0.6685,0.6118,0.5645,0.4706,0.3867,0.3415,0.2641,0.1914,0.1224,0.0965,0.0678,0.0,0.0,0.0,0.0,-0.0322,-0.0659,-0.1418,-0.2515,-0.342,-0.3387,-0.3894,-0.43,-0.4334,-0.4495,-0.4625,3.0099,0.0,2.8967,2.8364,0.0,2.7079,2.6667,2.638,2.5921,2.5641,2.5453,2.5347,2.5312,2.5312,2.5312,2.5312,2.5312,2.5312,2.5168,2.488,2.4554,2.3966,2.3236,2.2525,2.1767,2.0994,2.0654,2.0171,1.9573,1.9529,1.9386,1.9065,1.9054,1.9054,1.9021,1.8697,1.7866,1.6621,1.5597,1.4802,1.4306,1.4111,1.3623,1.2879,1.2427,0.0,0.0,0.0,0.0,0.0,0.0,0.0,0.0,0.0,0.0,1.1803,1.11,1.0691,1.0719,1.0618,1.0585,1.0699,1.0624,1.0301,0.9588,0.9448,0.9367,0.9373,0.9778,0.9934,0.9741,1.0322,1.0692,1.0585,1.0853,1.0912,1.0803,1.0764,1.0611,1.0199,0.9947,0.9905,0.9881,1.0002,0.9917,0.9662,0.9368,0.877,0.7789,0.6895,0.623,0.5931,0.5361,0.4596,0.3942,0.3521,0.2818,0.1954,0.1422,0.1066,0.0616,0.0225,0.0,0.0,0.0,0.0,-0.0979,-0.198,-0.2648,-0.2714,-0.3251,-0.3725,-0.3792,-0.4125,-0.4464,3.1441,3.0454,3.0317,2.965,2.861,2.796,2.7584,2.7351,0.0,0.0,0.0,2.5418,2.5347,2.5347,2.53,2.5312,2.5312,2.5312,2.5312,2.53,2.5216,2.4711,2.3917,2.3204,2.2389,2.1455,2.0888,2.0509,2.0269,2.0258,2.0226,2.0128,2.0096,2.0096,2.0063,1.9507,1.8769,1.7888,1.6778,1.5888,1.5303,1.4891,1.4252,1.3433,1.3433,1.3373,1.3252,1.3161,1.313,1.3252,1.313,1.3161,1.3252,1.3252,1.3312,1.3433,1.3304,1.297,1.2481,1.2143,1.1717,1.1139,1.0989,1.0839,1.0618,1.0586,1.0623,1.0666,1.0686,1.0633,1.0526,1.0755,1.0974,1.1019,1.1056,1.1302,1.1645,1.1372,1.1046,1.1011,1.0735,1.0628,1.0599,1.0736,1.0785,1.0264,1.0053,0.966,0.8051,0.6853,0.62,0.6062,0.5744,0.5271,0.4437,0.4138,0.3762,0.2679,0.2079,0.1592,0.1135,0.0502,0.0,0.0,0.0,0.0,-0.0774,-0.1444,-0.1879,-0.1946,-0.2515,-0.3015,-0.3049,-0.3589,-0.4097,3.1983,3.1726,3.0736,3.0187,2.9922,2.8835,2.833,2.8168,2.6586,2.5875,2.5863,2.5641,2.5583,2.5535,2.5382,2.5312,2.5312,2.5312,2.5312,2.5288,2.4843,2.452,2.4386,2.3898,2.3317,2.2767,2.2623,2.2034,2.1074,2.0976,2.0677,2.0204,2.0096,2.0128,2.0096,1.9998,1.9868,1.9684,1.7659,1.6393,1.5973,1.5507,1.4971,1.435,1.4321,1.4043,1.348,1.3442,1.3442,1.348,1.3442,1.3683,1.4231,1.3773,1.3722,1.4231,1.3614,1.3161,1.3061,1.2818,1.2551,1.2297,1.2235,1.1779,1.0713,1.0586,1.0606,1.0621,1.0673,1.0689,1.0903,1.1094,1.1294,1.1494,1.1587,1.1601,1.1533,1.124,1.0957,1.0758,1.0524,1.0351,1.0369,1.0394,1.0413,1.019,0.9774,0.8975,0.8088,0.6772,0.6265,0.6428,0.5975,0.542,0.4977,0.4906,0.4469,0.3808,0.3322,0.2667,0.1653,0.065,0.0,0.0,0.0,0.0,0.0,-0.074,-0.1143,-0.1276,-0.1779,-0.2248,-0.2281,-0.285,-0.3522,3.3101,3.2616,3.182,3.1235,3.0756,2.9605,2.8871,2.8427,2.7657,2.7237,2.7149,2.6968,2.6697,2.6333,2.6616,2.6445,2.5908,2.5975,2.5918,2.5732,2.4909,2.4374,2.4119,2.3613,2.3107,2.2614,2.2558,2.2269,2.1737,2.1694,2.1537,2.1242,2.1242,2.104,2.0677,2.0645,2.0452,2.0085,1.8807,1.7823,1.7042,1.6576,1.589,1.501,1.4971,1.4854,1.4549,1.4519,1.4519,1.4519,1.451,1.4667,1.4942,1.4697,1.4667,1.4971,1.4638,1.4243,1.3914,1.3282,1.2826,1.2673,1.2573,1.2266,1.1663,1.1632,1.1624,1.1639,1.1818,1.2027,1.2151,1.2527,1.2853,1.2985,1.2899,1.262,1.2161,1.17,1.1164,1.057,1.0313,1.0205,1.0109,1.0081,1.0154,1.0175,0.9553,0.8972,0.8933,0.7683,0.6698,0.6667,0.6315,0.5821,0.5275,0.5204,0.4959,0.447,0.4053,0.352,0.2613,0.134,0.0369,0.0537,0.0336,0.0,0.0,0.0,-0.0471,-0.0572,-0.1076,-0.1478,-0.1646,-0.2112,-0.295,3.4045,3.3441,3.2918,3.222,3.1269,3.04,2.9641,2.8985,2.8985,2.8876,2.8698,2.8279,2.7723,2.7291,2.7756,2.7524,2.6845,2.6888,2.6765,2.6399,2.5466,2.4774,2.4336,2.3778,2.3252,2.2744,2.2615,2.2492,2.2395,2.2247,2.2197,2.2197,2.2197,2.1925,2.1356,2.1356,2.1103,2.0602,2.0212,1.9348,1.8058,1.7438,1.6693,1.5894,1.5806,1.5748,1.5613,1.5613,1.5517,1.541,1.542,1.542,1.542,1.542,1.542,1.542,1.542,1.5177,1.4686,1.3923,1.3411,1.3252,1.31,1.3033,1.3085,1.3102,1.2899,1.2621,1.2719,1.2973,1.3171,1.3624,1.4098,1.4234,1.3994,1.3511,1.2971,1.2382,1.1699,1.085,1.0535,1.0326,1.0168,1.0009,0.9989,1.0015,0.9517,0.9308,0.9556,0.8636,0.7734,0.7129,0.678,0.627,0.5502,0.5362,0.5269,0.4964,0.4556,0.4151,0.3585,0.2142,0.1272,0.1541,0.0671,0.0,0.0,0.0067,0.0,0.0,-0.0502,-0.0896,-0.115,-0.154,-0.235,3.4346,3.4197,3.3645,3.264,3.1515,3.1344,3.0937,3.04,3.0417,3.0403,3.016,2.8812,2.8182,2.8071,2.8051,2.7986,2.7822,2.7855,2.7703,2.7352,2.6752,2.6304,2.5908,2.5397,2.486,2.4256,2.3822,2.3325,2.283,2.2414,2.2197,2.2197,2.2197,2.2166,2.2092,2.2092,2.2061,2.1999,2.1951,2.0865,1.8717,1.7672,1.7134,1.7045,1.7006,1.6782,1.6244,1.6187,1.5979,1.5468,1.5439,1.5439,1.5439,1.542,1.541,1.5439,1.5439,1.5303,1.5147,1.5039,1.4834,1.4588,1.446,1.4565,1.4749,1.4803,1.4171,1.3032,1.259,1.3019,1.3441,1.3732,1.4088,1.4598,1.429,1.3843,1.3554,1.3017,1.2514,1.2258,1.1393,1.0909,1.0848,1.0455,1.0059,1.0012,0.976,0.9491,0.9524,0.9327,0.8894,0.8235,0.7316,0.656,0.6235,0.5752,0.5591,0.5392,0.5156,0.4785,0.4253,0.4159,0.403,0.2476,0.1506,0.0838,0.0772,0.0605,0.0,0.0,-0.0066,-0.0322,-0.0879,-0.1123,-0.1746,3.438,3.4356,3.3732,3.2948,3.2089,3.17,3.1366,3.1119,3.0757,3.0612,3.0538,2.9901,2.9421,2.9062,2.9376,2.9219,2.8675,2.8725,2.8583,2.8206,2.74,2.6897,2.6717,2.6015,2.5379,2.4814,2.4405,2.391,2.3334,2.2836,2.2494,2.2216,2.2197,2.2197,2.2197,2.2197,2.2197,2.2185,2.1584,2.0754,1.9878,1.9073,1.8192,1.7295,1.7213,1.7118,1.6866,1.6838,1.6715,1.6472,1.6443,1.6482,1.6472,1.6472,1.6472,1.6472,1.6443,1.6443,1.6397,1.6304,1.6056,1.5584,1.5468,1.5359,1.5241,1.5226,1.4856,1.4246,1.4252,1.4626,1.508,1.5175,1.5314,1.5506,1.5221,1.4712,1.3999,1.349,1.2975,1.2422,1.201,1.1703,1.1609,1.1368,1.0968,1.0534,1.0288,1.0098,0.9638,0.9478,0.9382,0.9055,0.8231,0.7507,0.7088,0.6793,0.6437,0.6108,0.591,0.5609,0.5054,0.496,0.4728,0.3649,0.3182,0.2514,0.1978,0.1376,0.0739,0.0601,0.0197,-0.0096,-0.0403,-0.0462,-0.0937,3.438,3.4341,3.392,3.3354,3.273,3.2077,3.1654,3.1453,3.0843,3.0612,3.0612,3.0612,3.0312,3.0007,3.0387,3.0174,2.9588,2.9637,2.9467,2.9111,2.8324,2.7944,2.7796,2.7229,2.6488,2.5785,2.5401,2.4688,2.3815,2.3382,2.2987,2.2622,2.2463,2.2371,2.2402,2.229,2.2197,2.2137,2.1404,2.0899,2.0593,2.0158,1.9235,1.7867,1.7699,1.7617,1.7451,1.7451,1.7357,1.7202,1.7213,1.7213,1.7213,1.7213,1.7213,1.7213,1.7213,1.7213,1.7213,1.7101,1.6924,1.6613,1.6461,1.6375,1.631,1.6292,1.6309,1.634,1.6335,1.6364,1.5951,1.5949,1.6028,1.6092,1.5771,1.5205,1.4447,1.4027,1.3588,1.3009,1.2803,1.2481,1.2197,1.205,1.1795,1.1329,1.0986,1.0679,1.0009,0.9728,0.958,0.9516,0.9049,0.849,0.7842,0.7419,0.7186,0.6859,0.6564,0.6174,0.5719,0.5587,0.5359,0.4553,0.5109,0.4776,0.3253,0.2278,0.139,0.108,0.0674,0.0218,-0.006,-0.003,-0.024,3.438,3.4414,3.4385,3.3978,3.3402,3.2716,3.2092,3.1509,3.0888,3.0612,3.0612,3.0612,3.0582,3.0507,3.0582,3.0582,3.0507,3.0477,3.031,3.0005,2.9917,2.9777,2.9498,2.9425,2.8722,2.7429,2.6935,2.5829,2.4102,2.3962,2.3829,2.3518,2.3095,2.2878,2.2848,2.2482,2.2228,2.2254,2.2109,2.1614,2.0747,2.0574,1.9949,1.8982,1.8881,1.8575,1.8147,1.8066,1.782,1.7257,1.7296,1.7268,1.7257,1.7257,1.7285,1.7285,1.7257,1.7268,1.7296,1.7346,1.7409,1.7658,1.7687,1.7956,1.8364,1.8407,1.8564,1.9133,1.8218,1.7236,1.5782,1.5564,1.5544,1.5748,1.544,1.5188,1.5074,1.4687,1.4483,1.4258,1.3791,1.326,1.2634,1.2389,1.2389,1.2112,1.1547,1.0986,1.078,1.0263,0.9888,0.967,0.951,0.9215,0.8554,0.8134,0.7679,0.7316,0.7055,0.6498,0.6174,0.5877,0.5583,0.5359,0.5538,0.5166,0.412,0.3109,0.2105,0.1552,0.1193,0.077,0.032,0.0085,-0.0085,3.4872,3.4399,3.438,3.4269,3.3978,3.2962,3.235,3.2063,3.1032,3.0612,3.0612,3.0612,3.0612,3.0612,3.0612,3.0612,3.0612,3.0612,3.0552,3.0431,3.0431,3.0341,3.0249,3.0036,2.9259,2.8122,2.7618,2.6541,2.4946,2.4781,2.4454,2.3917,2.3682,2.3607,2.3547,2.325,2.3022,2.2864,2.2429,2.1792,2.1143,2.0458,1.988,1.9543,1.9155,1.8907,1.8682,1.8682,1.8563,1.8348,1.8348,1.8348,1.8348,1.8336,1.8348,1.8348,1.8336,1.8348,1.8371,1.8662,1.8728,1.8544,1.8825,1.9026,1.9087,1.9071,1.9114,1.9083,1.8871,1.8082,1.7349,1.6618,1.6255,1.6169,1.608,1.5876,1.5614,1.5214,1.4951,1.4863,1.4478,1.404,1.3791,1.3731,1.3511,1.3017,1.2642,1.2197,1.1703,1.1344,1.0937,1.0503,1.0313,1.0034,0.9247,0.8985,0.8662,0.8231,0.7869,0.7479,0.712,0.6691,0.633,0.6077,0.6096,0.5719,0.4789,0.3736,0.2754,0.2012,0.1616,0.1328,0.0706,0.0562,0.0336,3.5676,3.5237,3.5172,3.5106,3.4904,3.3723,3.3023,3.265,3.1444,3.0801,3.0641,3.0612,3.0612,3.0612,3.0612,3.0612,3.0612,3.0612,3.0612,3.0612,3.0612,3.0612,3.0539,3.0139,2.9388,2.8369,2.7669,2.6736,2.5702,2.5577,2.5231,2.4667,2.4483,2.4397,2.4352,2.405,2.3816,2.3579,2.3138,2.2618,2.1948,2.1061,2.0422,1.9982,1.9478,1.9119,1.9013,1.9013,1.9013,1.9013,1.9013,1.9013,1.9013,1.9013,1.9013,1.9025,1.9155,1.9266,1.9326,1.976,1.9964,1.976,2.003,2.0181,2.0166,2.0171,1.9999,1.9794,1.9707,1.9507,1.8887,1.8166,1.7467,1.6975,1.6747,1.6505,1.6078,1.5671,1.5371,1.5167,1.4922,1.4675,1.4515,1.4485,1.4198,1.3731,1.3541,1.3078,1.2573,1.2197,1.1919,1.1322,1.1173,1.0899,1.0338,1.0021,0.9498,0.9011,0.842,0.8166,0.7914,0.7455,0.7066,0.6822,0.6512,0.6189,0.5433,0.4351,0.346,0.2614,0.2312,0.2104,0.1575,0.1066,0.084,3.6783,3.6691,3.6783,3.6523,3.6121,3.5062,3.4132,3.3225,3.2099,3.1273,3.0761,3.0628,3.0657,3.0612,3.0612,3.0612,3.0612,3.0657,3.0628,3.0612,3.0612,3.0612,3.0569,3.0045,2.9392,2.8594,2.7405,2.6664,2.627,2.6244,2.6082,2.5797,2.5384,2.5203,2.5203,2.4782,2.4526,2.4471,2.4374,2.3993,2.324,2.2514,2.1644,2.0648,2.0055,1.9571,1.9153,1.9064,1.9013,1.9013,1.9013,1.9013,1.9013,1.9013,1.9013,1.9086,1.9456,1.9748,1.9796,2.0254,2.0791,2.0955,2.126,2.1385,2.1711,2.1825,2.1646,2.13,2.1164,2.095,2.0211,1.9604,1.8788,1.7727,1.7315,1.6948,1.6511,1.6093,1.5729,1.5371,1.5206,1.501,1.4675,1.4595,1.4526,1.4407,1.398,1.3541,1.329,1.2917,1.2358,1.2074,1.1981,1.1795,1.1454,1.108,1.0376,0.969,0.9011,0.8549,0.8446,0.8127,0.767,0.7368,0.6888,0.6502,0.573,0.473,0.415,0.3457,0.3239,0.2841,0.2298,0.176,0.1367,3.6813,3.6813,3.6813,3.6752,3.6568,3.5857,3.4983,3.3997,3.3151,3.2166,3.1235,3.1073,3.0896,3.0657,3.0612,3.0612,3.0642,3.0896,3.0896,3.0672,3.0612,3.0612,3.0569,3.0394,2.9697,2.8651,2.7416,2.6767,2.6674,2.6633,2.6486,2.619,2.6014,2.5946,2.5933,2.5632,2.5412,2.5245,2.5078,2.4688,2.4065,2.3339,2.2527,2.1803,2.1423,2.0993,2.0454,1.9525,1.9025,1.9064,1.9013,1.9013,1.9013,1.9013,1.9013,1.9074,1.9507,1.9588,1.9456,2.0422,2.106,2.0995,2.1175,2.1644,2.2053,2.1891,2.1777,2.1801,2.1632,2.1248,2.0997,2.0538,1.9695,1.8583,1.8047,1.7734,1.7418,1.6983,1.6379,1.5806,1.5661,1.5584,1.5449,1.5245,1.4981,1.4961,1.4538,1.4189,1.407,1.3881,1.3541,1.3047,1.2917,1.2665,1.2197,1.1788,1.1243,1.047,0.9724,0.894,0.8814,0.8643,0.8216,0.7755,0.7275,0.6704,0.5889,0.5193,0.4617,0.4201,0.3844,0.3405,0.2871,0.2434,0.1968,3.7719,3.7735,3.7719,3.7661,3.7467,3.6965,3.5978,3.4862,3.418,3.3056,3.1887,3.168,3.1451,3.1146,3.1087,3.1087,3.1117,3.1408,3.1278,3.0896,3.0836,3.0791,3.0584,3.0321,2.9711,2.8767,2.7895,2.736,2.7142,2.7101,2.6917,2.6541,2.6498,2.6472,2.6472,2.6326,2.615,2.6028,2.5865,2.5591,2.5094,2.4422,2.3703,2.3138,2.275,2.2232,2.1574,2.071,2.0101,1.9809,1.9571,1.9434,1.9447,1.9672,1.9783,1.9918,2.0412,2.0656,2.011,2.1011,2.1416,2.1051,2.1131,2.1545,2.1934,2.1764,2.1794,2.1783,2.1735,2.1545,2.1306,2.0998,2.0406,1.9789,1.9006,1.8494,1.8137,1.7606,1.7011,1.6475,1.6218,1.6104,1.5874,1.569,1.5459,1.54,1.5216,1.4902,1.4843,1.4764,1.43,1.3971,1.3761,1.3381,1.2879,1.2473,1.2074,1.1272,1.047,0.9612,0.9086,0.8865,0.8513,0.7967,0.7492,0.7064,0.6323,0.5609,0.4982,0.4701,0.4426,0.3914,0.3388,0.2966,0.2537,3.9272,3.9315,3.9272,3.8996,3.8706,3.8274,3.7158,3.5721,3.5152,3.3961,3.2647,3.2348,3.217,3.1964,3.1836,3.1823,3.1879,3.1892,3.1724,3.1437,3.1365,3.119,3.0599,3.0001,2.9421,2.8884,2.8651,2.8245,2.7623,2.7594,2.7376,2.6811,2.6753,2.6779,2.6727,2.6753,2.6727,2.6674,2.6686,2.6527,2.6215,2.5676,2.5057,2.4432,2.3927,2.3363,2.2778,2.2511,2.2047,2.1209,2.0577,2.0373,2.0425,2.0861,2.1051,2.1076,2.2157,2.2023,2.1628,2.1865,2.1998,2.1496,2.1459,2.1505,2.2126,2.2176,2.2033,2.1914,2.1975,2.184,2.1428,2.1083,2.0904,2.0803,1.9902,1.9085,1.8262,1.7947,1.7606,1.7123,1.6797,1.6513,1.6171,1.6017,1.596,1.5931,1.5845,1.5555,1.5352,1.5186,1.4981,1.4745,1.4458,1.413,1.3623,1.3252,1.2816,1.1971,1.1157,1.0368,0.9443,0.9076,0.8607,0.8094,0.7749,0.7334,0.6847,0.6132,0.5571,0.5259,0.485,0.4349,0.3923,0.3501,0.3186,3.9315,3.9315,3.9315,3.9245,3.9164,3.9023,3.7986,3.6521,3.6275,3.4969,3.3456,3.3087,3.2783,3.2226,3.2241,3.2117,3.2076,3.2284,3.216,3.1851,3.2132,3.1566,3.0631,2.9929,2.9552,2.9363,2.8956,2.8347,2.7739,2.771,2.7376,2.6808,2.6794,2.6794,2.6794,2.6794,2.6794,2.6794,2.6794,2.6779,2.663,2.6287,2.5785,2.523,2.5205,2.4894,2.4375,2.4319,2.3487,2.1895,2.1634,2.1504,2.1546,2.1713,2.1843,2.1932,2.2407,2.2557,2.2189,2.2668,2.2869,2.2461,2.2257,2.2601,2.3094,2.2789,2.2756,2.2833,2.281,2.2356,2.1824,2.1345,2.0977,2.0463,2.0178,1.9631,1.8822,1.8655,1.8494,1.7717,1.7479,1.7228,1.6965,1.6627,1.6428,1.6371,1.6189,1.5931,1.5787,1.57,1.5555,1.5235,1.4951,1.4725,1.4398,1.4031,1.3463,1.2613,1.186,1.1136,1.0165,0.9325,0.8707,0.8033,0.8009,0.7699,0.7306,0.6756,0.6326,0.5774,0.5236,0.4723,0.4428,0.4059,0.3832,3.9315,3.9315,3.9315,3.9315,3.9315,3.9315,3.8365,3.7079,3.684,3.5747,3.4161,3.3843,3.3563,3.3082,3.3055,3.2922,3.2738,3.2926,3.2738,3.2244,3.2244,3.1851,3.1159,3.0572,3.0309,3.0207,2.9449,2.8753,2.8187,2.7855,2.7362,2.6895,2.6794,2.6794,2.6794,2.6794,2.6794,2.6794,2.6794,2.6794,2.6779,2.6618,2.6381,2.6067,2.6195,2.6019,2.5601,2.5439,2.4678,2.3514,2.3031,2.2817,2.2764,2.2977,2.3016,2.2919,2.3405,2.3428,2.288,2.3241,2.3267,2.2851,2.2693,2.2992,2.3301,2.3225,2.3262,2.344,2.3225,2.2911,2.2551,2.1982,2.1289,2.0666,2.0598,2.0283,1.9357,1.9396,1.9212,1.8682,1.8224,1.7886,1.7733,1.7245,1.6976,1.6864,1.6722,1.6457,1.6257,1.6189,1.6036,1.57,1.5497,1.5294,1.4993,1.4615,1.4101,1.3281,1.2259,1.1631,1.0655,0.9644,0.9031,0.8467,0.8321,0.807,0.7694,0.7243,0.6671,0.6127,0.5576,0.5146,0.4835,0.4542,0.4343,3.9315,3.9315,3.9315,3.9315,3.9315,3.9282,3.8526,3.74,3.7126,3.6191,3.4906,3.4554,3.4284,3.4134,3.3958,3.3949,3.3694,3.3642,3.3288,3.2819,3.2477,3.2188,3.2033,3.1492,3.1246,3.1128,3.0265,2.9519,2.8944,2.8276,2.7608,2.7161,2.6948,2.6884,2.6884,2.6832,2.6794,2.6794,2.6794,2.6794,2.6794,2.6753,2.6669,2.6654,2.6654,2.658,2.6308,2.6092,2.5679,2.5198,2.4594,2.4196,2.4028,2.447,2.453,2.4382,2.4639,2.4596,2.3912,2.383,2.3588,2.3202,2.3029,2.3028,2.3583,2.3702,2.376,2.3891,2.3647,2.35,2.3147,2.2655,2.1851,2.1103,2.1166,2.0995,2.0511,2.0067,1.9875,1.9773,1.8939,1.8555,1.8244,1.7859,1.7407,1.7385,1.719,1.6902,1.6751,1.6684,1.6428,1.6075,1.596,1.5931,1.556,1.5135,1.4617,1.394,1.2725,1.1808,1.0882,1.0034,0.9449,0.904,0.889,0.8554,0.811,0.7596,0.7064,0.6546,0.6041,0.5608,0.5222,0.4929,0.4684,3.9315,3.9315,3.9315,3.9315,3.9315,3.9299,3.8775,3.793,3.7367,3.6572,3.5704,3.5068,3.4676,3.4423,3.4399,3.425,3.4025,3.4,3.3781,3.3497,3.3393,3.3198,3.2861,3.2216,3.1823,3.1677,3.156,3.0739,2.9823,2.9319,2.8798,2.777,2.7476,2.7288,2.7222,2.6963,2.6779,2.6794,2.6794,2.6794,2.6794,2.6794,2.6794,2.6794,2.6794,2.6753,2.6727,2.6633,2.6534,2.6299,2.5836,2.5385,2.5375,2.5488,2.5491,2.5437,2.5535,2.5467,2.5149,2.4969,2.4886,2.446,2.4351,2.4526,2.4592,2.4606,2.4645,2.4694,2.4658,2.4106,2.3259,2.265,2.2013,2.1466,2.1313,2.1313,2.1118,2.0809,2.0396,1.9952,1.9643,1.9345,1.903,1.8474,1.812,1.7941,1.7634,1.7323,1.7211,1.7145,1.6835,1.6457,1.6282,1.6213,1.5861,1.5295,1.4532,1.4016,1.299,1.2264,1.1344,1.066,1.02,0.9788,0.9465,0.9035,0.855,0.8137,0.7641,0.708,0.6528,0.6123,0.5751,0.5395,0.5264,3.9315,3.9315,3.9315,3.9315,3.9315,3.9299,3.8874,3.8245,3.7788,3.7003,3.6092,3.5562,3.5158,3.4707,3.4667,3.4546,3.43,3.4151,3.4025,3.3899,3.3848,3.3736,3.3503,3.298,3.2614,3.2238,3.1655,3.1022,3.0521,3.0046,2.9371,2.85,2.8228,2.7848,2.7471,2.7196,2.6974,2.6806,2.6794,2.6794,2.6794,2.6794,2.6794,2.6794,2.6794,2.6794,2.6779,2.6779,2.6779,2.6727,2.6474,2.6218,2.6096,2.6055,2.6042,2.5921,2.5893,2.5839,2.5716,2.5674,2.5591,2.5453,2.5425,2.5355,2.5272,2.5229,2.5131,2.4965,2.4638,2.4069,2.2957,2.289,2.2307,2.1589,2.1385,2.1385,2.1361,2.1191,2.0995,2.056,2.0283,2.0042,1.9644,1.9151,1.8833,1.8643,1.8174,1.7831,1.7579,1.7496,1.7211,1.6894,1.6642,1.6409,1.6079,1.5386,1.4353,1.3725,1.298,1.2575,1.2119,1.1526,1.104,1.0518,0.9939,0.9459,0.8984,0.8574,0.8109,0.7554,0.7032,0.6663,0.6337,0.6099,0.6051,3.9315,3.9315,3.9315,3.9315,3.9315,3.9299,3.8957,3.8444,3.8245,3.7516,3.6489,3.6257,3.5852,3.5379,3.514,3.4904,3.4586,3.4374,3.4259,3.4176,3.4151,3.4,3.3771,3.3601,3.3361,3.2741,3.206,3.1486,3.1148,3.0624,3.0135,2.9322,2.9083,2.8551,2.781,2.7488,2.731,2.7,2.7052,2.6937,2.6858,2.6858,2.691,2.6794,2.6794,2.6794,2.6794,2.6794,2.6794,2.6794,2.6794,2.6659,2.6472,2.6351,2.6297,2.6056,2.6125,2.6056,2.5988,2.5948,2.5948,2.5921,2.5893,2.5798,2.5619,2.5536,2.5439,2.508,2.4682,2.3824,2.2658,2.2671,2.2388,2.1697,2.1385,2.1385,2.1385,2.1385,2.1313,2.1264,2.0896,2.061,2.0321,1.9953,1.9631,1.9305,1.8806,1.8394,1.8174,1.7891,1.7633,1.7225,1.6917,1.62,1.5811,1.5353,1.433,1.3748,1.3061,1.2871,1.274,1.2403,1.1821,1.0937,1.0352,0.9873,0.9374,0.8844,0.8355,0.7916,0.7498,0.706,0.6868,0.6764,0.6677,3.9315,3.9315,3.9315,3.9315,3.9315,3.9315,3.9216,3.9033,3.8477,3.8112,3.7748,3.7185,3.6837,3.6506,3.6025,3.5463,3.4895,3.4691,3.4594,3.4472,3.4423,3.43,3.4075,3.4025,3.3908,3.3739,3.3118,3.2578,3.2186,3.1897,3.1209,3.0212,2.9716,2.9113,2.8449,2.8002,2.766,2.7372,2.7469,2.7382,2.7078,2.713,2.7181,2.6963,2.6937,2.6884,2.6846,2.682,2.6794,2.6794,2.6794,2.6779,2.6727,2.6712,2.6686,2.658,2.6568,2.6447,2.627,2.6217,2.6109,2.5961,2.5975,2.5948,2.5839,2.5839,2.5715,2.5452,2.4928,2.4133,2.3173,2.2821,2.2196,2.1616,2.1385,2.1385,2.1385,2.1385,2.1385,2.1361,2.124,2.1131,2.0833,2.0572,2.0295,1.9965,1.9541,1.919,1.8965,1.8602,1.8189,1.7687,1.7134,1.6258,1.5418,1.4953,1.4321,1.3952,1.344,1.3214,1.3108,1.3098,1.2556,1.1489,1.0824,1.0422,0.9831,0.9141,0.8692,0.8292,0.787,0.7468,0.732,0.7166,0.677,3.9315,3.9315,3.9315,3.9315,3.9315,3.9315,3.9315,3.9265,3.8907,3.8543,3.8195,3.7788,3.7201,3.6622,3.6208,3.5595,3.5065,3.4899,3.4811,3.4715,3.4691,3.457,3.4325,3.43,3.4201,3.4075,3.379,3.355,3.323,3.3071,3.2408,3.1577,3.08,2.9989,2.9115,2.8504,2.8073,2.7795,2.779,2.7765,2.7393,2.757,2.7494,2.7433,2.7331,2.7295,2.7119,2.7119,2.6989,2.6873,2.6794,2.6794,2.6858,2.6963,2.7015,2.6858,2.6806,2.6753,2.6592,2.6539,2.65,2.642,2.6367,2.6272,2.615,2.6068,2.5929,2.5514,2.5368,2.4473,2.3146,2.2855,2.2346,2.1616,2.141,2.141,2.1385,2.1385,2.1385,2.1385,2.1337,2.1264,2.1277,2.1044,2.0883,2.0572,2.0207,1.9991,1.976,1.9263,1.873,1.7792,1.7111,1.6141,1.5333,1.4912,1.4465,1.41,1.3823,1.3589,1.3355,1.328,1.2692,1.1798,1.1283,1.0884,1.0114,0.9368,0.9023,0.8692,0.8311,0.7968,0.7772,0.7524,0.7134,3.9315,3.9315,3.9315,3.9315,3.9315,3.9315,3.9315,3.9315,3.9299,3.8984,3.8477,3.8361,3.7715,3.6671,3.6092,3.5611,3.4949,3.4899,3.4899,3.4875,3.4875,3.4756,3.4659,3.457,3.4497,3.4374,3.43,3.4201,3.3944,3.3777,3.3389,3.2568,3.1755,3.0851,2.9883,2.91,2.8556,2.8183,2.8149,2.8149,2.8036,2.7923,2.7889,2.7889,2.7889,2.773,2.7524,2.7499,2.7295,2.7067,2.6937,2.6937,2.6974,2.7207,2.7258,2.7093,2.6989,2.691,2.6806,2.691,2.6884,2.67,2.6873,2.6712,2.6498,2.6349,2.614,2.5493,2.5383,2.4905,2.3548,2.319,2.269,2.1909,2.1568,2.1471,2.1499,2.1474,2.1385,2.1385,2.1385,2.141,2.1423,2.1326,2.1118,2.108,2.0746,2.0635,2.037,1.9762,1.9083,1.791,1.6979,1.5986,1.5337,1.5015,1.4644,1.4309,1.4084,1.3888,1.3626,1.3399,1.2683,1.1982,1.1662,1.1207,1.0384,0.9788,0.9564,0.9248,0.8809,0.8455,0.8203,0.7912,0.7553,3.9315,3.9315,3.9315,3.9315,3.9315,3.9315,3.9315,3.9315,3.9315,3.9265,3.91,3.91,3.8626,3.7632,3.6373,3.5595,3.5081,3.4899,3.4899,3.4899,3.4899,3.4875,3.4835,3.4835,3.4787,3.4691,3.4715,3.4521,3.425,3.4101,3.3752,3.3088,3.2281,3.1437,3.0545,2.9671,2.9059,2.8606,2.8764,2.8764,2.8439,2.8134,2.8012,2.7963,2.7987,2.7963,2.7879,2.7854,2.767,2.7386,2.7325,2.7325,2.735,2.7376,2.7575,2.761,2.7484,2.7196,2.7,2.7155,2.7207,2.7078,2.717,2.7067,2.6933,2.6803,2.664,2.6212,2.6078,2.5437,2.428,2.3765,2.3107,2.247,2.1991,2.1852,2.1784,2.1845,2.1708,2.1612,2.1708,2.1626,2.1578,2.1471,2.1375,2.135,2.1288,2.1166,2.0835,2.0139,1.9352,1.8194,1.7154,1.618,1.5754,1.5367,1.4994,1.4651,1.4422,1.4207,1.3777,1.3407,1.2818,1.2247,1.1923,1.1511,1.0835,1.0351,1.0157,0.9815,0.9401,0.897,0.8561,0.8262,0.801,3.9315,3.9315,3.9315,3.9315,3.9315,3.9315,3.9315,3.9315,3.9315,3.9315,3.9315,3.9299,3.8676,3.75,3.6042,3.5214,3.4932,3.4899,3.4899,3.4899,3.4899,3.4899,3.4899,3.4899,3.4899,3.4899,3.4899,3.4787,3.4546,3.4382,3.4137,3.3738,3.2674,3.1868,3.1144,3.0226,2.9544,2.9159,2.9082,2.899,2.885,2.8685,2.8574,2.8559,2.8559,2.8439,2.8295,2.8247,2.8036,2.777,2.767,2.7655,2.7745,2.787,2.8027,2.7864,2.8002,2.782,2.7545,2.762,2.756,2.7494,2.757,2.7595,2.7469,2.7393,2.7367,2.7206,2.6984,2.6295,2.5257,2.4591,2.3861,2.3203,2.261,2.2352,2.2273,2.2245,2.2212,2.2095,2.2016,2.1992,2.1921,2.1746,2.1626,2.1496,2.1396,2.1261,2.0839,2.0211,1.936,1.8411,1.7436,1.6482,1.6253,1.5976,1.5579,1.522,1.4915,1.4552,1.3906,1.34,1.2771,1.2276,1.1844,1.145,1.1101,1.0793,1.0476,1.0235,0.9991,0.9599,0.9211,0.8846,0.8577,3.9315,3.9315,3.9315,3.9315,3.9315,3.9315,3.9315,3.9315,3.9315,3.9315,3.9249,3.9083,3.8261,3.7085,3.5893,3.5197,3.4899,3.4899,3.4899,3.4899,3.4899,3.4899,3.4899,3.4899,3.4899,3.4899,3.4899,3.4875,3.4828,3.4699,3.4496,3.4282,3.2901,3.2085,3.1528,3.0606,2.9744,2.9522,2.9328,2.9213,2.9167,2.9098,2.9068,2.9091,2.9068,2.8982,2.8693,2.8646,2.8463,2.8149,2.8061,2.8061,2.811,2.8247,2.8391,2.8343,2.8503,2.8503,2.8247,2.8149,2.8036,2.7938,2.7889,2.7839,2.7839,2.7889,2.7889,2.775,2.7794,2.72,2.6382,2.5516,2.4861,2.4105,2.3366,2.3072,2.2785,2.2709,2.2595,2.242,2.2397,2.2566,2.242,2.2119,2.1898,2.1664,2.1516,2.1379,2.0867,2.0247,1.9481,1.8631,1.7872,1.7018,1.6655,1.6432,1.6086,1.5774,1.5429,1.486,1.4147,1.3373,1.2665,1.2196,1.1825,1.1556,1.1287,1.1031,1.0793,1.062,1.0437,1.0215,0.9884,0.9487,0.9053,3.9315,3.9315,3.9315,3.9315,3.9315,3.9315,3.9315,3.9315,3.9315,3.9315,3.9216,3.8593,3.793,3.7069,3.6307,3.5528,3.4899,3.4899,3.4932,3.4932,3.4899,3.4899,3.4899,3.4899,3.4899,3.4899,3.4899,3.4899,3.4899,3.4875,3.4454,3.3799,3.2974,3.2175,3.1462,3.0697,3.0033,2.9804,2.9582,2.947,2.938,2.9289,2.9167,2.9144,2.9137,2.9091,2.9068,2.9029,2.885,2.8479,2.8463,2.8463,2.8487,2.855,2.8669,2.8811,2.8873,2.8912,2.8803,2.8574,2.8295,2.8036,2.7987,2.8061,2.811,2.7972,2.7923,2.8061,2.8231,2.7937,2.7215,2.6512,2.5682,2.501,2.4223,2.3613,2.3326,2.3083,2.2949,2.274,2.2852,2.3106,2.3128,2.2883,2.2273,2.2006,2.1718,2.1568,2.0964,2.0347,1.9664,1.893,1.8303,1.7624,1.7076,1.6824,1.6655,1.6223,1.5779,1.5073,1.4312,1.3509,1.2788,1.2268,1.1945,1.1719,1.1504,1.1306,1.1134,1.1019,1.0838,1.0581,1.0273,0.9854,0.9432,3.9315,3.9315,3.9315,3.9315,3.9315,3.9315,3.9315,3.9315,3.9315,3.9315,3.9249,3.8526,3.7814,3.7185,3.682,3.5992,3.5098,3.5413,3.5214,3.4998,3.4899,3.4899,3.4899,3.4899,3.4899,3.4899,3.4899,3.4899,3.4899,3.4899,3.4435,3.3789,3.3133,3.2657,3.1902,3.0865,3.0266,3.0022,2.9848,2.97,2.9655,2.9611,2.9522,2.9522,2.938,2.9373,2.9328,2.9167,2.9013,2.8897,2.8858,2.8834,2.8826,2.885,2.892,2.9075,2.9114,2.9114,2.9114,2.8943,2.8803,2.8716,2.863,2.8606,2.855,2.8622,2.863,2.8716,2.8732,2.8443,2.8045,2.7103,2.62,2.5711,2.505,2.428,2.3861,2.3625,2.356,2.3443,2.3638,2.3873,2.3809,2.3687,2.2987,2.2319,2.2021,2.168,2.1129,2.054,1.9927,1.9225,1.8575,1.8071,1.7516,1.7359,1.7276,1.6752,1.6173,1.5459,1.4725,1.3895,1.3205,1.263,1.218,1.2059,1.1888,1.166,1.1463,1.1284,1.1086,1.0859,1.0524,1.0186,0.9703,3.9315,3.9315,3.9315,3.9315,3.9315,3.9315,3.9315,3.9315,3.9315,3.9315,3.9249,3.8526,3.7947,3.745,3.6837,3.6307,3.5479,3.5446,3.5263,3.5065,3.4899,3.4899,3.4899,3.4899,3.4899,3.4899,3.4899,3.4899,3.4899,3.4899,3.4634,3.4104,3.3392,3.2928,3.1973,3.111,3.0312,3.0231,3.0065,2.9919,2.9919,2.9815,2.9772,2.975,2.9633,2.9589,2.956,2.9448,2.9328,2.9243,2.9198,2.9167,2.9137,2.9114,2.9114,2.9114,2.9114,2.9114,2.9114,2.9114,2.9098,2.9006,2.9029,2.9045,2.9114,2.9114,2.8982,2.9029,2.9068,2.8982,2.8591,2.7569,2.6811,2.6302,2.528,2.4523,2.4374,2.4187,2.4193,2.4198,2.4338,2.4302,2.4224,2.4021,2.3406,2.2799,2.2512,2.2096,2.1551,2.0962,2.0336,1.9603,1.8823,1.8361,1.7929,1.7733,1.7537,1.737,1.6763,1.6009,1.5261,1.4425,1.3618,1.3014,1.2656,1.249,1.2269,1.2016,1.1752,1.1504,1.1306,1.1096,1.0728,1.0356,0.9847,3.9315,3.9315,3.9315,3.9315,3.9315,3.9315,3.9315,3.9315,3.9315,3.9315,3.9232,3.8576,3.8245,3.7847,3.697,3.629,3.5794,3.5346,3.5015,3.4949,3.4899,3.4899,3.4899,3.4899,3.4899,3.4899,3.4899,3.4899,3.4899,3.4899,3.48,3.4584,3.3905,3.2994,3.1714,3.0919,3.0539,3.0447,3.0274,3.021,3.013,2.9984,2.9903,2.9919,2.9853,2.981,2.9804,2.97,2.9605,2.9515,2.9454,2.938,2.9259,2.9213,2.919,2.919,2.9144,2.9121,2.9114,2.9114,2.9114,2.9114,2.9114,2.9114,2.9114,2.9114,2.9114,2.9114,2.9114,2.9114,2.8611,2.7933,2.7296,2.665,2.5611,2.4862,2.4701,2.4616,2.46,2.4584,2.4559,2.4503,2.4467,2.4271,2.3724,2.3253,2.2979,2.2541,2.196,2.1318,2.0693,2.0032,1.9237,1.8604,1.8195,1.7983,1.7821,1.7699,1.7262,1.6445,1.5742,1.4985,1.4212,1.3454,1.3138,1.2978,1.2668,1.2347,1.207,1.1789,1.156,1.1311,1.0933,1.0545,1.0085,3.9315,3.9315,3.9315,3.9315,3.9315,3.9315,3.9315,3.9315,3.9315,3.9315,3.9282,3.9,3.8593,3.8112,3.759,3.682,3.5992,3.5876,3.5512,3.4916,3.4899,3.4899,3.4899,3.4899,3.4899,3.4899,3.4899,3.4899,3.4899,3.4899,3.4899,3.4717,3.4187,3.3027,3.1962,3.125,3.1068,3.0588,3.0426,3.0401,3.0384,3.0316,3.022,3.0236,3.013,3.0065,3.0044,2.9941,2.981,2.9722,2.97,2.9633,2.9522,2.9499,2.9522,2.9499,2.9454,2.9259,2.9183,2.9114,2.9114,2.9137,2.9114,2.9114,2.9114,2.9114,2.9114,2.9114,2.9114,2.9114,2.887,2.7835,2.7135,2.6809,2.5988,2.5214,2.4882,2.4862,2.4846,2.4862,2.4842,2.4762,2.4686,2.463,2.4168,2.3697,2.3404,2.292,2.2378,2.1654,2.0986,2.0402,1.9704,1.8974,1.8456,1.8274,1.8129,1.8007,1.7478,1.6701,1.6034,1.5421,1.4732,1.3946,1.3696,1.3438,1.3104,1.2761,1.2354,1.2059,1.1833,1.1586,1.126,1.0893,1.049,3.9325,3.9315,3.9315,3.9315,3.9315,3.9315,3.9315,3.9315,3.9315,3.9315,3.9249,3.905,3.8659,3.8162,3.7599,3.7135,3.5976,3.5678,3.5512,3.4916,3.4899,3.4899,3.4899,3.4899,3.4899,3.4899,3.4899,3.4899,3.4899,3.4899,3.4899,3.4783,3.4402,3.364,3.2624,3.1979,3.1366,3.0936,3.0766,3.065,3.0716,3.0679,3.0468,3.0443,3.038,3.0312,3.0274,3.0151,2.9989,2.9962,2.9919,2.9897,2.9853,2.9793,2.9793,2.9728,2.9677,2.9515,2.9403,2.938,2.9403,2.9403,2.9213,2.9114,2.9114,2.9114,2.9114,2.9114,2.9114,2.9114,2.8925,2.7819,2.7415,2.7083,2.6356,2.5566,2.5266,2.5262,2.4946,2.4985,2.5001,2.4922,2.4882,2.4862,2.467,2.4228,2.3809,2.3314,2.2722,2.1961,2.1209,2.0573,2.0035,1.9349,1.8846,1.8644,1.847,1.8333,1.7838,1.7296,1.6368,1.5763,1.5101,1.4506,1.4136,1.3808,1.3514,1.3178,1.2779,1.2407,1.2095,1.1833,1.1567,1.1139,1.069,3.9448,3.9325,3.9299,3.9299,3.9325,3.9352,3.9325,3.9315,3.9315,3.9315,3.9282,3.8626,3.8444,3.8046,3.6854,3.6257,3.5959,3.5379,3.5048,3.4932,3.4899,3.4899,3.4899,3.4899,3.4899,3.4899,3.4899,3.4899,3.4899,3.4899,3.4899,3.4899,3.4783,3.4137,3.3342,3.2613,3.1929,3.1581,3.1305,3.1201,3.125,3.0952,3.0688,3.0567,3.0464,3.0443,3.0426,3.0384,3.0316,3.0253,3.021,3.0065,2.9941,2.9815,2.9815,2.9793,2.9832,2.9788,2.9722,2.9677,2.9683,2.9611,2.9364,2.9213,2.916,2.9206,2.9183,2.9137,2.9114,2.9114,2.894,2.8458,2.799,2.7352,2.6625,2.6135,2.5819,2.5535,2.5128,2.4985,2.4985,2.4966,2.4966,2.4946,2.489,2.4591,2.4104,2.3596,2.2964,2.2056,2.1334,2.0622,2.0107,1.9662,1.9295,1.9016,1.8841,1.8688,1.8746,1.8255,1.7216,1.618,1.5565,1.5012,1.4498,1.4124,1.3848,1.3535,1.3178,1.2814,1.2496,1.2089,1.1826,1.1198,1.0669,3.9625,3.9573,3.9484,3.9484,3.959,3.9573,3.9484,3.9299,3.9315,3.9315,3.9282,3.9073,3.8841,3.8851,3.7466,3.6887,3.6241,3.5628,3.5081,3.4899,3.4899,3.4899,3.4899,3.4899,3.4899,3.4899,3.4899,3.4899,3.4899,3.4899,3.4899,3.4899,3.4899,3.4435,3.3938,3.3375,3.2911,3.2448,3.2083,3.1851,3.1664,3.135,3.0969,3.0638,3.0489,3.0489,3.0489,3.0489,3.0443,3.0422,3.0401,3.0321,3.0321,3.03,3.0279,3.0087,3.0065,3.0,2.9837,2.9793,2.9815,2.9837,2.9677,2.9544,2.9448,2.9396,2.9328,2.9259,2.9183,2.9183,2.9065,2.8686,2.8354,2.7873,2.7083,2.6388,2.6024,2.5539,2.5144,2.5005,2.5005,2.5005,2.5005,2.4985,2.4899,2.4721,2.4418,2.3957,2.3305,2.2446,2.1635,2.0939,2.0472,2.0122,1.9711,1.9394,1.924,1.9091,1.9196,1.9013,1.8006,1.7013,1.6202,1.5427,1.4743,1.4392,1.4173,1.3865,1.3547,1.331,1.2988,1.2508,1.2006,1.1471,1.0859,3.9729,3.9677,3.9599,3.9625,3.9703,3.9703,3.9599,3.9441,3.9388,3.9352,3.9315,3.9299,3.8984,3.8271,3.74,3.6721,3.6009,3.5363,3.4899,3.4899,3.4923,3.4899,3.4899,3.4923,3.4899,3.4899,3.4899,3.4899,3.4899,3.4899,3.4899,3.4899,3.4899,3.4634,3.4336,3.4187,3.4005,3.3491,3.3017,3.2514,3.215,3.1763,3.1151,3.0688,3.0522,3.0489,3.0489,3.0489,3.0489,3.0489,3.0489,3.0489,3.0485,3.0468,3.0485,3.0316,3.0316,3.0236,3.0135,3.0113,3.0092,3.007,3.0049,2.9979,2.9788,2.9694,2.9582,2.947,2.9357,2.9227,2.9062,2.8874,2.8686,2.8489,2.7541,2.6577,2.6024,2.5507,2.5238,2.5033,2.5005,2.5005,2.5005,2.5005,2.497,2.4891,2.4792,2.4567,2.3901,2.3075,2.2232,2.1463,2.1044,2.0654,2.0246,1.9907,1.9788,1.9714,1.9785,1.9449,1.8607,1.7673,1.6665,1.5756,1.4876,1.4562,1.4303,1.4189,1.3944,1.3698,1.3463,1.3074,1.2579,1.1984,1.1331,3.9833,3.9755,3.9729,3.9662,3.962,3.9679,3.9729,3.9703,3.959,3.9458,3.9352,3.9269,3.8555,3.7817,3.7161,3.634,3.5726,3.5146,3.4947,3.4923,3.4947,3.4947,3.4947,3.4906,3.4947,3.4923,3.4899,3.4899,3.4899,3.4899,3.4899,3.4899,3.4899,3.4783,3.4733,3.4717,3.4584,3.4386,3.369,3.3077,3.268,3.21,3.135,3.0754,3.0572,3.0489,3.0489,3.0489,3.0489,3.0489,3.0489,3.0489,3.0489,3.0489,3.0485,3.0485,3.0464,3.0426,3.0384,3.0363,3.0405,3.0426,3.0468,3.0338,3.0151,2.9957,2.9826,2.9655,2.9544,2.9499,2.9358,2.9259,2.9134,2.8685,2.7878,2.7116,2.6577,2.5887,2.5128,2.5005,2.5005,2.5005,2.5005,2.5005,2.5005,2.4989,2.4958,2.4859,2.4527,2.3699,2.303,2.2187,2.1582,2.1196,2.0831,2.0526,2.0424,2.0392,2.0323,2.0064,1.9364,1.827,1.7073,1.5938,1.483,1.461,1.4383,1.4254,1.4187,1.4059,1.3832,1.3632,1.316,1.2567,1.182,4.0037,4.0011,4.0011,3.9632,3.9169,3.9725,3.9935,3.9833,3.9824,3.9703,3.9525,3.9022,3.8588,3.8045,3.6986,3.6195,3.5823,3.5207,3.5091,3.5058,3.5041,3.5058,3.5058,3.5041,3.4994,3.4923,3.4899,3.4899,3.4899,3.4899,3.4899,3.4899,3.4899,3.4899,3.4899,3.4899,3.4883,3.4849,3.4502,3.3856,3.3458,3.2812,3.2116,3.1366,3.0952,3.0539,3.0489,3.0489,3.0489,3.0489,3.0489,3.0489,3.0489,3.0489,3.0489,3.0489,3.0489,3.0489,3.0489,3.0489,3.0489,3.0489,3.0489,3.0468,3.038,3.021,3.006,2.9913,2.9788,2.9744,2.97,2.9633,2.948,2.8862,2.8253,2.7693,2.7142,2.6161,2.5167,2.5005,2.5005,2.5005,2.5005,2.5005,2.5005,2.5005,2.5005,2.4954,2.4938,2.4464,2.4081,2.3251,2.2197,2.1701,2.1352,2.0942,2.0707,2.0595,2.0526,2.03,1.9996,1.8888,1.758,1.5932,1.481,1.4743,1.461,1.4332,1.4252,1.4219,1.4108,1.3848,1.3665,1.3178,1.2382,4.0113,4.0113,4.0096,3.9825,3.9522,3.9893,4.0062,3.9986,3.9986,3.9935,3.9741,3.9017,3.8439,3.807,3.6898,3.6121,3.5849,3.5415,3.5232,3.5198,3.5198,3.5198,3.5198,3.5198,3.5088,3.5018,3.4947,3.4899,3.4899,3.4899,3.4899,3.4899,3.4899,3.4899,3.4899,3.4899,3.4899,3.4899,3.4899,3.4634,3.4087,3.3309,3.2398,3.1615,3.1002,3.0605,3.0489,3.0489,3.0489,3.0489,3.0489,3.0489,3.0489,3.0489,3.0489,3.0489,3.0489,3.0489,3.0489,3.0489,3.0489,3.0489,3.0489,3.0468,3.0468,3.0321,3.0321,3.0177,3.0044,2.9979,2.9919,2.9832,2.9722,2.9311,2.8646,2.7998,2.7283,2.6366,2.5512,2.5005,2.5025,2.5119,2.508,2.5005,2.5005,2.5005,2.5005,2.5005,2.5005,2.5005,2.4701,2.4207,2.307,2.2185,2.169,2.1216,2.0775,2.0727,2.0677,2.0215,1.9771,1.9097,1.8057,1.6648,1.5595,1.5151,1.4971,1.4559,1.433,1.4268,1.4187,1.4059,1.3881,1.3732,1.3162,4.0045,3.9977,4.0062,4.0028,3.9994,4.0062,4.0096,4.0096,4.0096,4.0096,3.991,3.8942,3.8162,3.75,3.6645,3.5951,3.5498,3.5381,3.5331,3.5314,3.5314,3.5314,3.5314,3.5314,3.5222,3.5088,3.497,3.4923,3.4899,3.4899,3.4899,3.4899,3.4899,3.4899,3.4923,3.4899,3.4899,3.4899,3.4899,3.4899,3.4319,3.3591,3.268,3.1835,3.1085,3.0654,3.0555,3.0489,3.0489,3.0489,3.0489,3.0489,3.0489,3.0489,3.0489,3.0489,3.0489,3.0489,3.0489,3.0489,3.0489,3.0489,3.0489,3.0489,3.0489,3.0489,3.0468,3.0405,3.0274,3.021,3.013,3.0087,2.9962,2.9718,2.9016,2.8294,2.7466,2.667,2.5978,2.5262,2.5187,2.5281,2.5158,2.5064,2.5005,2.5005,2.5005,2.5005,2.5005,2.5005,2.4859,2.4464,2.3717,2.2912,2.2201,2.1584,2.1078,2.0778,2.0649,2.011,1.962,1.9259,1.8667,1.7664,1.675,1.5916,1.5193,1.4692,1.4511,1.433,1.4268,1.4187,1.4187,1.4026,1.3944,3.9757,3.9283,3.9842,3.9791,3.9385,3.9842,4.0113,4.0113,4.0113,4.0113,3.9749,3.871,3.7901,3.7732,3.6308,3.561,3.5513,3.5452,3.5452,3.5469,3.5452,3.5469,3.5446,3.5429,3.5314,3.5175,3.5018,3.4923,3.4947,3.4923,3.4923,3.4923,3.4923,3.4923,3.4923,3.4923,3.4923,3.4923,3.4923,3.4899,3.4717,3.4021,3.3315,3.2514,3.1802,3.1135,3.0704,3.0506,3.0489,3.0489,3.0489,3.0489,3.0489,3.0489,3.0489,3.0489,3.0489,3.0489,3.0489,3.0489,3.0489,3.0489,3.0489,3.0489,3.0489,3.0489,3.0489,3.0489,3.0384,3.0384,3.0342,3.0342,3.0262,2.9945,2.9386,2.8672,2.7879,2.723,2.6568,2.6011,2.5628,2.5532,2.5294,2.5182,2.5045,2.5025,2.5005,2.5005,2.5005,2.5005,2.5005,2.4622,2.4195,2.3578,2.2835,2.2027,2.1489,2.111,2.0746,2.0428,2.0095,1.9748,1.9074,1.8343,1.7311,1.6333,1.5634,1.4987,1.4522,1.4341,1.4314,1.43,1.4316,1.4268,1.4138]}]]